GFSSE_con_mucape_000.txt.gz
CAPE
931 613 842 829 1304 1651 1908 2236 2524 2436 2321 2143 1953 1952 2107 2097 1769 1523 1577 1519 1347 993 1097 1803 1907 1542 1004 1032 1219 1928 2003 1965 1800 1833 1695 1256 1069 1159 961 1056 1480 958 1627
1071 562 779 881 1164 1604 1980 2225 2580 2821 2547 2481 2306 2097 1721 1943 1660 986 462 430 626 264 231 767 1152 1403 1598 1770 1740 1763 1772 1847 1828 1803 1715 1371 1087 859 1033 1157 737 890 1626
1099 987 293 984 928 1188 1621 2093 2306 2462 2216 2563 2484 2096 1894 1335 1124 839 484 57 6 23 49 529 860 1287 1413 1548 1756 1732 1861 1895 1811 1813 1774 1060 905 1098 860 889 803 1503 1543
1209 1058 676 1344 1274 1013 1185 1470 2039 2284 2286 2296 2400 2046 1650 1122 920 975 432 147 6 86 108 402 733 827 1498 992 1336 1643 1591 1713 1701 1770 1232 679 973 1311 710 672 730 1107 1711
1340 1280 1054 1497 1428 1230 1335 1598 1815 1925 2139 2267 2248 2050 1786 1509 971 820 706 318 128 285 1018 806 337 618 787 734 911 1338 1111 1509 1604 1431 846 381 635 1162 951 495 736 782 978
1624 1511 1343 1635 1555 1355 1065 1409 1836 1797 1891 2193 2237 2276 2155 1323 1010 807 433 274 418 747 688 447 223 50 643 671 692 888 1124 1154 1284 863 727 219 189 1544 1227 1232 1035 662 777
1746 1865 1545 1673 1769 1656 1430 1445 1617 1776 1709 1747 2049 2044 1853 1591 1522 1045 985 795 875 396 290 117 37 0 370 755 955 1123 1249 1094 1168 885 722 232 635 1912 1333 1228 1417 1333 1086
1888 2052 1916 1709 1721 1490 1340 1262 1199 1307 1387 1589 1741 1712 1705 1510 1383 963 982 1052 783 502 288 93 318 587 755 675 726 825 936 919 916 813 540 175 1244 1995 1483 1564 1625 1211 1093
1410 1729 2160 2035 1704 1503 1157 748 801 930 1049 1320 1467 1416 1358 1263 680 457 470 526 489 356 268 427 482 604 669 727 681 590 475 472 494 496 484 190 1626 1979 1530 1354 1425 1298 1075
1622 1588 1738 1890 2169 1795 1373 770 605 873 976 1100 1301 1258 1431 898 365 264 163 51 123 190 147 171 242 228 302 355 370 305 207 202 247 334 338 430 1378 1512 1335 1309 1398 1240 937
1007 1416 2101 2178 2218 1818 1594 832 1142 1077 1106 982 673 805 696 1195 574 420 182 50 96 0 0 0 0 0 0 25 83 137 58 54 25 137 192 237 955 705 850 1430 1214 1233 1136
499 372 687 1340 1809 1804 1242 622 1922 1663 1313 1246 1275 981 891 677 423 262 69 15 0 0 0 0 7 0 0 0 16 13 5 2 0 35 300 293 825 449 455 1110 1314 1114 1115
143 94 72 758 1375 1835 1635 1559 1617 1417 1319 1107 953 767 406 226 149 148 138 158 55 0 0 0 16 53 0 11 25 8 39 0 0 0 0 248 645 447 438 881 1408 1205 1065
7 3 6 483 853 926 798 709 880 582 470 348 313 381 417 270 116 82 35 0 0 3 2 2 0 0 0 0 8 5 40 5 2 0 21 57 195 555 305 464 855 1106 1024
0 0 0 74 417 701 443 332 157 40 0 0 0 0 48 64 80 32 0 0 1 2 0 0 0 0 0 0 0 0 0 6 11 8 2 3 1 0 51 234 569 736 898
0 0 0 0 44 38 254 107 1 0 0 0 0 0 0 1 0 0 0 0 0 0 0 1 16 20 11 1 0 1 1 0 0 5 16 0 0 2 1 0 166 649 960
0 0 0 0 0 0 0 0 0 0 0 0 0 0 0 0 0 0 0 0 0 0 0 0 0 0 0 9 11 35 36 8 29 62 71 37 1 0 0 0 1 32 436
0 0 0 0 0 0 0 0 0 0 0 0 0 0 0 0 0 0 0 0 0 0 0 0 0 0 0 0 0 0 0 0 41 81 102 88 41 1 1 0 0 0 1
0 0 0 0 0 0 0 0 0 0 0 0 0 0 0 0 0 0 0 0 0 0 0 0 0 0 0 0 0 0 0 0 0 88 93 105 107 23 10 38 15 0 0
0 0 0 0 0 0 0 0 0 0 0 0 0 0 0 0 0 0 0 0 0 0 0 0 0 0 0 0 0 0 0 0 0 1 38 137 122 103 53 31 20 11 1
0 0 0 0 0 0 0 0 0 0 0 0 0 0 0 0 0 0 0 0 0 0 0 0 0 0 0 0 0 0 0 0 0 0 0 164 230 194 102 58 24 8 0
0 0 0 0 0 0 0 0 0 0 0 0 0 0 0 0 0 0 0 0 0 0 0 0 2 0 0 0 0 0 0 0 0 0 1 6 64 116 132 137 64 19 40
0 0 0 0 0 0 0 0 0 0 0 0 0 0 0 0 0 0 0 0 0 0 0 0 0 1 0 5 0 0 0 0 0 0 0 0 4 11 21 44 149 96 15
0 0 0 0 0 0 0 0 0 0 0 0 0 0 0 10 12 18 26 40 38 23 0 4 6 34 23 0 13 13 6 1 0 0 0 0 0 0 0 1 2 22 40
0 0 0 0 0 0 0 0 0 0 0 0 0 0 0 0 0 0 0 0 29 32 30 17 12 10 14 25 27 35 24 14 5 0 0 0 0 0 0 0 0 0 21
0 0 0 0 0 0 0 0 0 0 0 0 0 0 0 0 0 0 0 0 0 0 0 0 0 0 0 0 0 6 16 6 4 0 0 0 0 0 0 0 4 0 0

GFSSE_con_mucape_003.txt.gz
CAPE
731 507 744 1071 1538 1698 1798 2000 2057 2347 2437 2161 1934 1838 1744 1865 1441 963 610 406 246 346 388 279 113 892 1369 1262 1361 1816 1807 1707 1741 1875 1672 1260 1255 1046 1125 1487 1236 1028 1696
804 477 732 1001 1332 1673 1879 2023 2136 1977 2578 2513 2304 1971 1759 1505 1026 768 571 564 268 157 118 150 70 885 969 1374 1183 1359 1525 1555 1439 1494 1639 1520 1225 1067 1122 935 561 1042 1699
969 643 756 1054 1192 1364 1736 2103 2312 2284 2479 2568 2533 2274 2024 1305 1031 899 701 419 137 30 4 61 171 596 776 1103 874 1176 1198 1435 1582 1500 1487 956 949 979 971 575 1109 1550 1439
965 953 1011 1243 1326 1476 1649 1920 2083 2154 2179 2282 2379 1989 1703 1431 1288 909 751 531 109 103 11 81 566 304 613 516 724 863 1252 1248 1424 1529 1280 1129 967 1365 899 635 1087 1604 1553
1310 1022 1329 1338 1243 1271 1770 1918 1974 2154 2153 2156 2207 2179 1624 1477 1476 1411 584 557 398 166 199 500 290 242 109 31 477 702 741 981 1186 1398 867 536 525 1191 912 615 945 1397 1423
1402 1185 1360 1437 1473 1478 1800 1902 1913 1885 2089 2064 2219 2351 1701 1507 1207 1064 841 559 394 329 607 876 529 190 87 103 493 713 476 627 1141 1168 740 626 424 1446 1062 1087 800 779 845
1702 1303 1387 1460 1474 1615 1509 1432 1591 1677 1730 2081 2179 2018 2015 1447 929 835 465 301 416 721 441 298 194 213 137 154 210 388 871 884 1145 882 716 741 540 2041 1440 1006 1224 856 789
1862 1569 1497 1539 1367 1285 1273 1159 1077 1236 1429 1635 1865 1830 1692 1671 1507 1293 1371 1017 1078 586 212 45 8 0 157 132 167 464 892 1208 1302 1157 918 626 237 2023 1639 1678 1389 1263 979
2128 2191 1893 1615 1487 1284 950 739 809 868 1206 1522 1549 1320 1135 718 702 673 561 533 460 432 672 492 403 404 610 532 559 509 643 925 974 934 828 382 678 1970 1720 1662 1764 1416 1172
1532 1709 2180 1912 1686 1376 1068 509 760 738 919 1343 1477 1476 611 372 333 279 252 209 338 116 199 231 242 247 229 251 242 178 197 158 242 170 222 284 1233 1995 1356 1490 1480 1485 1254
1158 1715 1722 1912 1822 1539 1258 651 1224 954 920 945 1011 1113 697 508 251 183 86 94 22 135 10 9 38 53 52 1 17 7 6 0 21 50 92 149 651 962 1683 1704 1513 1440 1168
893 572 522 753 1338 1346 1148 874 1374 1148 951 934 791 610 580 533 156 58 9 21 0 0 0 0 0 0 0 0 0 0 0 8 3 0 3 95 573 450 1019 1597 1528 1387 1180
449 311 89 725 959 1159 855 1096 1267 939 987 636 412 388 282 68 0 45 15 18 0 0 1 0 0 0 52 56 2 0 0 31 27 22 6 40 646 760 731 1057 1384 1569 1301
92 0 0 212 373 619 434 811 793 841 481 390 238 260 74 35 0 0 0 0 0 0 0 1 0 0 0 0 0 0 0 9 19 0 7 29 131 634 302 761 1045 1313 1349
0 0 0 13 173 244 194 245 268 194 19 0 0 0 0 9 3 1 0 0 0 0 0 0 2 1 0 0 0 0 0 2 2 0 0 0 5 16 186 315 418 694 1024
0 0 0 0 0 0 0 0 0 0 0 0 0 0 0 0 0 0 0 0 0 0 0 0 0 0 0 1 3 4 0 2 0 0 0 1 2 26 36 43 176 372 739
0 0 0 0 0 0 0 0 0 0 0 0 0 0 0 0 0 0 0 0 0 0 0 0 0 0 0 0 0 0 0 0 0 3 6 4 3 8 2 17 44 41 167
0 0 0 0 0 0 0 0 0 0 0 0 0 0 0 0 0 0 0 0 0 0 0 0 0 0 0 0 0 0 0 0 0 0 11 65 101 42 15 17 5 9 15
0 0 0 0 0 0 0 0 0 0 0 0 0 0 0 0 0 0 0 0 0 0 0 0 0 0 0 0 0 0 0 0 0 0 0 11 69 110 94 66 41 35 24
0 0 0 0 0 0 0 0 0 0 0 0 0 0 0 0 0 0 0 0 0 0 0 0 0 0 0 0 0 0 0 0 0 0 0 0 32 93 140 135 102 76 59
0 0 0 0 0 0 0 0 0 0 0 0 0 0 0 0 0 0 0 0 0 0 0 0 0 0 0 0 0 0 0 0 0 0 0 0 15 146 218 313 263 202 146
0 0 0 0 0 0 0 0 0 0 0 0 0 0 0 0 0 0 0 0 0 0 0 0 0 0 0 0 0 0 0 0 0 0 0 0 0 3 2 10 274 315 253
0 0 0 0 0 0 0 0 0 0 0 0 0 0 0 0 0 0 0 0 0 0 0 0 0 0 0 0 0 0 0 0 0 0 0 0 0 1 6 10 94 53 95
0 0 0 0 0 0 0 0 0 0 0 0 0 0 0 0 0 0 0 3 6 2 0 0 0 0 0 0 0 0 0 0 0 0 0 0 0 0 0 6 15 31 73
0 0 0 0 0 0 0 0 0 0 0 0 0 0 0 0 0 0 0 7 6 4 0 0 0 0 0 0 0 0 0 0 0 0 0 0 0 0 0 0 0 1 9
0 0 0 0 0 0 0 0 0 0 0 0 0 0 0 0 0 0 0 0 1 0 0 0 1 0 0 0 0 0 0 0 0 0 0 0 0 0 0 0 0 1 5

GFSSE_con_mucape_006.txt.gz
CAPE
228 401 861 1337 1545 1605 1699 1556 1979 2272 2111 2123 2039 1980 2084 1548 1250 1119 995 1011 935 1327 874 534 474 672 1042 1022 911 1004 1040 1275 1330 1588 1769 1500 1161 1287 1207 1421 1373 1378 1864
232 346 781 1191 1514 1722 1999 1899 1996 2435 2527 2378 2096 2260 1998 1512 1260 1322 1144 1156 1275 1090 426 523 633 968 1003 868 986 996 863 1071 1243 1424 1620 1618 1419 1099 1235 1036 973 1353 1842
715 406 678 1036 1415 1811 2038 2166 2263 2441 2562 2618 2451 2383 1990 1659 1463 1480 1476 1145 442 480 409 370 465 864 1003 483 268 674 913 704 1012 972 1495 1061 923 1098 1046 643 784 1819 1813
868 699 875 1077 1493 1760 1833 2026 2120 2123 2167 2602 2568 2380 2096 1826 1744 1679 1359 913 510 451 477 972 1046 592 776 313 155 193 841 1158 1095 1062 1057 1028 903 1068 1034 828 1232 1791 1527
1099 915 954 947 1355 1793 1839 1964 1994 2032 2186 2432 2270 2251 2165 1979 1847 1619 1033 730 544 429 531 865 1158 948 401 208 83 79 832 679 983 1034 877 644 533 971 1197 903 1616 1440 1291
947 882 1000 1079 1358 1869 2003 1922 1938 1973 1952 2127 2424 2271 2042 1897 1655 1672 1081 560 517 536 624 976 523 438 431 148 75 739 774 451 499 652 885 690 516 1072 1448 1335 1054 1384 1250
863 1032 1109 1200 1406 1624 1606 1679 1731 1839 1947 2038 2127 2281 1953 1634 1252 864 571 835 637 929 910 945 1089 649 381 301 468 611 520 142 456 732 743 594 623 1422 1598 1312 1191 1251 1205
1068 1222 1213 1389 1389 1369 1351 1270 1275 1481 1709 1884 1849 1896 1927 1818 1670 1573 1400 1060 943 1295 535 328 237 420 159 221 275 329 159 250 534 836 812 795 770 1271 1803 1576 1047 1001 1015
1606 1599 1476 1571 1339 1140 943 841 795 1117 1448 1570 1501 1356 1172 1095 1166 1057 897 932 929 904 759 368 309 185 234 512 331 292 444 597 829 711 494 494 562 965 1854 1838 1461 1250 1165
2032 1975 1744 1666 1543 1397 720 612 664 770 1065 1405 1246 943 669 641 636 512 451 636 597 511 475 375 442 544 585 482 353 317 344 342 337 342 405 495 537 1504 1644 1894 1342 1586 1269
2151 2077 1907 1882 1647 1445 1070 927 970 849 931 1082 1327 806 486 334 143 156 65 219 267 215 83 206 340 357 313 263 200 186 71 13 27 19 40 143 481 780 1438 1409 1556 1458 1360
1311 1098 1481 1737 1649 1426 1121 972 1117 932 868 783 726 907 764 527 145 83 3 38 0 0 0 0 0 12 39 17 2 0 0 0 9 0 0 17 298 600 799 1157 1345 1245 1366
1234 794 270 485 913 1030 713 818 1115 860 858 858 656 506 538 427 115 4 0 0 0 0 0 0 0 0 0 0 6 7 1 0 0 0 1 8 167 519 592 1087 1195 1253 1276
481 19 138 236 720 620 530 1150 1125 773 809 506 260 177 0 0 0 11 0 0 0 0 0 0 0 0 0 0 0 0 0 0 0 7 24 11 18 144 462 584 694 727 970
0 0 0 10 75 202 131 558 593 621 496 140 14 0 0 0 0 0 0 0 0 0 0 0 0 2 3 9 3 2 0 0 0 4 8 2 2 19 78 258 499 619 768
0 0 0 0 1 8 0 0 4 14 8 0 0 0 0 0 0 0 0 0 0 0 0 0 0 0 0 0 0 1 5 2 1 2 1 7 1 1 8 5 119 301 457
0 0 0 0 0 0 0 0 0 0 0 0 0 0 0 0 0 0 0 0 0 0 0 0 0 0 0 0 0 0 0 0 0 0 0 0 0 7 12 6 62 100 121
0 0 0 0 0 0 0 0 0 0 0 0 0 0 0 0 0 0 0 0 0 0 0 0 0 0 0 0 0 0 0 0 0 0 0 0 0 0 11 19 46 136 170
0 0 0 0 0 0 0 0 0 0 0 0 0 0 0 0 0 0 0 0 0 0 0 0 0 0 0 0 0 0 0 0 0 0 0 0 0 0 35 37 43 49 79
0 0 0 0 0 0 0 0 0 0 0 0 0 0 0 0 0 0 0 0 0 0 0 0 0 0 0 0 0 0 0 0 0 0 0 0 0 0 14 63 38 36 43
0 0 0 0 0 0 0 0 0 0 0 0 0 0 0 0 0 0 0 0 0 0 0 0 0 0 0 0 0 0 0 0 0 0 0 0 0 0 32 37 111 84 118
0 0 0 0 0 0 0 0 0 0 0 0 0 0 0 0 0 0 0 0 0 0 0 0 0 0 0 0 0 0 0 0 0 0 0 0 0 0 0 0 0 98 99
0 0 0 0 0 0 0 0 0 0 0 0 0 0 0 0 0 0 0 0 0 0 0 0 0 0 0 0 0 0 0 0 0 0 0 0 0 0 0 1 1 12 79
0 0 0 0 0 0 0 0 0 0 0 0 0 0 0 0 0 0 0 0 0 0 0 0 0 0 0 0 0 0 0 0 0 0 0 0 0 0 0 0 0 7 8
0 0 0 0 0 0 0 0 0 0 0 0 0 0 0 0 0 0 0 0 0 0 0 0 0 0 0 0 0 0 0 0 0 0 0 0 0 0 0 0 0 0 4
0 0 0 0 0 0 0 0 0 0 0 0 0 0 11 18 16 0 0 0 0 0 1 0 0 0 0 0 0 0 0 0 0 0 0 0 0 0 0 0 0 0 0

GFSSE_con_mucape_009.txt.gz
CAPE
165 484 1055 1412 1541 1539 1473 1825 2030 1960 2015 2201 2310 1971 1819 1650 1573 1746 1669 1604 1579 1680 1195 961 1095 1123 1299 904 1026 1019 995 1203 1324 1694 1665 1186 1226 1116 1184 1571 1334 1077 1377
199 514 939 1308 1651 1854 1778 1884 2265 2273 2294 2389 2410 2050 1873 1736 1659 1516 1555 1441 1739 996 707 794 1087 1280 1332 1221 1111 1194 1053 997 1035 1368 1561 1603 1286 1354 1160 1192 943 1333 1354
207 475 734 1208 1686 1913 1983 2107 2305 2627 2767 2619 2474 2263 2085 1859 1836 1580 1514 1076 527 799 649 693 1167 1476 855 999 918 976 913 1097 1320 1390 1741 1094 979 1246 1243 1257 893 1566 1393
367 556 763 1319 1582 1673 1724 1913 2155 2145 2475 2724 2859 2507 2325 2140 2003 1967 1509 911 721 600 1044 1167 1063 1514 937 839 819 944 957 851 1124 1353 1313 994 902 1163 1126 1044 1278 1490 1524
828 493 731 1229 1477 1615 1725 1822 1930 2035 2376 2355 2654 2645 2422 2295 2114 1834 1374 1327 1156 961 988 1080 1347 1195 858 395 508 373 728 872 906 988 824 885 890 1015 1109 1219 1455 1656 1618
573 579 683 1131 1496 1641 1714 1714 1743 1828 2056 2345 2315 2236 2348 2267 2149 1883 1408 845 665 813 910 1153 1019 920 789 565 537 206 799 567 395 313 487 712 734 629 1153 1319 1372 1462 1461
651 741 724 998 1356 1709 1611 1554 1716 1837 1905 2024 2295 2191 2110 1965 1623 1257 1217 1232 1036 936 1181 1304 1614 1508 905 572 428 564 578 399 145 206 429 584 508 549 1339 1465 1375 1280 1389
709 833 893 1125 1171 1293 1498 1476 1483 1658 1750 1682 1782 1976 2037 1864 1758 1683 1301 890 945 1076 1280 809 759 429 751 293 311 337 200 116 117 240 428 427 591 977 977 1590 1315 1426 1472
1212 1087 1213 1169 1076 1145 978 936 1071 1368 1517 1554 1378 1428 1346 1315 1374 1305 1257 1364 1400 1332 1147 545 704 387 322 394 398 346 351 469 469 357 422 424 385 609 927 1597 1439 1234 1310
1472 1423 1399 1311 1217 914 487 634 624 1000 1286 1284 1084 968 722 753 752 715 576 838 639 614 475 407 401 441 490 466 341 216 133 108 139 163 148 227 337 632 865 1262 1581 1168 1164
1738 1690 1464 1435 1344 1133 691 493 611 746 961 1185 1071 691 463 346 200 171 198 324 364 164 142 224 305 348 316 289 239 208 161 115 38 2 0 0 37 453 720 908 1224 1126 1070
1938 1756 1590 1558 1466 1225 817 681 777 731 643 626 975 606 616 441 191 106 26 71 10 0 0 0 0 22 71 40 10 0 0 0 0 2 7 1 23 268 548 1040 950 1044 1001
1797 1891 1637 1601 1429 1116 937 729 919 764 718 668 529 576 523 601 152 31 0 0 0 0 0 0 0 0 0 0 0 0 1 1 0 0 3 0 0 1 191 540 929 876 854
1082 979 155 247 569 579 534 520 938 845 680 675 554 335 265 103 0 0 0 0 0 0 0 0 0 0 0 0 0 0 0 0 0 0 0 0 0 0 19 178 494 665 769
662 80 14 65 330 107 191 731 1046 719 697 587 179 45 0 0 0 0 0 0 0 0 0 0 0 0 0 0 0 0 0 0 0 0 0 0 1 6 19 40 176 364 473
140 0 0 0 10 26 3 59 167 335 362 320 24 0 0 0 0 0 0 0 0 0 0 0 0 0 0 0 0 0 0 0 0 0 0 0 0 13 11 3 48 37 67
0 0 0 0 0 0 0 0 0 0 0 0 0 0 0 0 0 0 0 0 0 0 0 0 0 0 0 0 0 0 0 0 0 0 0 0 0 0 4 10 3 100 81
0 0 0 0 0 0 0 0 0 0 0 0 0 0 0 0 0 0 0 0 0 0 0 0 0 0 0 0 0 0 0 0 0 0 0 0 0 0 0 0 13 62 87
0 0 0 0 0 0 0 0 0 0 0 0 0 0 0 0 0 0 0 0 0 0 0 0 0 0 0 0 0 0 0 0 0 0 0 0 0 0 0 11 40 58 78
0 0 0 0 0 0 0 0 0 0 0 0 0 0 0 0 0 0 0 0 0 0 0 0 0 0 0 0 0 0 0 0 0 0 0 0 0 0 0 0 0 4 33
0 0 0 0 0 0 0 0 0 0 0 0 0 0 0 0 0 0 0 0 0 0 0 0 0 0 0 0 0 0 0 0 0 0 0 0 0 0 0 0 0 0 0
0 0 0 0 0 0 0 0 0 0 0 0 0 0 0 0 0 0 0 0 0 0 0 0 0 0 0 0 0 0 0 0 0 0 0 0 0 0 0 0 0 0 0
0 0 0 0 0 0 0 0 0 0 0 0 0 0 0 0 0 0 0 0 0 0 0 0 0 0 0 0 0 0 0 0 0 0 0 0 0 0 0 0 0 0 0
0 0 0 0 0 0 0 0 0 0 0 0 0 0 0 0 0 0 0 0 6 1 0 2 1 0 0 0 0 0 0 0 0 0 0 0 0 0 0 0 0 0 0
0 0 0 0 0 0 0 0 0 0 0 0 0 0 0 0 0 0 0 15 11 2 1 2 0 0 0 0 0 0 0 0 0 0 0 0 0 0 0 0 0 0 0
0 0 0 0 0 0 0 0 0 0 0 0 0 0 0 0 0 0 0 8 21 3 0 0 0 1 0 0 0 0 0 0 0 0 0 0 0 0 0 0 0 0 0

GFSSE_con_mucape_012.txt.gz
CAPE
170 578 984 1279 1416 1356 1569 1679 1625 1710 2044 2186 2216 2005 1879 1992 1809 1913 1971 1755 1783 1663 1159 1226 1261 1487 1182 982 1186 1452 1439 1497 1536 1549 1642 1298 1405 1258 1402 1657 1376 1104 1276
210 603 986 1334 1620 1610 1766 1869 1868 1953 2363 2308 2219 1966 1793 1937 1879 1806 1716 1093 1595 1098 1035 1358 1368 1523 1626 1475 1362 1246 1238 1462 1569 1744 1960 1776 1521 1457 1101 1568 1259 1128 1115
363 579 909 1317 1621 1754 1943 2179 2443 2508 2597 2380 2349 2169 2040 1941 1721 1793 1366 1033 835 904 992 839 1502 1862 1451 1432 1360 1295 1165 1166 1232 1351 1628 1099 1117 1451 1428 1467 965 1654 1278
325 512 894 1229 1390 1541 1678 1920 2131 2343 2580 2840 2650 2490 2253 2032 1734 1783 1085 853 801 909 1275 1374 1359 1850 1427 1193 1006 1088 1100 1115 1034 1337 1302 1042 961 1265 1315 1503 1323 1439 1411
418 560 1065 1155 1257 1472 1595 1694 1897 2114 2313 2570 2784 2667 2544 2364 2180 1884 1370 1146 1097 1080 1196 1226 1451 1490 1441 816 714 439 849 886 614 625 729 820 928 1106 1315 1168 1381 1409 1551
330 441 972 1098 1280 1470 1599 1555 1575 1766 2118 2169 2208 2414 2433 2326 2181 1965 1524 1040 759 971 1113 1300 1441 1292 927 977 764 681 799 514 389 292 248 481 872 870 1026 1176 1161 1250 1492
302 355 780 1064 1335 1525 1463 1461 1648 1747 1794 2011 2142 2138 2157 1969 1658 1301 1133 1330 1236 1109 1357 1459 1357 1215 1033 861 618 531 560 387 234 131 237 252 298 836 1040 1613 1450 1221 1448
394 484 552 929 1071 1308 1396 1289 1321 1446 1535 1484 1678 1992 2000 1814 1768 1631 1335 1009 1026 1228 1494 971 728 707 438 426 681 259 234 229 243 312 254 340 342 927 1146 1326 1302 1038 1193
528 574 614 664 771 881 841 874 981 1233 1344 1275 1166 1192 1143 1215 1235 1120 1129 1154 1007 1020 974 807 704 834 702 576 467 384 348 338 307 230 131 122 245 607 857 1057 1357 1177 1244
895 878 1015 903 805 501 420 533 596 892 1125 1110 882 688 527 520 533 480 360 638 513 320 285 308 377 408 407 387 316 249 184 92 34 9 0 3 17 194 638 954 1314 1286 1252
1182 1198 1157 1047 969 679 342 257 432 615 837 1012 795 507 299 209 80 61 150 285 228 124 73 61 95 203 286 288 211 151 157 109 80 31 0 0 0 127 502 701 1124 1267 1220
1371 1416 1273 1190 1121 831 506 367 324 424 437 504 755 414 265 299 108 7 0 5 1 0 0 0 0 0 0 8 12 1 0 0 0 0 0 0 0 1 76 234 742 776 781
1569 1609 1373 1242 1214 973 771 344 384 488 456 432 355 400 303 383 212 14 0 0 0 0 0 0 0 0 0 0 0 0 0 0 0 0 0 0 0 0 3 15 156 435 565
1646 1711 1503 1256 1208 984 731 586 365 579 483 432 384 326 237 176 57 0 0 0 0 0 0 0 0 0 0 0 0 0 0 0 0 0 0 0 0 0 0 17 52 109 336
1293 1491 803 398 289 228 273 283 285 599 667 467 438 239 62 16 0 0 0 0 0 0 0 0 0 0 0 0 0 0 0 0 0 0 0 0 0 0 0 0 2 118 72
699 573 28 0 59 4 3 106 327 594 391 344 420 190 0 0 0 0 0 0 0 0 0 0 0 0 0 0 0 0 0 0 0 0 0 0 0 0 0 0 8 21 64
322 246 0 0 0 0 0 0 0 0 0 9 11 0 0 0 0 0 0 0 0 0 0 0 0 0 0 0 0 0 0 0 0 0 0 0 0 0 0 0 0 2 14
95 57 0 0 0 0 0 0 0 0 0 0 0 0 0 0 0 0 0 0 0 0 0 0 0 0 0 0 0 0 0 0 0 0 0 0 0 0 0 0 0 0 0
35 0 0 0 0 0 0 0 0 0 0 0 0 0 0 0 0 0 0 0 0 0 0 0 0 0 0 0 0 0 0 0 0 0 0 0 0 0 0 0 0 0 0
0 0 0 0 0 0 0 0 0 0 0 0 0 0 0 0 0 0 0 0 0 0 0 0 0 0 0 0 0 0 0 0 0 0 0 0 0 0 0 0 0 0 0
0 0 0 0 0 0 0 0 0 0 0 0 0 0 0 0 0 0 0 0 0 0 0 0 0 0 0 0 0 0 0 0 0 0 0 0 0 0 0 0 0 0 0
0 0 0 0 0 0 0 0 0 0 0 0 0 0 0 0 0 0 0 0 0 0 0 0 0 0 0 0 0 0 0 0 0 0 0 0 0 0 0 0 0 0 0
0 0 0 0 0 0 0 0 0 0 0 0 0 0 0 0 0 0 0 0 0 0 0 0 0 0 0 0 0 0 0 0 0 0 0 0 0 0 0 0 0 0 0
0 0 0 0 0 0 0 0 0 0 0 2 1 0 0 0 0 0 0 0 0 0 0 5 0 4 0 0 0 0 0 0 0 0 0 0 0 0 0 0 0 0 0
0 0 0 0 0 0 0 0 1 4 11 9 0 0 0 0 0 0 0 0 0 0 0 4 4 14 3 3 3 0 0 0 0 0 0 0 0 0 0 0 0 0 0
0 0 0 0 0 0 1 7 13 9 0 0 0 0 0 0 0 0 0 0 0 0 0 0 1 11 6 2 1 0 0 0 0 0 0 0 0 0 0 0 0 0 0

GFSSE_con_mucape_015.txt.gz
CAPE
256 652 868 1177 1259 1350 1434 1477 1508 1536 1584 1683 1948 1933 1977 2046 2028 1837 1701 1721 1731 1453 1330 1354 1481 1565 1301 1185 1190 1380 1679 1486 1212 1365 1723 1461 1376 1549 1825 1996 1638 1258 1665
348 725 869 1225 1358 1469 1581 1704 1600 1703 1954 1807 2000 1895 1808 1836 1747 1685 1330 1521 1296 1118 969 1049 1555 1670 1743 1523 1178 1251 1358 1489 1669 1821 1980 1523 1638 1388 1615 1735 1371 1277 1609
473 766 1002 1180 1328 1552 1872 2190 2241 2106 2296 2135 1977 1952 1944 1884 2032 1590 1072 977 964 1143 1321 1101 1607 1817 1580 1445 1500 1612 1523 1415 1313 1480 1870 764 866 1648 1534 1657 1269 1566 1263
385 729 1116 1121 1263 1379 1569 1812 2176 2527 2557 2565 2318 2216 2035 1875 1894 1702 1188 1041 976 1022 1312 1518 1540 1909 1472 968 880 577 1102 1193 1144 1291 1238 1199 924 1360 1544 1663 1398 1566 1424
366 696 1090 1103 1137 1275 1409 1639 1917 2038 2368 2648 2638 2533 2408 2244 2125 1762 1323 1134 1081 1048 1041 1310 1438 1583 1312 1040 747 650 742 722 502 673 1125 1184 1120 1184 1480 1430 1348 1398 1382
366 740 927 949 1017 1192 1372 1460 1458 1662 1941 2024 2175 2280 2329 2280 2149 1803 1573 1114 797 991 1213 1435 1581 1533 1228 989 708 577 742 786 574 494 540 639 1055 1115 1236 1423 1259 1101 1191
308 536 836 878 1056 1281 1277 1231 1434 1495 1586 1777 1820 1858 1910 1665 1441 1203 842 943 1189 1101 1433 1223 849 781 598 654 443 437 374 353 413 412 446 833 755 754 1222 1324 1420 1490 1226
184 361 644 882 1046 1139 1132 1093 1153 1296 1297 1338 1588 1707 1693 1605 1549 1464 1434 1421 1342 1275 1232 963 1034 869 634 776 674 541 526 538 772 747 634 711 687 837 1117 1110 1138 913 934
313 375 529 638 675 698 630 656 838 1001 1078 964 994 918 952 979 899 904 992 912 856 616 597 534 433 482 515 438 377 316 251 203 321 192 102 205 140 359 739 867 1206 1205 984
592 545 597 769 680 644 621 338 483 744 887 780 694 443 330 293 285 160 170 392 360 300 252 177 153 234 249 252 226 157 137 197 164 89 34 28 50 296 635 733 844 988 1331
721 779 743 776 634 331 169 256 335 496 708 763 580 280 247 363 191 136 69 138 96 52 16 1 0 0 18 65 76 65 65 79 48 19 11 11 0 28 194 295 452 724 1160
1049 1040 873 889 813 518 198 249 423 457 725 861 948 645 375 251 144 8 1 0 0 0 0 0 0 0 0 0 0 0 0 0 0 0 0 0 0 2 35 90 160 439 594
1317 1206 1068 1007 972 717 457 246 325 430 557 565 660 649 476 357 219 91 25 1 0 0 0 0 0 0 0 0 0 0 0 0 0 0 0 0 0 0 0 3 85 120 435
1482 1574 1455 1139 1008 966 812 703 376 522 564 633 530 373 431 329 170 43 0 0 0 0 0 0 0 0 0 0 0 0 0 0 0 0 0 0 0 0 0 0 0 48 97
1421 1577 1611 1353 925 566 194 288 442 559 732 714 575 419 268 216 126 0 0 0 0 0 0 0 0 0 0 0 0 0 0 0 0 0 0 0 0 0 0 0 0 0 0
1141 1244 1413 904 57 14 0 81 276 378 516 459 400 363 266 99 53 0 0 0 0 0 0 0 0 0 0 0 0 0 0 0 0 0 0 0 0 0 0 0 0 1 1
585 888 1025 92 0 0 0 0 0 1 2 3 47 93 61 23 11 0 0 9 20 0 0 0 0 0 0 0 0 0 0 0 0 0 0 0 0 0 0 0 0 0 0
86 112 481 0 0 0 0 0 0 0 0 0 0 0 0 0 2 19 24 45 48 39 20 0 0 0 0 0 0 0 0 0 0 0 0 0 0 0 0 0 0 0 0
0 25 164 0 0 0 0 0 0 0 0 0 0 0 0 0 0 0 3 4 6 0 0 0 0 0 0 0 0 0 0 0 0 0 0 0 0 0 0 0 0 0 0
0 43 1 0 0 0 0 0 0 0 0 0 0 0 0 0 0 0 0 0 0 0 0 0 0 0 0 0 0 0 0 0 0 0 0 0 0 0 0 0 0 0 0
0 0 0 0 0 0 0 0 0 0 0 0 0 0 0 0 0 0 0 0 0 0 0 0 0 0 0 0 0 0 0 0 0 0 0 0 0 0 0 0 0 0 0
0 0 0 0 0 0 0 0 0 0 0 0 0 0 0 0 0 0 0 0 0 0 0 0 0 0 0 0 0 0 0 0 0 0 0 0 0 0 0 0 0 0 0
0 0 0 0 0 0 0 0 0 0 2 4 2 1 0 0 0 0 0 0 0 0 0 0 0 0 0 0 0 0 0 0 0 0 0 0 0 0 0 0 0 0 0
0 0 0 0 0 0 0 0 0 1 1 0 0 0 0 0 0 0 0 0 0 0 0 0 0 0 0 0 0 0 0 0 0 0 0 0 0 0 0 0 0 0 0
0 0 0 0 0 0 0 0 2 1 0 0 3 0 0 0 0 0 0 0 0 0 0 0 0 0 0 0 1 12 6 2 2 0 0 0 0 0 0 0 0 0 0
0 0 0 0 0 0 0 2 3 11 15 1 0 0 0 0 0 0 0 0 0 0 0 0 0 0 0 0 0 2 11 36 12 9 0 0 0 0 0 0 0 0 0

GFSSE_con_mucape_018.txt.gz
CAPE
290 741 823 946 1110 1186 1308 1253 1255 1267 1484 1899 1926 1934 1996 1968 2041 2065 1947 2009 1913 1480 1409 1406 1533 1631 1453 1281 1080 1417 1639 1586 1589 1544 1743 1596 1539 1770 1951 1790 1523 1195 1593
398 803 852 1058 1211 1413 1560 1501 1415 1491 1582 1877 2029 1963 1907 1978 1809 1647 1617 1300 1154 1187 1193 1026 1469 1687 1808 1427 1534 1582 1512 1612 1677 1750 1837 1650 1521 1574 1772 1658 1529 1536 1637
313 785 1030 1124 1341 1620 2002 1899 1853 1849 1860 1784 1796 1879 1861 2016 1682 1400 1076 999 1009 1319 1314 1490 1479 1774 1639 1531 983 1232 1423 1381 1497 1587 1561 1094 795 1732 1666 1632 1603 1634 1458
337 679 983 992 1218 1389 1619 1859 2107 2272 2148 2150 2098 1970 1807 1769 1728 1467 1216 1010 1051 1071 1324 1558 1721 1808 1513 1115 968 756 967 992 967 1059 1393 1114 865 1466 1693 1748 1597 1719 1551
357 641 956 924 1041 1187 1351 1483 1615 1832 2069 2227 2283 2111 1929 1900 1812 1574 1436 1222 1002 966 1073 1452 1727 1582 1308 1029 744 777 864 950 662 652 1129 1215 1303 1297 1530 1562 1520 1593 1632
144 323 651 773 852 1029 1116 1118 1389 1597 1728 1814 1950 2102 2195 2037 1804 1613 1398 1297 1097 1159 1324 1492 1237 976 876 1054 791 486 604 736 553 940 813 902 951 1258 1224 1349 1365 1326 1252
125 295 374 673 800 991 937 1108 1197 1255 1402 1547 1615 1724 1637 1497 1376 1167 837 876 1056 1158 1436 946 1031 631 532 567 627 600 593 490 715 1141 1110 1048 1194 892 1005 1084 1570 1379 1733
135 353 291 524 819 879 908 1014 1082 1131 1142 1316 1406 1539 1474 1399 1320 1294 1369 1330 1207 1086 1053 898 932 853 902 706 540 430 475 494 960 1182 1084 1107 721 700 1013 1061 1397 1229 1277
125 272 513 589 528 479 520 589 748 928 884 893 835 859 896 812 803 806 865 770 585 515 480 412 316 250 287 275 247 229 242 237 987 892 631 707 297 649 880 772 880 1173 1367
425 496 810 917 847 793 702 186 440 658 729 677 541 367 303 346 246 99 221 278 215 165 118 77 26 28 60 75 81 79 56 69 594 738 694 374 35 307 636 705 820 829 1014
797 1096 1152 1129 1140 877 524 485 144 368 639 544 510 181 385 626 580 360 5 17 7 0 0 0 0 0 0 0 0 0 0 103 184 183 191 22 12 77 159 250 318 664 716
1180 1401 1524 1672 1562 1158 233 708 759 674 757 980 1100 1070 660 890 783 184 24 0 0 0 0 0 0 0 0 0 0 0 0 0 12 30 36 0 0 11 83 127 164 244 527
1234 1429 1647 1921 1915 1535 715 522 355 333 589 802 1249 1293 1078 1047 845 667 480 137 60 0 0 0 0 0 0 0 0 0 0 0 0 0 0 0 0 0 0 0 7 157 212
973 1553 1887 1984 2017 1885 1001 555 397 398 448 649 755 1364 1085 761 607 575 223 66 13 0 0 0 0 0 0 0 0 0 0 0 0 0 0 0 0 0 0 0 0 0 73
1224 1605 2104 2318 2248 1506 1146 572 726 763 493 803 661 541 1058 577 371 209 36 0 0 0 0 1 0 0 0 0 0 0 0 0 0 0 0 0 0 0 0 0 0 0 0
1307 1721 2262 2480 2201 903 425 611 446 494 380 446 208 176 696 728 186 39 0 0 0 0 0 0 0 0 0 0 0 0 0 0 0 0 0 0 0 0 0 0 0 0 0
1050 1383 2035 2221 1201 506 315 188 55 26 82 14 11 72 162 276 86 59 11 7 0 0 0 33 0 0 0 0 0 0 0 0 0 0 0 0 0 0 0 0 0 0 0
497 775 1310 1115 524 394 155 51 6 3 9 3 8 14 16 28 46 51 21 6 17 27 1 0 0 0 0 0 0 0 0 0 0 0 0 0 0 0 0 0 0 0 0
58 180 713 890 315 169 60 28 34 35 44 8 14 5 0 9 18 38 12 12 48 36 6 2 0 0 0 0 0 0 0 0 0 0 0 0 0 0 0 0 0 0 0
2 102 511 416 110 43 5 0 0 0 0 0 0 0 0 0 0 0 0 0 30 51 40 17 26 20 4 0 0 0 0 0 0 0 0 0 0 0 0 0 0 0 0
0 28 45 23 0 0 0 0 0 0 0 0 0 0 0 0 0 0 0 0 2 5 20 40 32 27 40 26 0 0 0 0 0 0 0 0 0 0 0 0 0 0 0
0 0 0 0 0 0 0 0 0 0 0 0 0 0 0 0 0 1 0 0 0 0 0 12 35 48 44 24 20 2 2 2 10 0 0 0 0 0 0 0 0 0 0
0 0 0 0 0 0 0 0 0 0 0 0 0 0 0 0 0 0 0 0 0 0 0 0 0 16 34 43 100 22 17 40 83 69 9 0 0 0 0 0 0 0 0
0 0 0 0 0 0 0 0 0 0 5 3 0 0 0 0 0 0 0 0 0 0 0 0 1 10 24 25 57 82 56 14 38 70 23 11 0 0 0 0 0 0 0
0 0 0 0 0 0 0 0 1 0 0 0 0 0 0 0 0 0 0 0 0 0 0 0 1 8 12 18 18 15 1 4 30 7 27 16 12 1 0 0 0 0 0
0 0 0 0 0 0 2 1 0 0 5 0 0 0 0 0 0 0 0 0 0 0 5 10 0 0 0 0 0 0 2 5 6 3 7 22 37 7 0 1 0 0 0

GFSSE_con_mucape_021.txt.gz
CAPE
566 633 848 936 1093 1233 1190 1065 1072 1297 1760 1857 1637 1756 1731 2004 2039 2014 1967 1912 1789 1303 1121 1233 1405 1502 1668 1398 1465 1520 1640 1735 1696 1570 1579 1429 1431 1706 1933 1717 1686 1177 1582
611 789 897 1097 1313 1403 1369 1365 1338 1609 1621 1583 1783 1754 1774 1832 1836 1637 1249 1084 1315 1302 1345 1234 1503 1751 1649 1712 1593 1622 1588 1515 1575 1642 1569 1281 1459 1695 1693 1569 1899 1440 1456
669 755 884 1078 1354 1721 1667 1702 1710 1767 1734 1656 1707 1744 1827 1675 1496 1280 1143 963 1148 1265 1415 1615 1690 1939 1560 1349 1043 1264 1372 1318 1381 1492 1759 483 1193 1882 1777 1613 1696 1712 1620
515 774 964 951 1174 1342 1586 1755 2081 1985 1922 1870 1779 1719 1750 1785 1511 1296 1168 1092 1153 1130 1175 1455 1624 1683 1348 1044 914 847 883 979 956 1183 925 1522 972 1503 1879 1790 1618 1720 1580
400 674 816 854 954 1190 1366 1445 1625 1874 1971 2041 1995 1943 1744 1695 1594 1592 1444 1180 977 1126 1391 1489 1558 1558 1318 1077 769 670 827 976 1014 826 1054 1495 1594 1254 1621 1544 1635 1654 1662
250 425 521 623 811 1004 863 1060 1259 1416 1566 1753 1988 2130 2062 1921 1739 1486 1279 1110 1202 1206 1482 1123 962 695 655 867 593 587 483 634 845 908 1196 1001 999 1586 1318 1362 1485 1199 1247
34 81 160 574 842 866 794 888 946 1051 1227 1391 1602 1611 1505 1443 1329 1147 888 951 1115 1371 1163 1014 964 571 554 711 727 726 779 782 639 904 1148 960 992 1230 1279 1266 1665 1478 1382
49 81 60 412 742 823 780 836 879 881 929 1116 1283 1306 1271 1186 1145 1171 1156 1083 920 901 754 766 840 775 616 405 307 293 304 326 850 1062 1189 1072 787 848 1005 1189 1271 1284 1319
33 122 192 312 368 522 522 654 800 814 662 630 613 686 673 662 654 716 657 556 487 423 379 298 214 159 84 72 69 79 85 147 485 508 534 647 591 735 1121 1073 1092 1078 1193
51 328 427 461 420 611 587 335 551 680 596 514 372 274 294 390 267 145 424 249 177 118 63 23 1 0 0 0 0 0 0 2 297 266 725 448 262 311 518 750 836 927 782
352 648 628 518 408 250 104 225 167 557 640 529 469 230 506 700 506 411 58 19 5 0 0 0 0 0 0 0 0 0 0 0 15 33 143 123 14 98 304 302 330 484 775
561 586 923 1161 772 298 0 215 260 142 543 572 677 708 518 637 655 140 76 19 0 0 0 0 0 0 0 0 1 0 0 0 0 0 46 0 0 0 42 138 207 265 373
512 536 812 1727 1289 726 318 38 107 109 179 440 700 806 541 619 643 430 318 308 350 4 21 0 0 0 0 0 0 0 0 0 0 0 1 0 0 0 0 0 0 93 260
326 355 811 1948 1788 1031 350 127 88 86 270 270 615 482 423 340 340 231 15 0 2 4 1 3 2 4 6 2 0 0 0 0 0 0 0 0 0 0 0 0 0 0 42
274 403 744 1756 2441 1164 735 196 187 246 250 467 291 188 211 174 129 8 0 0 0 0 4 3 1 1 1 0 0 0 0 0 0 0 0 0 0 0 0 0 0 0 0
357 511 793 1529 2504 1372 206 286 171 249 193 199 31 25 56 131 156 71 41 26 5 0 0 0 0 0 0 0 0 0 0 0 0 0 0 0 0 0 0 0 0 0 0
347 504 928 1605 2202 1341 297 174 23 11 4 0 0 17 30 56 51 71 36 29 21 44 175 40 6 7 9 6 0 0 0 0 0 0 0 0 0 0 0 0 0 0 0
338 396 709 1447 1912 1184 225 76 14 6 0 0 9 19 12 26 31 51 20 41 70 115 42 20 6 4 8 11 21 1 0 0 0 0 0 0 0 0 0 0 0 0 0
101 226 582 1390 1427 802 224 76 50 43 34 24 30 23 0 15 5 28 33 45 154 81 154 137 94 129 53 25 10 30 14 0 0 0 0 0 0 0 0 0 0 0 0
57 176 494 1120 1036 387 125 53 8 1 0 0 1 0 0 4 0 0 1 26 42 23 87 128 217 158 183 165 28 35 110 23 0 6 0 0 0 0 0 0 0 0 0
106 347 539 519 171 55 14 0 0 0 0 0 0 0 0 0 0 0 0 0 5 0 22 95 106 135 158 278 255 226 187 125 82 13 9 5 4 2 7 0 7 0 0
0 0 0 0 0 0 0 0 0 0 0 2 7 0 0 0 0 0 0 0 0 0 3 31 95 62 119 227 303 298 205 129 195 155 68 16 24 4 12 8 15 1 0
0 0 0 0 0 0 0 0 0 0 0 0 0 0 0 0 0 0 0 0 0 0 0 14 29 55 58 87 279 290 212 163 215 220 297 149 163 146 39 26 13 0 0
0 0 0 0 0 0 0 0 0 0 0 1 0 0 1 0 0 0 0 0 0 0 7 7 7 14 51 24 63 58 161 186 68 95 194 153 106 64 105 113 63 1 0
0 0 0 0 0 0 0 0 0 0 1 0 2 0 0 0 0 0 0 0 0 0 5 13 20 13 7 4 2 0 0 10 29 25 9 65 62 52 30 14 86 14 15
0 0 0 0 0 0 0 0 0 0 0 0 0 0 0 0 0 0 0 0 1 13 22 6 0 0 0 0 0 0 0 0 1 7 9 12 21 24 48 19 16 0 31

GFSSE_con_mucape_024.txt.gz
CAPE
481 577 998 1151 1331 1308 1227 1225 1320 1511 1656 1820 1800 1862 2036 2002 1856 1725 1662 1636 1527 1419 1110 1238 1873 1697 1563 1629 1516 1559 1865 1845 1785 1827 1589 1258 1313 1469 1578 1799 1540 963 1796
610 648 937 1318 1467 1414 1389 1474 1510 1536 1666 1746 1827 1939 1828 1790 1447 1266 1441 1671 1699 1413 1500 1575 1764 1794 1680 1277 1265 1385 1442 1582 1571 1688 1787 1539 1388 1497 1433 1935 1950 1711 1946
619 613 817 1151 1490 1625 1757 1843 1832 1786 1741 1785 1914 1933 1733 1458 1297 1247 1274 1248 1260 1273 1397 1650 1755 1747 1383 1176 975 842 957 1208 1267 1312 1524 879 1107 982 1301 1751 2000 2100 1926
801 652 649 912 1188 1427 1573 1834 1979 1893 1894 1856 1804 1909 1741 1476 1320 1190 1184 1160 1159 1229 1348 1609 1671 1491 1259 954 771 805 825 924 1003 1080 503 578 1197 995 667 1421 1694 1781 1720
601 561 518 711 942 1158 1305 1452 1628 1706 1884 2001 1983 1853 1804 1589 1498 1528 1242 1096 1130 1267 1375 1354 1303 1281 1032 1013 784 563 513 781 1040 721 376 863 992 750 990 1572 1584 1593 1504
319 337 316 535 757 907 1070 1216 1288 1361 1532 1737 1878 1909 1790 1661 1390 1126 985 1036 1040 1182 1175 961 667 448 460 524 539 543 607 701 674 243 529 966 607 857 1162 1352 1539 1411 1228
45 66 161 541 811 914 888 801 1053 1137 1313 1439 1422 1407 1317 1249 1176 1042 977 1114 1162 1064 915 843 717 673 748 647 540 469 495 568 437 500 779 994 978 67 723 1210 1245 1340 1227
0 0 32 607 795 823 865 873 839 907 982 1145 1211 1167 999 950 969 903 846 712 635 565 530 604 577 437 277 137 61 59 88 162 134 538 769 796 1170 1019 1125 1199 1247 1052 1128
0 0 91 125 394 577 566 598 613 636 627 646 640 633 653 697 747 676 540 415 322 261 215 157 109 55 25 3 0 0 0 6 0 107 424 400 1051 943 915 1081 1175 1281 1042
39 104 214 322 364 313 244 386 507 480 445 407 321 267 319 321 360 515 383 171 99 51 11 0 0 0 0 0 0 0 0 0 23 93 273 233 650 531 512 560 632 761 1180
116 581 528 290 436 687 328 290 409 558 479 417 383 201 424 444 366 417 58 80 18 0 0 0 0 0 0 0 0 0 0 0 0 0 45 111 94 149 249 312 339 367 595
445 490 815 739 556 167 3 198 686 669 632 729 766 758 720 579 518 169 141 54 40 3 2 0 0 0 0 0 0 0 0 0 0 0 0 0 0 0 0 57 149 223 294
404 337 963 1566 1021 853 602 59 472 486 665 1132 1351 608 934 478 959 576 376 207 79 24 13 0 0 0 9 0 0 0 0 0 0 0 0 0 0 0 0 0 0 4 184
369 557 1411 1733 1603 852 696 410 307 389 543 652 538 677 522 430 527 163 71 0 0 0 0 4 0 22 0 8 0 0 0 0 0 0 0 0 0 0 0 0 0 0 0
200 430 853 1889 2337 1551 802 856 636 520 813 486 518 476 394 273 314 254 65 24 1 0 0 4 0 0 0 0 0 0 0 0 0 0 0 0 0 0 0 0 0 0 0
296 657 1121 1561 2492 1817 790 550 539 710 753 631 252 92 173 213 278 167 74 60 18 0 0 0 0 0 0 0 0 0 0 0 0 0 0 0 0 0 0 0 0 0 0
214 709 1211 656 2192 1913 730 406 221 223 36 64 107 36 52 58 68 76 69 60 47 83 64 28 18 1 0 0 1 4 0 0 0 0 0 0 0 0 0 0 0 0 0
311 260 174 958 2194 1968 1073 410 126 87 62 42 27 63 28 15 85 84 95 90 106 112 70 80 55 30 8 3 0 0 1 0 0 0 0 0 0 0 0 0 0 0 0
433 392 518 1242 1797 1645 910 268 168 93 53 59 115 47 54 3 67 30 29 47 85 39 51 66 46 44 39 11 0 0 2 14 6 0 0 0 0 0 0 0 0 0 0
437 463 595 1139 1157 810 362 154 61 39 24 36 21 15 5 0 11 3 0 5 32 1 0 1 9 4 18 29 18 8 6 8 24 1 0 0 0 0 0 0 0 0 0
472 355 516 609 517 155 44 9 2 1 0 1 9 26 0 3 0 0 0 0 0 0 0 0 0 0 0 0 13 3 6 41 68 31 10 0 0 0 0 0 0 0 0
4 0 8 66 5 0 0 0 0 0 4 7 15 0 0 1 0 0 0 0 0 0 0 0 0 0 0 0 38 14 2 0 0 16 40 29 18 9 3 1 0 0 0
0 0 0 0 0 0 0 0 0 0 9 1 0 0 5 0 0 0 0 4 0 0 0 0 0 0 0 0 5 49 19 3 0 0 0 50 49 52 44 3 5 5 0
0 0 0 0 0 0 0 0 0 0 2 2 0 0 0 0 0 0 0 0 0 0 0 0 10 1 0 0 0 1 8 23 11 0 0 0 29 52 39 21 18 5 0
1 1 0 0 0 0 0 0 0 0 0 0 0 0 0 0 0 0 0 0 0 0 4 0 0 0 2 0 0 0 0 0 8 10 0 0 0 0 36 62 46 24 37
1 0 0 0 0 0 0 0 0 0 0 0 2 1 0 0 0 0 0 0 0 8 14 12 12 2 0 0 0 0 0 0 0 0 0 0 0 0 0 10 20 7 11

GFSSE_con_mucape_030.txt.gz
CAPE
540 769 820 824 830 902 913 953 1072 1187 1363 1665 1611 1537 1400 1399 1408 1477 1504 1591 1598 1412 1425 1560 1519 1473 1368 1288 1306 1332 1279 1190 1301 1225 1285 1185 1499 1375 1442 1827 2012 1733 1750
619 740 719 901 1038 1031 1074 1104 1192 1408 1538 1592 1437 1354 1281 1257 1351 1170 1139 1182 1364 1258 1392 1519 1575 1397 1224 1108 1064 996 984 1142 1098 1144 977 916 1671 1064 1174 1444 1717 1663 1788
708 766 869 1063 1284 1292 1297 1334 1428 1649 1454 1335 1228 1225 1155 1025 1011 946 956 1106 1252 1234 1507 1489 1365 1249 1066 922 803 707 721 823 1022 1002 724 551 1166 998 1096 1472 1515 1603 1804
696 777 860 1061 1252 1372 1405 1425 1360 1474 1403 1456 1291 1125 1049 1060 1013 930 931 1335 1229 1213 1176 1081 937 782 752 751 628 607 609 620 777 839 293 621 1022 665 856 1069 1236 1290 1383
602 674 751 858 981 1143 1224 1314 1413 1421 1424 1520 1493 1202 1258 1179 975 891 873 1196 1013 931 911 607 409 301 320 403 436 412 403 445 563 70 254 838 917 1138 1149 766 868 1165 1296
399 385 457 579 744 951 1067 1145 1252 1331 1346 1459 1511 1421 1142 907 677 663 769 927 852 695 530 427 416 424 393 328 245 162 137 110 145 2 357 678 846 593 1015 1142 1094 1160 1309
55 112 220 388 616 766 787 809 1015 1073 1076 1185 1247 1195 911 763 790 787 760 635 442 335 344 315 283 182 117 87 56 44 27 20 0 87 378 523 788 1385 1292 1381 1379 1066 974
1 82 202 442 538 601 664 675 723 779 845 934 1006 1039 913 811 713 496 392 282 239 171 91 43 33 24 25 36 36 25 1 1 0 12 125 463 479 911 1201 1225 1200 1133 1084
0 20 105 209 262 274 247 266 299 415 513 600 599 639 597 550 566 527 334 178 127 57 8 0 0 0 0 0 0 0 0 0 0 1 4 132 1001 1197 990 1132 1119 891 1128
1 0 0 52 8 0 22 115 115 148 205 248 243 231 201 261 328 310 212 188 140 41 0 0 0 0 0 0 0 0 0 0 0 0 0 99 893 903 799 731 709 674 609
80 74 10 0 0 0 0 45 118 175 131 129 184 130 143 97 128 174 31 68 127 29 0 0 0 0 0 0 0 0 0 0 0 0 0 0 492 638 557 437 365 359 360
122 92 42 10 3 0 17 64 105 132 194 167 284 240 160 237 134 153 106 77 106 44 23 11 0 0 0 0 0 0 0 0 0 0 0 0 123 142 51 50 172 228 297
175 127 163 111 27 4 19 81 77 210 328 342 315 290 283 285 355 186 71 18 0 1 0 0 0 0 0 0 0 0 0 0 0 0 0 0 0 0 0 0 0 0 0
247 213 167 238 203 85 116 88 173 188 370 466 431 249 57 271 0 9 17 0 0 0 0 0 0 0 0 0 0 0 0 0 0 0 0 0 0 0 0 0 0 0 0
280 282 187 208 130 74 69 52 123 371 405 592 236 78 23 7 0 0 0 0 0 0 0 0 0 0 0 0 0 0 0 0 0 0 0 0 0 0 0 0 0 0 0
349 383 285 220 120 159 34 35 10 90 432 173 210 96 13 30 5 6 0 0 0 0 0 0 0 0 0 0 0 0 0 0 0 0 0 0 0 0 0 0 0 0 0
347 581 548 589 632 533 361 211 131 114 113 141 158 36 27 1 8 0 0 0 0 0 0 0 0 0 0 0 0 0 0 0 0 0 0 0 0 1 0 0 1 0 0
577 952 841 881 373 380 397 212 162 107 74 36 20 5 18 8 6 1 0 0 0 0 0 0 0 0 0 0 0 0 0 0 0 0 0 0 0 0 0 3 8 21 17
769 1168 1187 696 491 105 314 258 31 8 31 25 0 3 9 17 7 5 5 0 0 0 0 0 0 0 0 0 0 0 0 0 0 0 0 0 0 0 4 2 19 32 28
600 941 919 731 618 476 175 72 54 74 22 0 0 0 0 0 3 6 6 7 4 0 0 0 0 0 0 0 0 0 0 0 0 0 0 0 0 0 0 3 3 8 25
453 356 223 110 106 90 108 100 78 31 11 2 0 0 2 10 23 24 9 4 0 0 0 0 0 0 0 0 0 0 0 0 0 0 0 0 0 0 0 0 0 0 0
68 59 47 13 12 0 0 0 0 0 0 0 0 0 0 1 5 7 0 2 6 0 0 0 0 0 0 0 0 0 0 0 0 0 0 0 0 0 0 3 1 5 7
32 17 0 0 0 0 0 0 0 0 0 0 0 0 0 0 0 0 0 0 0 0 0 0 0 0 0 4 9 0 0 0 0 0 0 0 0 0 0 0 0 8 27
12 0 0 0 0 0 0 0 0 0 0 0 0 0 0 0 0 0 0 0 0 0 0 0 0 11 14 1 1 6 3 0 0 0 0 0 0 0 0 0 0 0 8
0 0 0 0 0 0 0 0 0 0 0 0 0 0 0 0 0 0 0 0 0 0 0 3 2 2 0 1 6 5 3 0 0 0 0 0 0 0 0 0 0 0 0
0 0 0 0 0 0 0 0 0 0 0 0 1 4 0 0 0 0 0 0 0 0 0 0 0 0 1 2 4 1 0 0 0 0 0 0 0 0 0 0 0 0 0

GFSSE_con_mucape_033.txt.gz
CAPE
532 620 614 796 855 870 918 932 946 1096 1435 1481 1375 1258 1192 1199 1139 1265 1258 1431 1467 1200 1256 1284 1248 1218 1137 1037 937 901 861 834 908 984 1076 1122 1462 934 1457 2241 2118 1791 1726
548 602 567 816 922 937 1013 1102 1233 1517 1529 1130 1068 1064 1096 1021 915 895 860 953 1105 1139 1295 1283 1189 1050 887 765 739 676 700 705 787 819 887 517 1515 1012 1389 1824 1718 1858 1687
633 544 661 835 1023 1134 1264 1456 1485 1478 1197 1067 981 911 932 859 804 760 875 1051 1154 1231 1017 957 907 866 759 648 609 609 620 598 562 601 243 536 990 1022 1095 1265 1410 1664 1835
635 728 881 1006 1168 1219 1218 1396 1460 1345 1215 1111 1012 952 921 863 829 842 919 979 811 827 736 522 355 242 194 203 286 300 327 340 354 280 106 659 951 1018 655 1170 1183 1332 1357
624 798 941 995 1074 1209 1250 1240 1359 1387 1371 1307 1212 1090 1064 958 855 717 776 836 740 630 347 238 224 257 211 178 157 115 74 91 107 1 135 569 753 883 1055 719 599 1099 1106
623 730 801 805 868 1054 1211 1267 1274 1285 1275 1297 1325 1214 1019 769 592 637 785 745 524 288 205 185 160 100 55 29 13 5 0 0 0 1 150 441 792 492 599 1256 1273 954 1198
475 425 492 598 766 956 992 1078 1105 1165 1177 1229 1209 1066 719 651 667 725 681 429 263 216 169 64 41 25 12 18 2 2 0 0 0 4 93 211 637 1032 1156 1257 1651 1254 1038
80 99 210 440 582 677 792 815 795 824 879 923 985 1008 898 785 707 484 345 236 164 102 41 3 0 0 0 0 0 0 0 0 0 0 4 22 307 599 885 1246 1269 1164 1188
0 7 103 206 308 361 386 436 459 556 623 645 729 758 750 629 527 446 303 169 78 44 1 0 0 0 0 0 0 0 0 0 0 0 0 0 116 774 706 597 799 1014 1208
0 0 0 2 4 10 56 125 174 248 285 342 376 338 219 236 306 258 165 157 105 24 0 0 0 0 0 0 0 0 0 0 0 0 0 0 251 734 654 475 408 634 823
0 0 0 0 0 0 0 8 69 180 143 163 163 126 86 68 135 180 71 50 149 64 12 0 0 0 0 0 0 0 0 0 0 0 0 0 27 457 626 510 338 363 413
42 4 0 0 0 0 0 1 0 13 10 152 171 132 119 156 97 150 127 141 158 116 122 115 77 11 0 0 0 0 0 0 0 0 0 0 0 118 220 60 33 57 133
72 23 12 0 0 0 0 31 28 108 114 156 258 204 190 217 261 168 185 24 0 0 0 0 0 0 0 0 0 0 0 0 0 0 0 0 0 0 0 0 0 0 2
139 100 66 1 0 6 42 75 125 140 268 280 291 313 224 196 212 149 83 0 0 0 0 0 0 0 0 0 0 0 0 0 0 0 0 0 0 0 0 0 0 0 0
198 153 144 95 61 23 91 108 131 164 292 418 458 210 54 163 0 0 0 0 0 0 0 0 0 0 0 0 0 0 0 0 0 0 0 0 0 0 0 0 0 0 0
246 242 230 187 236 99 70 141 194 244 322 413 533 147 37 0 0 0 0 0 0 0 0 0 0 0 0 0 0 0 0 0 0 0 0 0 0 0 0 0 0 0 0
312 306 299 250 133 94 114 93 48 59 358 553 280 169 32 14 11 0 0 0 0 0 0 0 0 0 0 0 0 0 0 0 0 0 0 0 0 0 0 0 0 35 42
346 399 326 366 139 154 220 175 78 38 50 50 182 145 19 8 1 0 3 3 1 0 0 0 0 0 0 0 0 0 0 0 0 0 0 0 0 0 0 0 0 8 102
460 431 255 137 292 71 131 193 121 25 65 14 14 11 0 4 1 13 17 6 6 2 2 1 2 0 0 0 0 0 0 0 0 0 0 0 0 0 0 0 0 1 21
742 642 440 373 303 75 171 230 69 25 23 39 15 0 0 4 12 18 16 16 11 7 5 8 0 0 0 0 0 0 0 0 0 0 0 0 0 0 0 0 0 0 8
904 540 419 216 160 189 152 122 90 97 40 16 1 3 12 16 24 19 4 4 6 5 3 1 0 0 0 0 0 0 0 0 0 0 0 0 0 0 0 0 0 0 0
227 70 50 47 6 2 0 0 0 0 0 3 3 0 0 0 0 0 0 2 5 3 0 0 0 0 0 0 0 0 0 0 0 0 0 0 0 0 0 0 0 0 0
19 4 0 0 0 0 0 0 0 0 0 0 0 0 0 0 0 0 0 0 0 0 0 0 0 0 0 0 0 0 0 0 0 0 0 0 0 0 0 0 0 0 0
0 0 0 0 0 0 0 0 0 0 0 0 0 0 0 0 0 0 0 0 0 0 0 0 0 0 0 0 0 0 0 1 0 0 0 0 0 0 0 0 0 0 0
0 0 0 0 0 0 0 0 0 0 0 0 0 0 8 2 0 0 0 0 0 0 0 0 0 0 0 0 0 0 0 0 0 0 0 0 0 0 0 0 0 0 0
0 0 0 0 0 0 0 0 0 0 0 0 0 3 2 0 0 0 0 0 0 0 0 0 0 0 0 0 0 1 0 0 0 0 0 0 0 0 0 0 0 0 0

GFSSE_con_mucape_036.txt.gz
CAPE
392 489 610 915 1041 984 845 807 967 1192 1243 1266 1147 1133 1079 1041 984 1060 1139 1309 1250 999 970 989 966 839 738 671 636 614 619 524 551 663 790 767 1434 956 1608 1828 1913 1561 1873
476 441 550 842 991 1007 976 1055 1365 1321 1173 900 869 957 976 876 773 743 818 898 1065 910 725 771 744 701 605 538 498 506 541 482 454 502 383 382 1207 985 1168 1657 1725 1716 1785
514 405 556 746 1025 1158 1365 1548 1506 1285 920 825 776 833 759 712 672 766 909 1000 870 652 639 546 380 262 174 172 160 213 268 239 268 268 161 360 618 1019 885 1379 1367 1653 1653
485 553 588 824 1068 1337 1407 1407 1353 1146 994 899 876 829 747 705 758 816 776 694 659 517 296 145 116 135 121 79 29 20 17 31 13 0 34 282 607 944 740 977 1181 1240 1294
636 735 849 860 938 1147 1308 1309 1309 1257 1161 1095 1024 851 839 806 669 575 660 638 438 134 84 57 40 20 10 8 1 0 0 0 0 0 28 245 483 638 1078 812 580 1045 1043
1004 799 844 814 910 1087 1189 1262 1223 1178 1094 1082 1127 934 842 602 484 588 634 401 183 100 45 25 14 6 6 3 0 0 0 0 0 0 32 236 285 1070 1080 1433 1211 1104 1077
643 714 731 731 886 1083 1077 1049 1128 1096 1095 1150 1138 1002 659 523 559 593 405 182 112 45 13 3 0 0 0 0 0 0 0 0 0 0 0 47 188 838 1017 1084 1574 1199 1048
623 593 561 638 779 917 1024 981 925 965 985 978 925 853 734 682 635 370 200 106 41 5 0 0 0 0 0 0 0 0 0 0 0 0 0 0 9 833 922 868 1293 1150 1081
247 244 305 387 494 583 611 605 630 666 684 723 736 710 692 560 477 368 176 76 17 10 0 3 0 0 0 0 0 0 0 0 0 0 0 0 298 607 579 434 775 917 1117
0 0 8 95 121 108 185 246 315 392 408 421 462 374 304 238 176 82 37 34 1 11 91 127 57 24 5 0 0 0 0 0 0 0 0 0 1 43 389 644 441 412 437
0 0 0 0 0 0 1 80 203 269 256 245 249 155 86 17 46 66 12 13 137 106 118 178 171 67 18 0 0 0 0 0 0 0 0 0 0 0 54 327 497 247 211
0 0 0 0 0 0 0 0 0 6 21 35 37 51 48 58 46 82 97 80 135 53 45 13 0 0 0 0 0 0 0 0 0 0 0 0 0 0 0 26 365 129 127
0 0 0 0 0 0 0 0 0 0 67 129 162 144 119 140 161 124 102 53 0 0 0 0 0 0 0 0 0 0 0 0 0 0 0 0 0 0 0 0 84 72 67
39 5 0 0 0 0 0 0 12 78 89 128 227 224 188 214 193 161 50 0 0 0 0 0 0 0 0 0 0 0 0 0 0 0 0 0 0 0 0 0 5 97 45
127 88 4 0 0 0 0 36 95 142 249 264 319 333 249 110 164 0 0 0 0 0 0 0 0 0 0 0 0 0 0 0 0 0 0 0 0 0 0 0 0 0 83
165 196 169 43 3 0 32 79 96 132 227 368 471 444 221 57 20 0 0 0 0 0 0 0 0 0 0 0 0 0 0 0 0 0 0 0 0 0 0 0 0 0 0
166 275 264 193 85 102 36 33 97 146 261 344 491 500 183 42 2 0 0 0 4 10 3 0 0 0 0 0 0 0 0 0 0 0 0 0 0 0 0 0 0 0 0
212 244 305 244 192 53 23 54 95 133 268 195 131 268 154 68 3 2 3 17 24 15 1 1 0 0 0 0 0 0 0 0 0 0 0 0 0 0 0 0 0 0 0
245 209 273 156 115 70 20 0 93 94 92 112 62 67 37 7 8 27 39 41 31 20 18 20 3 0 0 0 0 0 0 0 0 0 0 0 0 0 0 0 0 0 0
216 207 290 128 47 7 55 62 99 93 44 28 39 36 7 12 19 16 8 3 3 3 2 0 0 1 0 0 0 0 0 0 0 0 0 0 0 0 0 0 0 0 0
385 362 228 224 119 74 80 87 100 21 9 0 0 0 0 0 0 0 0 0 0 0 0 0 0 0 0 0 0 0 0 0 0 0 0 0 0 0 0 0 0 0 0
268 156 23 40 18 0 0 0 0 0 0 0 0 0 0 0 0 0 0 0 0 0 0 0 0 0 0 0 0 0 0 0 0 0 0 0 0 0 0 0 0 0 0
23 6 0 0 0 0 0 0 0 0 0 0 0 0 0 0 0 0 0 0 0 0 0 0 0 0 0 0 0 0 0 0 0 0 0 0 0 0 0 0 0 0 0
0 0 0 0 0 0 0 0 0 0 0 0 0 0 0 0 0 0 0 0 0 0 0 0 0 0 0 0 0 0 0 0 0 0 0 0 0 0 0 0 0 0 0
0 0 0 0 0 0 0 0 0 0 0 0 0 0 0 0 0 0 0 0 0 0 0 0 0 0 0 0 0 0 0 0 0 0 0 0 0 0 0 0 0 0 0
0 0 0 0 0 0 0 0 0 0 0 0 0 0 0 0 0 0 0 0 0 0 0 0 0 0 0 0 0 0 0 0 0 0 0 7 0 0 0 0 0 0 0

GFSSE_con_mucape_042.txt.gz
CAPE
581 638 859 941 1013 955 958 1029 1060 1094 1112 1171 1185 1175 1094 922 949 1040 1049 978 837 643 485 495 434 396 316 284 245 202 176 160 199 292 469 832 1004 975 861 1131 1436 917 1335
737 646 715 971 1033 1020 1105 1166 1248 1200 1225 972 896 812 792 778 778 815 857 775 530 405 310 208 152 159 119 68 29 11 5 1 13 56 254 703 1222 861 781 903 1535 898 1309
745 689 779 822 1022 1144 1279 1358 1361 1159 908 776 751 706 671 738 813 845 605 542 311 69 43 42 25 0 0 0 0 0 0 0 0 48 196 330 835 1063 703 1090 1236 1076 924
614 769 819 780 1034 1358 1389 1375 1365 1186 929 904 777 683 698 805 688 524 516 532 170 10 0 0 0 0 0 0 0 0 0 0 0 39 229 482 604 1014 988 835 1140 881 838
798 924 1060 896 1045 1264 1350 1275 1313 1248 1196 1087 926 757 792 601 494 523 342 368 132 0 0 0 0 0 0 0 0 0 0 0 0 13 43 658 673 944 1009 671 636 905 900
969 1021 836 987 1018 1370 1321 1419 1356 1232 1114 1033 1018 851 519 467 487 341 250 294 3 0 0 0 0 0 0 0 0 0 0 0 0 0 0 114 627 833 737 723 1183 1074 1213
1000 1121 1217 1019 1096 1325 1546 1429 1252 1137 1081 1080 1068 822 547 499 314 192 139 26 0 0 0 0 0 0 0 0 0 0 0 0 0 0 0 0 0 157 513 576 501 572 555
1086 1044 1059 979 1156 1271 1326 1141 967 986 1046 1004 881 835 676 511 324 72 0 0 0 0 0 0 0 0 0 0 0 0 0 0 0 0 0 0 1 0 0 324 821 535 391
1281 1248 1189 1088 970 914 835 784 794 865 815 707 694 706 557 436 339 236 213 22 17 24 13 0 0 1 6 0 0 0 0 0 0 0 0 0 0 0 0 0 113 488 393
1287 892 605 567 623 651 752 686 706 618 517 507 532 387 262 170 118 33 131 151 80 91 84 69 19 0 0 0 0 0 0 11 0 0 0 0 0 0 20 0 0 60 292
627 528 407 386 416 350 318 543 364 399 372 343 320 198 112 271 252 124 73 171 104 40 10 0 0 0 0 0 0 0 1 0 0 0 0 0 0 0 0 45 136 356 341
173 150 213 206 197 172 29 236 273 118 268 448 417 496 464 588 526 309 185 19 1 0 0 0 0 0 0 0 0 0 0 0 0 0 0 0 0 0 0 0 12 43 369
32 31 53 148 199 106 114 113 68 267 463 661 749 780 809 730 831 731 614 319 117 0 0 0 0 0 0 0 0 0 0 0 0 0 0 0 0 0 0 0 0 0 11
3 6 24 65 182 153 72 169 352 424 591 657 847 994 977 975 1087 1077 666 167 80 45 40 12 0 0 0 0 0 0 0 0 0 0 0 0 0 0 0 0 0 0 0
48 70 80 52 92 178 282 418 510 585 705 960 970 1165 1125 1162 849 457 241 120 45 3 0 0 0 0 0 0 0 0 0 0 0 0 0 0 0 0 0 0 0 0 1
150 215 304 276 229 264 340 413 338 238 456 645 888 539 270 294 280 236 108 10 3 1 0 0 1 6 4 0 0 0 0 0 0 0 0 0 0 0 0 0 0 0 0
251 455 487 502 330 281 193 73 19 8 59 125 256 222 156 246 206 77 57 32 18 1 1 2 8 6 0 0 0 0 0 0 0 0 0 0 0 0 0 0 0 0 0
212 572 560 359 265 109 53 9 0 0 0 31 41 63 52 53 28 22 28 15 1 3 3 0 0 0 0 0 0 0 0 0 0 0 0 0 0 0 0 0 0 0 0
400 673 528 430 223 58 65 21 8 0 28 45 49 55 36 16 9 3 0 0 0 0 0 0 0 0 0 0 0 0 0 0 0 0 0 0 0 0 0 0 0 0 0
686 734 568 506 140 45 30 34 0 7 13 8 4 0 0 0 0 0 0 0 0 0 0 0 0 0 0 0 0 0 0 0 0 1 0 0 0 0 0 0 0 0 0
511 586 516 190 94 97 69 8 0 0 0 0 0 0 0 0 0 0 0 0 0 0 0 0 0 0 0 0 0 0 0 0 26 16 5 4 0 1 0 4 1 1 0
608 664 568 671 618 277 51 1 0 0 0 0 0 0 0 0 0 0 0 0 0 0 0 0 0 0 0 0 3 0 0 0 0 19 15 8 8 4 1 3 13 12 10
881 972 805 502 167 2 0 0 0 0 0 0 0 0 0 0 0 0 0 0 0 0 0 0 0 0 2 1 15 19 0 0 0 14 26 22 16 9 13 15 22 23 24
395 204 4 0 0 0 0 0 0 16 21 1 0 0 0 0 0 0 0 0 0 0 1 5 7 21 24 34 30 36 54 60 0 0 39 34 10 7 12 18 26 22 33
0 0 0 0 0 0 0 0 12 11 0 0 0 0 0 0 0 0 0 0 0 16 34 52 59 64 66 72 74 40 45 30 45 63 83 46 28 36 38 28 33 26 30
0 0 1 0 0 0 0 0 0 0 0 0 0 0 1 0 0 1 4 8 29 50 64 76 86 73 74 73 66 55 39 22 26 4 60 19 45 29 39 29 26 39 52

GFSSE_con_mucape_045.txt.gz
CAPE
468 381 765 913 943 974 990 1013 1050 1055 1152 1178 1136 1002 1054 941 964 939 878 721 590 439 415 358 274 213 96 34 9 13 5 19 64 128 379 913 934 743 680 1020 1130 506 1300
498 435 688 925 988 980 1064 1088 1079 1168 1177 902 863 808 897 858 883 744 622 493 381 275 194 156 62 2 0 0 0 0 0 0 34 138 276 799 1024 793 857 913 1320 757 1112
629 535 466 863 1023 1154 1234 1245 1227 1109 890 792 700 710 748 805 760 580 488 447 160 57 13 0 0 0 0 0 0 0 0 0 0 55 622 635 749 972 793 1372 1405 932 890
619 577 512 818 1092 1331 1356 1286 1176 989 831 787 717 700 752 642 526 467 284 397 142 0 0 0 0 0 0 0 0 0 0 0 84 346 183 183 553 868 698 690 1083 665 765
522 728 816 864 1201 1380 1331 1242 1087 1118 1146 909 827 737 582 435 461 272 208 311 32 0 0 0 0 0 0 0 0 0 0 0 65 26 30 63 430 711 693 531 508 684 675
901 1092 673 888 1148 1292 1283 1197 1145 1052 1074 1023 972 598 410 413 247 170 167 122 0 0 0 0 0 0 0 0 0 0 0 19 0 0 5 32 2 247 576 557 711 473 735
776 993 1055 863 1034 1086 1209 1122 1161 1064 1048 1077 849 690 461 262 133 138 35 9 0 0 0 0 0 0 0 0 0 0 0 0 0 0 0 0 0 0 0 293 584 477 353
946 904 969 829 894 1053 1157 1120 997 1034 1028 902 808 728 418 231 151 27 5 15 1 0 0 0 0 0 0 0 0 0 0 0 0 0 0 0 0 0 0 0 441 787 430
992 1154 1051 1056 985 853 755 716 751 811 763 679 712 598 459 400 321 251 163 26 16 20 0 31 4 0 0 0 0 0 0 14 0 0 4 0 0 0 0 0 10 107 195
931 906 545 610 601 643 716 627 660 588 494 517 458 301 177 116 102 160 213 142 64 62 93 52 1 0 0 0 0 0 0 18 0 0 30 0 0 0 0 0 0 0 382
577 389 369 344 388 405 502 645 441 489 429 362 209 188 29 68 69 145 96 180 33 10 0 0 0 0 0 0 0 0 0 0 0 0 4 0 0 0 0 0 0 0 15
323 257 282 307 292 192 66 253 181 62 141 315 322 306 567 485 591 380 203 132 0 0 0 0 0 0 6 13 4 0 0 0 0 0 0 0 0 0 0 0 0 0 0
69 64 113 196 207 65 145 165 72 178 513 688 695 731 855 582 723 609 744 493 397 16 125 24 45 34 1 0 0 0 0 0 0 0 0 0 0 0 0 0 0 0 2
0 0 40 152 214 148 81 77 272 392 560 657 981 962 889 1044 1120 867 651 387 260 168 195 110 69 0 0 0 0 0 0 0 0 0 0 0 0 0 0 0 0 0 0
24 34 12 78 168 371 438 586 664 693 787 1021 1022 1227 1286 1284 1036 896 545 361 215 83 60 37 10 0 0 0 0 0 0 0 0 0 0 0 0 0 0 0 0 0 0
125 199 132 188 320 573 753 756 652 618 723 1043 1139 847 665 704 767 662 527 184 51 22 18 14 0 1 0 0 0 0 0 0 0 0 0 0 0 0 0 0 0 0 0
357 391 470 540 529 610 325 93 88 108 122 257 444 470 442 553 605 377 92 27 18 19 9 4 3 0 0 0 0 0 0 0 0 0 0 0 0 0 0 0 0 0 0
641 706 649 535 654 418 115 35 17 9 0 41 133 100 23 45 30 28 19 0 0 0 0 0 0 0 0 0 0 0 0 0 0 0 0 0 1 0 0 0 0 0 0
747 917 766 754 606 172 77 21 0 0 0 0 26 33 39 24 0 0 0 0 0 0 0 0 0 0 0 0 0 0 0 0 0 0 0 1 8 3 7 0 2 0 0
688 1049 918 696 333 126 61 37 8 1 0 1 0 0 0 0 0 0 0 0 0 0 0 0 0 0 0 0 0 0 2 0 0 0 6 8 6 8 8 11 10 11 37
911 1089 760 482 154 440 554 20 0 5 0 0 0 0 0 0 0 0 0 0 0 0 0 0 0 0 0 0 0 0 0 0 2 2 1 12 8 9 14 15 21 17 20
998 886 644 503 550 759 501 106 13 1 0 0 0 0 0 0 0 0 0 0 0 0 0 0 0 0 0 2 0 0 0 0 0 1 4 6 31 5 13 16 25 32 36
618 717 719 792 526 242 4 5 7 0 0 0 0 0 0 0 0 0 0 0 0 0 0 0 3 7 0 17 24 9 0 0 0 9 3 1 45 41 27 25 25 28 34
1171 949 819 161 5 0 0 0 0 4 2 21 10 0 0 0 0 0 0 0 0 1 7 17 19 36 62 41 38 28 27 49 0 0 14 25 29 35 95 58 52 18 34
482 153 0 0 0 0 0 1 13 18 15 3 0 5 0 5 1 0 0 2 7 15 25 48 75 88 74 62 48 55 56 56 66 52 3 41 48 54 67 81 98 69 27
30 2 0 1 0 0 0 5 7 10 0 0 0 0 0 4 2 5 7 12 18 25 25 32 62 57 83 83 57 60 59 53 43 52 54 52 54 16 70 59 106 65 68

GFSSE_con_mucape_048.txt.gz
CAPE
245 195 808 1095 1216 1205 1103 1058 987 997 1043 1081 1086 1119 1018 975 920 828 697 616 489 231 147 70 7 0 0 0 0 0 0 16 83 184 661 776 574 591 503 1033 748 429 1537
203 168 731 1010 1160 1164 1122 1033 1071 1024 1027 1002 994 964 962 942 830 741 573 459 323 36 1 0 0 0 0 0 0 1 6 73 150 237 478 845 817 572 722 1032 1098 1021 1290
174 206 389 856 1156 1217 1209 1248 1203 1112 954 699 862 905 934 756 637 510 392 289 136 0 0 0 0 0 0 0 0 0 23 160 219 330 343 317 452 616 541 1265 1053 1086 1003
239 171 302 883 1239 1332 1227 1179 1143 1031 903 858 837 833 642 538 448 203 282 178 73 0 0 0 0 0 0 0 0 0 17 108 147 248 217 386 268 871 456 703 981 288 686
371 289 602 914 1142 1259 1162 1133 1142 1134 949 899 843 584 436 306 137 134 262 140 46 0 0 0 0 0 0 0 0 4 5 0 64 26 14 21 2 392 536 462 302 390 568
594 527 584 871 1083 1172 1154 1183 1150 998 933 850 613 528 346 138 138 91 226 175 17 0 0 0 0 0 0 0 0 0 0 0 26 8 2 0 0 9 3 502 912 771 630
356 345 715 764 927 1167 1298 1231 1007 967 864 670 616 571 330 120 68 130 209 169 57 0 0 0 0 0 0 1 0 0 16 15 0 1 0 0 0 45 0 0 620 857 715
144 455 527 734 840 937 1034 954 847 825 678 663 634 491 344 253 179 175 169 140 86 34 0 0 0 0 0 0 0 0 0 36 0 8 9 0 101 103 63 44 289 219 326
355 548 744 833 798 687 626 608 599 530 478 570 551 411 348 292 233 212 217 198 133 84 20 0 0 0 0 0 0 0 0 30 0 6 11 0 113 33 8 25 73 244 420
349 380 787 806 802 579 527 514 407 334 368 359 254 179 93 82 137 171 170 174 122 71 28 0 0 0 0 0 0 0 0 0 0 0 0 0 12 0 0 0 0 0 222
272 597 562 466 528 531 553 461 369 394 357 247 149 98 19 17 45 102 112 191 78 0 0 0 0 0 0 3 10 0 0 0 0 0 0 0 0 0 0 0 0 2 4
190 208 284 374 381 431 270 323 220 135 83 83 76 187 315 492 261 155 93 161 48 6 3 0 0 0 10 0 0 3 0 0 0 0 0 0 0 0 0 0 0 4 11
92 112 210 339 343 225 55 242 46 138 425 616 655 671 731 746 463 366 350 201 151 11 25 6 13 13 8 0 0 0 0 0 0 0 0 0 0 0 0 0 0 1 5
32 103 187 283 459 326 112 125 94 393 680 614 876 836 834 803 808 770 603 473 345 25 94 35 33 8 0 0 6 5 0 2 0 0 0 0 0 0 0 0 0 0 0
7 86 138 251 339 335 655 671 516 641 666 650 695 759 699 950 753 728 441 376 93 15 0 1 0 0 0 0 0 0 0 0 0 0 0 0 0 0 0 0 0 0 0
21 48 94 193 500 772 565 502 297 301 443 658 630 592 660 697 571 476 236 121 17 16 2 0 0 0 0 0 0 0 0 0 0 0 0 0 0 0 0 0 0 0 0
126 109 213 364 670 420 266 164 112 88 38 114 215 211 296 264 260 175 133 79 12 3 0 0 0 0 0 0 0 0 0 0 0 0 0 0 0 4 0 0 0 0 0
239 259 366 539 437 199 54 5 1 0 0 0 2 0 24 7 4 3 7 0 0 0 0 0 0 0 0 0 0 0 0 0 0 0 0 0 0 0 2 0 0 0 0
487 503 551 604 288 115 22 14 16 9 0 0 0 0 3 4 6 1 0 0 0 0 0 0 0 0 0 0 0 0 0 0 0 0 0 0 0 0 1 0 37 54 2
863 705 748 500 314 75 32 29 16 4 0 0 0 0 0 1 0 0 0 0 0 0 0 0 0 0 0 0 0 0 0 0 0 0 0 8 15 7 2 0 0 0 51
1095 907 612 444 241 59 262 77 2 0 0 0 0 0 0 0 0 0 0 0 0 0 0 0 0 0 0 0 0 0 0 0 0 0 0 0 0 5 6 3 0 4 0
1065 814 617 479 242 290 498 18 1 0 0 0 0 0 0 0 0 0 0 0 0 0 0 0 0 0 0 0 0 0 0 0 0 0 0 0 0 0 0 0 0 0 0
1092 874 585 568 353 565 236 11 0 0 0 0 0 0 0 0 0 0 0 0 0 0 0 0 0 0 0 0 0 0 0 0 0 0 0 0 0 0 0 0 1 0 0
748 642 603 636 650 280 3 0 0 0 0 0 0 1 0 0 0 0 0 0 0 0 0 0 0 0 0 0 0 0 1 1 0 0 0 0 0 0 0 0 0 0 2
761 810 843 665 48 0 0 0 0 47 19 9 9 0 5 0 0 0 0 0 0 0 0 3 4 1 5 9 6 7 3 1 0 0 0 0 0 0 0 0 0 0 0
1119 787 172 0 0 0 0 12 27 49 2 0 0 0 0 0 0 0 2 0 0 0 0 0 0 0 5 15 12 14 17 8 0 0 0 0 0 0 0 5 0 0 0

GFSSE_con_mucape_051.txt.gz
CAPE
245 738 1092 1318 1247 1169 1056 930 852 855 989 1031 985 918 856 757 614 555 460 329 219 0 0 0 0 0 0 0 0 0 0 8 121 392 672 553 569 428 438 872 772 704 1004
364 854 1139 1246 1146 1151 1077 1019 962 967 1009 961 941 855 753 625 465 359 270 188 8 0 0 0 0 0 0 0 0 0 0 148 177 318 621 447 447 541 477 763 795 890 1236
425 814 1039 1036 1129 1173 1171 1197 1121 1034 910 812 965 747 613 379 288 241 117 60 0 0 0 0 0 0 0 0 0 0 13 101 116 99 542 319 288 380 365 776 652 905 601
397 671 899 854 1027 1115 1154 1123 1009 945 873 914 654 515 411 208 196 45 13 35 0 0 0 0 0 0 0 0 0 0 13 34 179 497 150 48 113 465 382 296 344 180 90
192 541 857 886 1011 1011 1014 1098 1009 943 800 581 471 386 260 145 4 0 116 87 3 0 0 0 0 0 0 0 0 0 41 55 10 22 1 0 0 7 100 311 326 304 208
244 499 582 706 833 987 1164 1076 930 825 546 415 393 285 147 28 7 18 177 130 18 2 0 0 0 0 0 0 0 17 30 64 0 0 0 26 24 76 34 1 640 482 598
262 298 298 626 835 1066 1140 976 822 591 458 450 309 231 209 26 18 35 179 150 48 1 0 0 0 0 0 0 0 13 14 55 0 0 0 19 82 107 79 94 146 268 229
147 223 325 541 655 820 861 712 510 424 412 372 270 253 218 194 170 151 169 148 110 39 13 0 0 0 0 0 0 0 0 37 0 0 0 3 180 67 55 45 117 309 435
180 211 348 493 582 541 457 398 313 318 345 313 219 153 134 125 143 180 197 210 145 151 98 0 0 0 0 0 0 0 0 44 0 0 0 0 108 22 10 14 23 2 39
158 169 370 403 517 447 382 258 227 224 194 150 93 81 74 60 66 111 108 142 109 44 0 0 0 0 0 0 0 0 0 0 0 0 0 0 47 0 0 0 0 0 7
149 168 272 467 429 373 275 227 204 223 137 86 51 35 4 5 3 29 2 65 33 5 0 0 0 0 0 0 0 11 0 0 0 0 0 0 6 0 0 0 0 0 6
204 232 275 463 365 308 266 105 89 104 13 3 54 55 65 145 68 34 44 15 10 1 0 0 0 2 0 0 0 0 0 0 0 0 0 0 0 0 0 0 0 0 5
145 193 357 343 286 155 153 6 2 20 0 9 210 258 222 255 25 145 154 44 43 0 0 3 0 0 0 0 0 0 0 0 0 0 0 0 0 0 0 0 0 0 0
166 234 249 202 131 8 87 22 108 166 227 164 367 400 433 407 319 183 142 116 21 4 2 8 4 0 0 0 0 0 0 0 0 0 0 0 0 0 0 0 0 0 0
139 103 62 25 2 58 132 229 269 362 363 391 411 323 392 446 212 136 90 43 39 19 18 0 0 0 0 0 0 0 0 0 0 0 0 0 0 0 0 0 0 0 0
26 28 22 0 47 268 190 191 341 358 353 347 347 247 311 318 240 169 99 62 38 22 3 0 0 0 0 0 0 0 0 0 0 0 0 0 0 0 0 0 0 0 0
0 2 7 180 270 232 190 211 207 220 195 129 103 197 195 245 126 101 95 67 40 2 0 0 0 0 0 0 0 0 0 0 0 0 0 0 0 0 1 0 0 0 0
0 14 32 356 428 258 159 170 174 93 5 3 5 25 85 44 20 28 26 0 0 0 0 0 0 0 0 0 0 0 0 0 0 0 0 0 0 0 3 0 0 0 0
141 105 410 466 509 404 234 69 0 0 0 0 0 0 0 0 0 0 0 0 0 0 0 0 0 0 0 0 0 0 0 0 0 0 0 0 0 0 2 5 16 5 0
246 347 481 448 431 174 64 38 45 51 36 15 0 0 0 0 0 0 0 0 0 0 0 0 0 0 0 0 0 0 0 0 0 0 0 0 0 3 2 0 1 2 16
372 401 427 429 323 19 43 47 52 29 21 4 0 0 0 0 0 0 0 0 0 0 0 0 0 0 0 0 0 0 0 0 0 0 0 0 0 0 0 0 3 2 0
545 533 479 390 268 141 40 79 16 0 0 0 0 0 0 0 0 0 0 0 0 0 0 0 0 0 0 0 0 0 0 0 0 0 0 0 0 0 0 0 3 2 0
687 692 565 444 314 88 185 52 0 0 0 0 0 0 0 0 0 0 0 0 0 0 0 0 0 0 0 0 0 0 0 0 0 0 0 0 0 0 0 0 0 0 0
797 817 578 431 355 106 347 18 0 0 0 0 0 0 0 0 0 0 0 0 0 0 0 0 0 0 0 0 0 0 0 0 0 0 0 0 0 0 0 0 0 0 0
889 784 635 507 232 276 379 9 0 0 0 0 0 0 0 0 2 0 0 0 0 0 0 0 0 0 0 0 0 0 0 0 0 0 0 0 0 0 0 0 0 0 0
806 660 427 443 439 242 2 0 0 0 0 0 0 2 2 3 0 0 0 0 0 0 0 0 0 0 0 0 0 1 3 0 0 0 0 0 0 0 0 0 0 0 0

GFSSE_con_mucape_054.txt.gz
CAPE
648 840 983 1177 1162 1022 932 882 866 859 896 889 819 689 600 472 323 253 127 20 0 0 0 0 0 0 0 0 0 0 0 43 552 632 542 421 451 244 287 579 724 526 714
709 883 969 1108 1131 1043 1035 998 980 949 943 729 787 599 431 344 249 119 16 0 0 0 0 0 0 0 0 0 0 0 0 37 256 563 568 406 345 319 244 350 695 419 494
861 949 945 968 1020 1075 1075 1147 1106 1046 930 519 411 408 329 213 122 57 25 32 14 0 0 0 0 0 0 0 0 41 196 142 266 684 510 81 72 218 166 263 383 56 54
1300 934 822 858 960 1057 1104 1126 1028 993 751 670 356 229 235 96 63 0 1 50 54 0 0 0 0 0 0 0 0 111 275 482 496 8 2 6 1 45 46 61 100 117 46
993 879 825 730 804 1073 1031 908 1014 979 711 552 346 259 190 66 8 4 52 103 68 0 0 0 0 0 0 0 0 8 10 0 0 0 0 0 6 29 46 31 27 39 43
849 795 736 697 807 995 957 989 924 651 504 385 280 231 151 40 52 39 157 134 25 0 0 0 0 0 0 0 0 0 0 0 0 0 0 44 36 73 73 85 90 83 150
661 604 483 672 783 850 939 997 689 524 434 305 270 228 193 84 57 78 189 135 75 0 0 0 0 0 0 0 0 0 4 0 0 0 22 32 69 88 65 56 55 82 116
131 105 200 320 451 609 870 633 452 448 337 272 258 226 238 205 137 141 145 126 106 31 12 0 0 0 0 0 0 0 0 0 0 0 0 15 123 45 28 12 27 28 63
94 118 125 195 297 522 493 366 347 312 230 227 213 194 166 150 171 181 163 143 107 76 8 0 0 0 0 0 0 0 0 0 0 0 0 0 109 2 0 0 0 0 4
46 46 174 316 356 397 332 273 251 215 146 142 128 97 80 82 96 118 87 113 103 25 0 0 0 0 0 0 0 0 0 0 0 0 0 0 38 0 0 0 0 0 2
138 41 174 149 302 371 245 232 218 167 112 88 75 45 1 0 0 12 1 36 20 0 0 0 0 0 0 0 0 0 0 0 0 0 0 0 2 0 0 0 0 0 1
19 168 184 217 407 280 224 152 112 65 22 5 0 8 41 26 6 1 0 0 0 0 0 0 0 0 0 0 0 0 0 0 0 0 0 0 0 0 0 0 0 0 0
86 117 148 330 297 249 116 61 54 8 58 93 58 101 109 54 9 97 15 1 0 1 0 0 0 0 0 0 0 0 0 0 0 0 0 0 0 0 0 0 0 0 0
118 140 278 285 251 167 23 4 2 0 141 231 230 176 236 108 104 113 37 22 0 0 0 0 0 0 1 0 0 0 0 0 0 0 0 0 0 0 0 0 0 0 0
122 220 357 291 163 49 11 74 80 61 150 309 370 364 309 322 258 70 3 3 0 0 0 1 9 1 0 0 0 0 0 0 0 0 0 0 0 0 0 0 0 0 0
206 297 358 199 23 72 128 133 159 241 335 394 358 324 247 151 46 8 2 7 9 1 4 4 0 0 0 0 0 0 0 0 0 0 0 0 0 0 0 0 0 0 0
238 169 161 180 134 126 151 235 305 335 339 275 196 111 153 106 52 40 9 5 11 19 5 0 0 0 0 0 0 0 0 0 0 0 0 0 0 0 3 0 0 0 0
159 166 162 180 227 225 309 334 379 325 175 40 5 13 55 75 23 14 10 0 0 0 0 0 0 0 0 0 0 0 0 0 0 0 0 0 0 0 0 11 0 0 0
103 89 277 268 246 216 187 168 169 137 57 0 0 0 0 0 0 0 0 0 0 0 0 0 0 0 0 0 0 0 0 0 0 0 0 0 0 0 0 1 0 8 1
149 83 269 346 339 267 162 82 68 94 6 1 0 0 0 0 0 0 0 0 0 0 0 0 0 0 0 0 0 0 0 0 0 0 0 0 0 0 0 0 2 1 0
290 249 330 407 437 384 266 133 46 46 21 10 4 0 0 0 0 0 0 0 0 0 0 0 0 0 0 0 0 0 0 0 0 0 0 0 0 0 0 0 0 0 0
330 312 362 449 487 439 221 21 42 71 22 22 6 0 0 0 0 0 0 0 0 0 0 0 0 0 0 0 0 0 0 0 0 0 0 0 0 0 0 0 0 0 0
366 386 452 419 423 347 96 35 66 46 1 0 0 0 0 0 0 0 0 0 0 0 0 0 0 0 0 0 0 0 0 0 0 0 0 0 0 0 0 0 0 0 0
369 458 556 582 466 320 175 95 107 0 0 0 0 0 0 0 0 0 0 0 0 0 0 0 0 0 0 0 0 0 0 0 0 0 0 0 0 0 0 0 0 0 0
444 566 614 573 504 339 210 138 11 0 0 0 0 0 0 0 0 0 0 0 0 0 0 0 0 0 0 0 0 0 0 0 0 0 0 0 0 0 0 0 0 0 0
660 656 699 667 554 343 174 391 18 0 0 0 0 0 0 0 0 1 1 0 1 0 0 0 0 0 0 0 0 0 0 0 0 0 0 0 0 0 0 0 0 0 0

GFSSE_con_mucape_057.txt.gz
CAPE
785 1033 1072 1152 984 861 826 823 820 821 831 805 720 545 340 243 134 52 16 0 0 0 0 0 0 0 0 0 0 0 300 434 462 403 385 245 148 158 134 128 117 106 467
927 1047 1004 1052 995 925 963 913 928 945 834 376 350 344 279 164 73 39 74 59 5 0 0 0 0 0 0 0 0 0 84 508 498 518 289 182 99 109 85 4 203 0 1
1034 1107 1055 971 1039 988 999 979 1031 972 542 267 182 224 208 116 103 121 120 106 36 0 0 0 0 0 39 295 467 135 248 544 381 363 109 0 0 0 19 2 31 1 1
1168 1038 981 954 969 1008 975 1009 1040 942 500 301 199 157 118 69 48 53 79 122 48 0 0 0 0 0 0 64 286 492 350 36 18 0 0 0 0 19 0 0 0 0 0
1076 896 995 837 881 1016 1059 1020 1041 923 610 340 250 184 74 68 43 74 188 119 75 0 0 0 0 0 0 0 0 3 0 0 0 0 0 0 0 26 33 47 36 36 25
1059 993 835 659 831 978 1130 1113 944 744 454 325 251 223 128 61 80 121 201 154 91 0 0 0 0 0 0 0 0 0 0 0 0 0 0 1 0 22 0 1 22 30 47
1029 897 494 454 700 989 1112 1045 778 596 413 349 287 243 257 211 181 245 239 193 115 33 0 0 0 0 0 0 0 0 0 0 0 0 0 0 0 0 0 0 0 1 28
805 506 284 398 358 527 678 679 529 452 400 348 284 278 310 286 267 256 258 232 204 113 52 0 0 3 0 0 0 0 0 0 0 0 0 0 0 0 1 0 0 0 0
401 202 84 115 128 206 370 494 431 375 365 338 312 281 252 201 203 229 240 237 191 143 97 19 0 1 0 0 0 0 0 0 0 0 0 0 21 0 0 0 0 0 0
108 47 46 63 165 265 371 393 335 300 283 255 239 202 145 147 178 196 199 200 175 121 31 9 0 0 6 0 0 0 0 0 0 0 0 0 22 0 0 0 0 0 0
26 18 29 156 221 225 331 325 259 235 188 149 123 76 27 20 5 0 45 75 91 44 61 41 1 0 0 0 0 0 0 0 0 0 0 0 0 0 0 0 0 0 0
43 21 35 123 110 263 260 256 143 106 60 33 19 4 0 0 0 1 21 43 29 12 9 0 0 0 0 0 0 0 0 0 0 0 0 0 0 0 0 0 0 0 0
29 110 183 175 172 248 205 155 90 41 18 3 18 15 12 39 64 15 0 0 0 0 0 0 0 0 0 0 0 0 0 0 0 0 0 0 0 0 0 0 0 0 0
42 72 121 248 249 208 115 75 39 3 2 26 87 121 89 25 132 36 8 2 0 0 0 0 0 0 0 0 0 0 0 0 0 0 0 0 0 0 0 0 0 0 0
86 72 94 226 273 143 0 0 0 34 151 201 179 200 272 66 114 103 34 13 1 0 1 0 3 4 2 0 0 0 0 0 0 0 0 0 0 0 0 0 0 1 0
115 181 256 315 243 61 1 0 4 54 265 346 407 334 354 318 232 40 14 1 2 17 9 15 17 7 0 0 0 0 0 0 0 0 0 0 0 2 0 0 0 0 1
160 275 334 360 220 53 19 37 59 240 390 405 377 371 333 236 69 5 26 8 26 29 27 22 1 0 0 0 0 0 0 0 0 0 0 0 0 0 2 0 0 0 0
208 275 347 163 71 83 61 156 206 396 427 447 347 171 211 121 74 91 32 23 28 28 9 0 0 0 0 0 0 0 0 0 0 0 0 0 0 0 0 0 0 0 0
307 390 407 206 76 149 163 247 388 424 384 376 194 25 47 56 39 15 21 11 2 0 0 0 0 0 0 0 0 0 0 0 0 0 0 0 0 0 0 0 0 0 0
368 339 262 276 137 248 285 319 379 439 360 194 24 0 0 1 0 0 0 0 0 0 0 0 0 0 0 0 0 0 0 0 0 0 0 0 0 0 0 0 0 0 0
311 271 202 156 236 273 313 358 340 294 175 63 0 0 0 0 0 0 0 0 0 0 0 0 0 0 0 0 0 0 0 0 0 0 0 0 0 0 0 0 0 0 0
228 168 142 187 256 269 279 215 126 23 19 26 11 24 12 0 0 0 0 0 0 0 0 0 0 0 0 0 0 0 0 0 0 0 0 0 0 0 0 0 0 0 0
138 156 143 236 295 313 342 284 194 55 76 77 28 24 0 0 0 0 0 0 0 0 0 0 0 0 0 0 0 0 0 0 0 0 0 0 0 0 0 0 0 0 0
89 207 229 189 332 363 401 431 140 124 112 49 27 0 0 0 0 0 0 0 0 0 0 0 0 0 0 0 0 0 0 0 0 0 0 0 0 0 0 0 0 0 0
113 169 303 225 285 414 358 268 183 160 90 28 0 0 0 0 0 0 0 0 0 0 0 0 0 0 0 0 0 0 0 0 0 0 0 0 0 0 0 0 0 0 0
82 163 262 289 449 442 417 276 223 131 4 1 0 0 0 0 0 0 6 4 4 4 4 0 0 0 0 0 0 0 0 0 0 0 0 0 0 0 0 0 0 0 0

GFSSE_con_mucape_060.txt.gz
CAPE
960 825 913 1029 938 831 727 678 683 693 734 740 559 448 341 176 80 65 45 31 18 0 0 0 0 0 0 27 350 336 432 502 491 445 151 60 47 22 3 0 0 0 18
1099 918 920 1018 995 896 878 806 812 788 755 519 359 264 169 105 115 144 100 57 26 0 0 0 0 83 26 8 192 487 429 437 339 209 44 0 0 3 2 0 85 0 0
1175 999 986 952 1051 1017 1017 993 903 790 531 219 124 162 137 146 205 207 108 47 28 1 0 120 322 373 300 115 407 500 203 154 47 5 0 0 0 0 0 0 2 0 0
1179 1079 981 1014 1063 1098 1079 1036 860 599 391 287 211 121 147 194 225 165 109 60 56 44 0 40 125 328 350 541 456 191 0 0 0 0 0 0 0 0 0 1 1 1 1
1204 1070 993 991 1001 1115 1132 1010 825 547 400 279 201 129 135 234 221 110 181 77 81 41 0 0 0 20 116 126 120 125 8 0 0 0 0 0 0 1 0 0 1 3 5
1158 980 920 881 906 1115 1281 1122 820 513 347 286 242 237 174 256 194 226 225 143 132 68 0 0 0 0 1 0 0 0 0 0 0 0 0 0 0 4 2 0 0 1 5
1039 822 625 657 795 1238 1302 1054 700 525 389 331 307 275 289 331 294 316 262 204 131 131 19 0 3 22 8 0 0 0 0 0 0 0 0 0 0 2 1 0 0 0 1
1004 546 416 497 491 511 428 696 556 507 450 383 361 381 388 362 307 298 274 226 181 113 65 44 4 0 0 0 0 0 0 0 0 0 0 0 2 2 3 0 0 0 0
575 432 246 250 269 98 263 479 436 444 395 365 387 390 374 326 271 257 242 225 203 155 120 91 43 0 0 0 0 0 0 0 0 0 0 0 9 1 2 0 0 0 0
386 309 219 109 48 86 196 354 321 364 347 343 360 268 202 207 213 193 224 269 214 148 110 14 3 0 0 0 0 0 0 0 0 0 0 0 14 8 2 0 0 0 0
233 252 59 46 70 39 56 311 301 354 303 261 226 162 65 50 33 0 125 160 161 128 8 0 0 0 0 0 0 0 0 0 0 0 0 6 10 10 5 0 0 0 0
25 54 8 10 43 100 237 252 189 184 109 89 56 15 12 1 0 5 42 92 86 0 0 0 0 0 0 0 0 0 0 0 0 0 0 0 0 1 3 0 0 0 0
7 20 1 32 62 217 239 185 101 53 48 35 16 1 0 10 0 0 0 0 0 0 0 0 0 0 0 0 0 0 0 0 0 0 0 0 0 0 7 0 2 0 0
2 3 4 52 153 256 172 131 62 12 12 0 0 0 10 37 19 1 0 0 0 0 0 0 0 0 0 0 0 0 0 0 0 0 0 0 0 0 3 1 7 8 0
18 40 23 175 224 243 111 69 19 3 0 29 40 45 93 120 128 44 30 21 2 0 0 0 0 4 2 0 0 0 0 0 0 0 0 0 0 0 1 5 3 10 0
55 70 73 198 250 234 44 0 0 0 0 56 188 201 235 40 130 107 45 35 0 9 17 6 18 5 0 0 0 0 0 0 0 0 0 0 0 5 0 0 0 0 0
76 128 146 204 291 187 0 0 0 7 171 288 371 371 308 310 243 87 69 33 24 21 39 27 17 0 0 0 0 0 0 0 0 0 0 0 0 0 0 0 0 0 0
64 146 194 284 309 97 6 0 6 97 288 449 425 404 348 258 188 71 75 49 26 24 38 9 0 0 0 0 0 0 0 0 0 0 0 0 0 0 0 0 0 0 0
128 186 268 347 352 67 0 0 35 200 369 415 319 264 193 176 188 121 90 40 51 28 0 0 0 0 0 0 0 0 0 0 0 0 0 0 0 0 0 0 0 0 0
126 259 327 391 158 12 0 57 142 292 401 331 256 225 109 145 90 68 58 30 0 0 0 0 0 0 0 0 0 0 0 0 0 0 0 0 0 0 0 0 0 0 0
100 289 387 431 165 25 46 115 234 341 332 345 301 96 28 45 43 4 0 0 0 0 0 0 0 0 0 0 0 0 0 0 0 0 0 0 0 0 0 0 0 0 0
166 380 388 336 297 107 133 194 247 335 379 336 203 77 34 48 28 0 0 0 0 0 0 0 0 0 0 0 0 0 0 0 0 0 0 0 0 0 0 0 0 0 0
268 401 381 334 265 162 188 258 319 310 226 155 65 76 65 68 1 0 0 0 0 0 0 0 0 0 0 0 0 0 0 0 0 0 0 0 0 0 0 0 0 0 0
282 282 327 317 206 97 185 284 303 258 163 63 51 43 58 8 0 0 0 0 0 0 0 0 0 0 0 0 0 0 0 0 0 0 0 0 0 0 0 0 0 0 0
310 226 225 286 152 117 204 242 277 287 202 56 35 47 33 0 0 0 0 0 0 0 0 4 0 0 0 0 0 0 0 0 0 0 0 0 0 0 0 0 0 0 0
201 122 115 190 165 115 188 231 303 281 60 59 66 33 2 0 0 0 0 0 1 1 3 1 0 0 0 0 0 0 0 0 0 0 0 0 0 0 0 0 0 0 0

GFSSE_con_mucape_063.txt.gz
CAPE
872 689 976 1137 1046 912 837 812 812 858 891 851 677 398 189 97 57 82 64 77 65 39 5 12 59 334 404 249 313 341 367 367 259 216 29 0 0 0 0 0 0 0 1
955 720 908 1076 1026 937 910 874 874 858 802 641 446 204 116 109 117 137 107 63 142 35 30 84 73 98 358 295 289 288 208 225 96 6 0 0 0 0 0 0 0 0 0
959 697 895 980 1077 1037 1074 1039 1006 856 572 242 199 200 167 208 168 121 107 138 224 205 411 465 314 97 389 394 330 165 0 0 0 0 0 0 1 2 3 1 1 0 0
1041 826 884 950 1070 1128 1077 986 855 649 404 270 253 264 259 244 157 140 154 173 374 656 553 506 325 297 465 259 178 87 0 0 0 0 0 0 0 3 3 4 5 7 5
1171 915 943 946 1007 1071 1008 848 671 532 328 247 255 329 286 245 178 187 142 157 212 336 321 490 517 466 218 192 184 142 0 0 0 0 0 0 2 2 0 0 0 1 6
1233 937 753 794 976 1148 1090 842 599 392 242 197 260 332 312 266 246 202 155 120 156 245 97 315 220 20 72 66 64 1 0 0 0 0 0 0 6 8 0 0 0 2 3
1141 981 988 662 806 1268 1147 862 528 334 263 244 288 343 312 327 318 257 207 159 157 169 115 74 26 16 0 12 0 0 0 0 0 0 0 4 9 4 0 0 0 0 3
1077 737 701 540 737 524 674 589 378 326 313 314 328 381 367 367 322 266 215 191 147 82 56 77 40 19 0 0 0 0 0 0 0 0 0 5 6 3 1 0 0 0 1
686 429 274 264 230 224 368 289 260 321 309 364 387 407 342 301 287 225 175 170 176 142 67 25 4 0 0 0 0 0 0 0 0 0 0 11 13 6 1 0 0 0 0
650 321 231 117 96 4 147 208 242 272 286 278 273 253 198 220 222 243 182 184 200 204 140 16 7 0 0 0 0 0 0 0 0 0 0 9 17 19 4 0 0 0 0
355 252 141 99 49 39 170 179 274 262 239 191 198 158 111 120 78 45 119 184 85 19 0 0 0 0 0 0 0 0 0 0 0 0 0 10 1 4 5 0 0 0 0
305 211 142 68 25 1 146 189 252 225 162 142 108 76 62 94 120 51 81 88 2 0 0 0 0 0 0 0 0 0 0 0 0 0 0 0 0 2 1 0 1 0 0
214 85 30 39 19 43 126 236 165 121 109 83 56 42 53 95 141 70 37 0 0 0 0 0 0 0 0 0 0 0 0 0 0 0 0 0 0 0 5 1 4 3 0
16 4 0 4 2 218 226 163 83 38 40 48 40 43 108 86 116 48 3 0 0 0 0 0 2 0 0 0 0 0 0 0 0 0 0 0 0 0 10 4 6 1 0
23 9 0 2 129 207 165 142 65 40 24 52 44 63 164 111 106 11 17 9 0 0 1 11 5 0 0 0 0 0 0 0 0 0 0 0 0 0 6 5 4 9 0
3 12 2 74 241 232 178 93 29 17 13 11 61 96 206 160 152 49 28 21 19 4 22 16 0 4 0 0 0 0 0 0 0 0 0 0 0 0 0 0 0 0 0
13 3 1 168 318 245 98 40 8 1 14 8 52 142 188 149 202 89 51 68 45 14 19 10 1 0 0 0 0 0 0 0 0 0 0 0 0 0 0 0 0 0 0
28 73 91 183 268 285 98 2 5 28 165 267 325 234 241 208 97 82 65 47 56 41 21 27 2 0 0 0 0 0 0 0 0 0 0 0 0 0 0 0 0 0 0
124 147 211 306 292 287 98 6 56 156 216 314 366 338 304 165 101 75 66 55 46 50 14 0 0 0 0 0 0 0 0 0 0 0 0 0 0 0 0 0 0 0 0
160 188 311 359 323 320 29 2 57 73 196 354 333 284 190 97 78 62 62 52 38 22 0 0 0 0 0 0 0 0 0 0 0 0 0 0 0 0 0 0 0 0 0
156 186 256 283 364 365 18 0 0 75 230 350 288 197 139 82 38 62 43 9 0 0 0 0 0 0 0 0 0 0 0 0 0 0 0 0 0 0 0 0 0 0 0
86 184 261 348 419 159 51 18 21 116 217 278 216 161 80 26 33 33 2 0 0 0 0 0 0 0 0 0 0 0 0 0 0 0 0 0 0 0 0 0 0 0 0
100 162 187 396 481 378 105 36 76 151 232 280 216 130 56 18 4 17 0 0 0 0 0 0 0 0 0 0 0 0 0 0 0 0 0 0 0 0 0 0 0 0 0
168 151 164 331 467 511 352 182 148 161 221 293 193 53 40 7 12 20 0 0 0 0 0 0 0 1 2 0 2 0 0 0 0 0 0 0 0 0 0 0 0 0 0
206 161 184 373 384 332 287 290 167 222 252 187 104 37 11 8 34 0 0 0 0 0 0 0 2 0 1 1 0 1 0 0 0 0 0 0 0 0 8 14 5 1 0
227 174 204 317 304 367 284 234 158 228 187 186 127 34 7 54 28 0 0 0 0 0 3 4 6 1 7 3 2 0 0 0 0 0 0 0 0 0 0 10 14 2 0

GFSSE_con_mucape_066.txt.gz
CAPE
1298 749 1021 1274 1292 1272 1185 1081 1010 960 952 854 574 294 163 132 147 168 164 201 263 398 394 451 585 326 275 317 222 175 245 248 142 28 0 0 0 0 0 0 22 0 1
1238 782 962 1185 1268 1190 1153 1104 1051 991 915 647 332 158 137 154 170 158 185 239 260 174 200 438 445 273 214 114 119 61 0 69 6 58 0 0 0 3 2 0 0 3 4
1187 633 1029 981 1143 1152 1195 1187 1087 989 724 373 206 175 180 193 204 182 235 265 341 222 149 293 452 334 102 35 93 8 0 0 0 0 24 3 2 4 3 2 9 9 7
1115 586 626 939 1058 1121 1126 1059 933 772 422 244 247 255 228 218 211 283 371 655 853 791 301 310 543 210 31 100 128 41 0 0 0 3 6 6 0 1 0 0 3 4 20
1036 499 754 969 1071 1148 1089 918 766 482 247 238 311 318 220 238 280 322 476 720 1013 1032 725 563 495 61 121 210 212 133 0 0 0 7 7 14 9 0 0 0 4 2 3
1337 606 708 803 962 1105 977 841 598 337 229 255 324 280 265 282 298 259 289 397 802 1073 950 600 172 69 180 144 143 18 0 0 5 8 21 18 13 2 0 0 0 2 8
988 983 1036 783 886 1037 1018 772 440 320 272 295 285 243 305 291 270 235 244 321 366 697 475 124 42 82 120 72 2 0 0 0 0 4 12 20 19 3 0 0 0 1 3
325 865 1227 653 825 846 729 489 295 231 264 308 254 263 337 312 316 295 263 233 284 281 180 107 53 29 18 0 0 0 0 0 1 0 7 16 9 4 0 0 0 0 1
875 875 445 467 524 387 234 218 168 218 266 313 290 268 240 217 225 239 225 225 181 164 150 103 66 13 0 0 0 0 0 0 1 1 0 12 12 5 0 0 0 0 0
652 381 246 190 166 3 0 214 288 247 265 260 194 145 114 143 209 226 235 278 251 155 44 0 0 0 0 0 0 0 0 0 0 0 2 4 9 9 1 0 0 0 0
411 315 240 154 3 5 0 151 314 311 258 253 202 104 30 15 24 37 150 253 205 46 0 0 0 0 0 0 0 0 0 0 0 0 0 23 7 14 3 0 0 0 0
335 321 234 72 29 51 0 0 231 270 171 145 49 45 39 58 47 45 61 46 9 0 0 0 0 0 0 0 0 0 0 0 0 0 0 0 0 6 4 2 3 0 0
349 210 84 46 14 8 0 53 155 108 192 147 104 53 97 114 67 72 7 0 0 0 0 0 0 1 2 0 0 0 0 0 0 0 0 0 0 2 7 6 3 0 0
160 159 112 66 23 0 5 155 285 207 215 135 81 107 146 117 123 133 48 0 0 0 0 2 6 8 0 0 0 0 0 0 0 0 0 0 0 0 8 5 2 0 0
54 1 5 3 2 2 10 187 115 168 131 67 110 76 83 90 139 119 40 0 0 1 17 18 16 0 0 0 0 0 0 0 0 0 0 0 0 0 12 0 1 0 0
0 11 3 4 2 21 217 196 117 87 156 86 103 197 235 144 219 85 11 14 14 15 25 20 3 0 0 0 0 0 0 0 0 0 0 0 0 0 0 0 0 0 0
0 5 7 18 157 202 314 211 54 19 22 16 21 288 398 335 221 58 34 29 30 25 1 6 0 0 0 0 0 0 0 0 0 0 0 0 0 0 0 0 0 0 0
3 0 13 111 294 464 443 197 25 40 35 49 198 420 545 449 139 93 52 40 36 30 3 1 0 0 0 0 0 0 0 0 0 0 0 0 0 0 0 0 0 0 0
12 2 55 318 521 658 419 181 106 98 119 320 555 577 532 434 107 73 36 34 36 25 11 4 0 0 0 0 0 0 0 0 0 0 0 0 0 0 0 0 0 0 0
111 226 298 402 559 633 676 339 126 114 175 607 704 611 351 232 87 42 38 24 35 4 5 1 0 0 0 0 0 0 0 0 0 0 0 0 0 0 0 0 0 0 0
207 269 339 422 606 811 715 259 118 202 406 649 631 632 355 155 44 49 21 28 7 0 0 0 0 0 0 0 0 0 0 0 0 0 0 0 0 0 0 0 0 0 0
463 502 470 606 912 938 560 234 85 158 269 528 502 386 173 75 72 30 10 6 0 0 0 0 0 0 0 0 0 0 0 0 0 0 0 0 0 0 0 0 0 0 0
399 497 596 827 855 880 488 254 219 423 457 478 291 237 116 126 53 14 22 12 0 0 0 0 0 0 0 0 1 0 0 1 0 0 0 0 0 0 0 0 0 0 0
460 389 655 834 874 845 604 364 227 286 389 485 445 298 136 81 42 17 18 6 3 0 0 0 0 0 0 4 0 4 2 3 0 0 0 0 0 0 0 0 0 0 0
558 604 498 635 817 930 911 674 535 500 619 658 369 155 98 65 37 2 23 22 5 0 0 0 0 2 0 0 0 0 0 0 0 0 0 0 0 0 0 1 1 2 4
1032 964 818 642 652 868 999 915 880 857 866 382 185 37 49 51 51 20 34 43 0 0 0 0 4 4 4 5 0 0 0 0 0 0 0 0 0 0 0 2 5 7 11

GFSSE_con_mucape_069.txt.gz
CAPE
1041 987 1353 1687 1573 1458 1319 1224 1087 963 1004 929 707 487 350 323 318 312 353 391 688 913 572 385 407 276 119 136 103 77 172 124 0 0 0 2 1 0 0 30 13 1 4
1102 1026 1290 1638 1595 1498 1403 1264 1151 1107 1024 790 517 332 269 254 250 334 408 690 898 926 524 371 295 103 44 49 0 0 0 66 98 171 132 0 3 6 7 9 12 6 8
1420 1071 1590 1478 1576 1535 1468 1373 1300 1186 919 620 398 327 294 256 328 440 472 604 726 917 520 307 75 0 0 0 69 0 0 0 0 226 168 1 1 3 4 3 85 19 11
1370 1132 1640 1324 1457 1476 1360 1305 1214 995 668 450 409 364 356 327 473 534 599 568 622 837 554 288 29 0 9 71 47 0 0 0 9 63 28 10 0 0 2 4 0 1 18
1179 886 1567 1220 1245 1344 1259 1168 952 660 439 398 405 466 415 531 646 967 1063 1019 841 868 729 163 30 42 99 207 135 52 0 6 38 13 6 3 0 0 0 0 2 0 1
1058 899 888 998 1098 1197 1117 980 629 457 396 399 381 441 593 638 868 938 1072 1071 1006 1026 713 89 82 112 187 133 53 0 0 4 25 18 23 3 0 0 0 1 4 6 7
800 938 1072 897 1048 1113 1067 702 424 428 462 419 393 468 519 477 523 555 757 1040 1039 996 320 113 120 68 109 44 0 0 0 0 3 19 12 3 2 0 0 0 1 2 4
420 669 908 828 963 922 694 380 318 390 408 349 420 418 406 348 349 388 441 584 475 348 291 234 175 57 9 0 0 0 0 0 3 7 17 1 1 0 0 0 0 1 2
572 654 353 603 541 283 156 168 179 294 305 324 365 317 278 264 248 272 302 335 290 231 221 153 81 16 0 0 0 0 0 0 2 5 11 2 0 0 0 0 0 1 1
527 312 92 96 134 57 82 124 183 225 204 220 212 187 192 187 211 224 217 240 237 206 149 30 32 0 0 0 0 0 0 0 0 5 1 2 6 5 0 0 0 0 0
388 408 153 145 92 10 1 169 227 238 159 156 139 124 75 48 22 56 182 194 188 122 78 8 0 0 0 0 0 0 0 0 0 0 0 9 13 14 4 0 0 0 0
447 300 167 145 156 8 0 11 157 196 125 121 90 98 67 147 106 72 115 100 70 8 0 0 0 0 0 0 0 0 0 0 0 0 0 0 5 12 2 1 0 0 0
328 313 209 173 69 1 9 3 7 82 68 186 211 179 169 229 238 137 55 3 0 0 0 0 0 0 0 0 0 0 0 0 0 0 0 0 0 5 3 2 0 0 0
235 170 135 147 89 2 2 0 55 49 96 204 215 342 410 329 269 119 42 19 0 0 0 0 0 0 0 0 0 0 0 0 0 0 0 0 0 0 10 9 0 0 0
40 24 97 41 30 32 6 4 0 117 144 216 267 372 350 365 496 207 172 38 2 0 0 0 0 0 0 0 0 0 0 0 0 0 0 0 0 0 7 0 0 0 0
14 39 7 6 5 12 9 3 2 98 87 164 241 267 508 413 475 287 204 63 3 0 1 0 1 0 0 0 0 0 0 0 0 0 0 0 0 0 0 0 0 0 0
10 2 0 2 2 1 14 95 195 205 174 104 114 405 324 338 354 288 155 43 20 15 11 0 10 0 0 0 0 0 0 0 0 0 0 0 0 0 0 0 0 0 0
0 2 1 0 0 58 120 186 252 145 172 143 178 260 359 469 473 296 59 40 34 22 27 13 0 0 0 0 0 0 0 0 0 0 0 0 0 0 0 0 0 0 0
20 0 0 4 61 239 308 331 193 297 71 27 163 420 662 702 478 284 119 71 15 31 18 5 0 0 0 0 0 0 0 0 0 0 0 0 0 0 0 0 0 0 0
15 4 50 201 287 457 589 284 100 107 100 141 379 535 710 722 452 274 183 31 8 3 0 0 0 0 0 0 0 0 0 0 0 0 0 0 0 0 0 0 0 0 0
16 0 66 265 376 487 424 280 89 39 75 191 515 600 686 604 455 384 132 0 13 0 0 0 0 0 0 0 0 0 0 0 0 0 0 0 0 0 0 0 0 0 0
90 213 249 274 459 513 396 219 49 40 54 173 728 704 698 540 383 253 78 0 6 0 2 0 0 0 0 0 0 0 0 0 0 0 0 0 0 0 0 0 0 0 0
242 321 319 370 367 533 468 286 102 84 103 232 666 597 542 468 394 258 57 7 1 13 0 0 0 0 0 0 0 0 0 0 0 0 0 0 0 0 0 0 0 0 0
547 545 588 543 514 705 693 401 208 123 150 325 538 484 508 341 224 29 68 34 3 9 3 0 0 0 0 0 1 0 0 0 0 0 0 0 0 0 0 0 0 3 2
561 642 739 654 756 752 985 683 434 312 333 472 723 676 593 174 56 66 50 12 3 14 6 1 0 0 0 5 0 0 2 1 0 0 0 0 0 0 0 0 1 1 0
1188 1064 700 723 857 882 990 1036 885 678 623 529 932 689 520 117 14 53 11 5 42 21 37 13 0 0 5 13 0 7 5 0 0 0 0 0 0 0 0 0 0 0 0

GFSSE_con_mucape_072.txt.gz
CAPE
1254 1341 1781 1738 1626 1400 1232 1142 1057 992 1023 925 777 702 681 697 714 650 716 799 928 819 416 181 159 0 0 0 0 12 91 73 75 88 9 8 4 5 1 39 14 4 13
985 1634 1716 1704 1670 1494 1333 1232 1158 1183 1088 908 719 627 581 579 579 629 884 970 891 787 271 33 0 0 0 0 0 18 146 173 129 101 0 4 14 16 35 29 36 14 16
62 1735 1896 1646 1662 1590 1500 1401 1412 1313 1090 838 678 566 539 587 624 880 982 943 814 502 95 0 0 0 0 0 7 44 32 78 116 159 6 0 0 14 7 9 36 23 17
803 1730 2029 1709 1636 1613 1471 1441 1402 1221 913 705 605 514 523 674 757 926 903 939 861 552 9 0 0 0 0 12 47 35 36 56 83 78 0 0 0 2 7 4 4 12 21
999 1575 1881 1551 1481 1469 1512 1384 1160 888 646 560 468 513 704 773 844 901 784 863 902 572 76 32 30 9 18 77 47 8 17 46 34 0 0 0 0 1 4 6 5 8 12
873 1460 1414 1365 1345 1434 1463 1217 927 676 537 479 453 667 842 1114 1253 1246 909 934 983 415 102 73 55 35 80 0 0 0 20 52 27 0 0 0 0 0 2 3 6 7 9
642 992 1119 1141 1229 1317 1238 995 698 602 532 498 574 751 1082 1223 1304 1221 1058 955 671 336 220 113 59 39 35 0 0 0 1 7 1 0 0 0 0 0 0 0 2 6 9
460 430 344 748 812 672 752 588 535 539 488 505 601 607 702 764 958 1062 985 750 363 339 321 230 154 48 8 0 0 0 0 3 5 0 0 0 0 0 0 1 2 2 4
331 71 112 63 234 332 437 279 349 371 419 441 401 326 316 368 513 566 460 381 332 307 255 174 80 18 6 0 0 0 0 0 0 0 0 0 0 0 0 0 1 1 4
435 182 0 39 82 80 128 180 192 243 243 216 177 138 147 179 269 280 245 249 232 210 159 84 46 16 0 0 0 0 0 0 0 0 0 0 6 0 0 0 1 1 9
370 173 24 19 17 7 28 143 187 198 135 127 111 85 75 84 92 115 202 207 191 161 105 52 15 0 0 0 0 0 0 0 0 0 0 6 8 6 0 0 0 0 4
79 112 41 2 16 1 0 30 188 169 92 101 58 57 32 65 100 121 159 142 134 94 66 23 0 0 0 0 0 0 0 0 0 0 0 0 15 10 4 0 0 0 0
265 186 85 56 27 4 16 1 2 14 86 98 115 86 161 124 126 59 18 2 0 0 0 0 0 0 0 0 0 0 0 0 0 0 0 0 1 12 7 1 0 0 0
176 164 139 124 25 24 15 3 12 19 86 72 127 182 287 229 189 71 32 6 0 0 0 0 0 0 0 0 0 0 0 0 0 0 0 0 0 7 5 2 0 0 0
38 54 51 101 103 18 6 2 1 57 64 96 128 217 254 270 229 162 85 12 0 0 0 0 0 0 0 0 0 0 0 0 0 0 0 0 0 0 1 1 3 0 0
8 16 32 5 17 34 6 5 6 10 92 125 182 185 319 356 291 262 199 81 0 0 0 0 0 0 0 0 0 0 0 0 0 0 0 0 0 0 0 0 0 0 0
9 5 15 3 5 5 16 14 15 5 67 84 123 217 280 298 334 365 318 187 3 0 0 0 0 0 0 0 0 0 0 0 0 0 0 0 0 0 0 0 0 0 0
1 1 11 1 0 0 0 0 1 48 77 115 180 198 347 370 378 359 241 97 3 0 0 0 0 0 0 0 0 0 0 0 0 0 0 0 0 0 0 0 0 0 0
7 1 0 0 0 0 0 0 20 82 95 165 138 218 297 365 387 279 102 4 10 5 0 0 1 0 0 0 0 0 0 0 0 0 0 0 0 0 0 0 0 0 0
0 0 0 0 0 0 0 73 111 126 63 69 286 351 432 489 431 332 93 27 19 0 0 5 0 0 0 0 0 0 0 0 0 0 0 0 0 0 0 0 0 0 0
0 0 0 0 0 15 69 44 66 72 31 59 138 337 433 482 459 290 271 125 20 0 7 8 4 0 0 0 0 0 0 0 0 0 0 0 0 0 0 0 0 0 0
0 0 0 0 117 229 218 130 22 0 0 0 134 418 494 531 480 359 344 53 24 0 0 0 4 0 2 0 0 0 0 0 0 0 0 0 0 0 0 0 0 0 0
0 0 0 111 324 325 291 193 56 10 19 10 493 531 494 521 504 308 241 55 21 6 0 2 3 2 3 0 0 0 0 0 0 0 0 0 0 0 0 0 0 0 0
0 4 118 202 380 391 345 149 53 23 18 52 463 556 498 444 439 316 226 127 21 51 32 5 10 23 5 0 0 0 1 7 0 0 0 0 0 0 0 0 0 0 0
147 222 307 309 311 227 365 422 176 84 30 44 189 476 408 322 573 361 179 60 43 21 5 7 6 16 15 0 0 0 1 4 0 0 0 0 0 0 0 0 0 0 0
328 448 656 582 449 461 570 361 594 207 296 324 656 506 421 274 211 257 57 35 44 3 4 22 4 33 8 0 0 0 6 8 0 0 0 0 0 0 0 0 0 0 0

GFSSE_con_mucape_075.txt.gz
CAPE
753 1091 1636 1816 1698 1490 1371 1286 1169 1089 1060 1091 1066 1026 969 939 949 888 1036 878 809 371 19 0 15 0 0 0 0 33 52 44 23 7 7 8 24 27 15 7 12 3 13
736 513 762 1759 1723 1536 1473 1294 1227 1126 1124 1127 1070 1002 926 923 953 1134 1024 896 634 154 0 0 0 0 0 0 17 130 105 20 9 0 1 12 17 32 35 25 41 19 20
363 25 421 1447 1758 1669 1568 1513 1335 1232 1182 1129 1000 948 904 977 1171 1073 979 689 365 141 0 0 0 0 0 0 66 64 72 47 24 0 0 0 2 14 15 15 22 15 19
138 93 676 952 1387 1642 1526 1456 1301 1247 1101 973 929 933 980 1145 1201 1095 819 429 258 154 0 0 0 0 0 0 16 33 43 3 0 0 0 0 0 9 10 9 14 21 31
2 18 36 881 1212 1502 1454 1321 1109 1013 881 811 847 983 1142 1261 1250 1168 713 266 286 210 0 0 0 0 0 0 7 22 13 0 0 0 0 0 0 5 8 6 8 13 27
5 387 299 881 1112 1466 1518 1314 1008 862 723 709 858 1023 1211 1233 1204 1156 715 338 344 231 0 0 0 0 0 0 0 0 0 0 0 0 0 0 0 3 6 8 9 12 14
489 469 525 333 1052 1418 1488 1054 795 673 585 708 861 996 1176 1204 1091 1099 599 334 285 235 27 0 0 0 0 0 0 0 0 0 0 0 0 0 0 2 4 3 6 9 11
500 504 290 237 599 807 893 617 498 516 535 687 1018 1183 1280 1228 1036 1013 440 333 303 233 162 63 35 4 0 0 0 0 0 0 0 0 0 0 0 1 3 3 5 13 14
248 136 45 94 18 303 357 224 263 387 472 530 662 834 952 939 903 665 415 417 356 230 138 65 25 7 0 0 0 0 0 0 0 0 0 0 0 0 2 2 6 13 13
90 11 4 46 67 13 150 160 181 209 206 173 339 508 618 603 474 334 291 281 251 198 125 48 16 0 0 0 0 0 0 0 0 0 0 0 0 1 1 1 5 9 10
126 87 81 42 0 27 26 107 126 136 66 53 188 398 336 320 306 233 176 220 217 155 102 54 10 0 0 0 0 0 0 0 0 0 0 0 2 1 0 0 3 5 9
142 127 31 22 2 0 2 90 133 86 11 11 24 141 154 177 134 99 142 182 182 130 86 42 0 0 0 0 0 0 0 0 0 0 0 0 3 2 0 0 0 0 0
194 54 62 37 38 1 0 9 60 41 2 4 0 0 16 29 43 49 52 59 39 25 1 1 0 0 0 0 0 0 0 0 0 0 0 0 0 4 2 1 0 0 0
216 141 83 22 88 4 18 10 2 0 0 33 3 10 28 17 7 22 2 0 0 3 0 0 0 0 0 0 0 0 0 0 0 0 0 0 1 6 8 3 0 0 0
73 42 21 12 59 11 3 0 1 4 1 20 49 65 82 62 33 23 2 2 0 0 0 0 0 0 0 0 0 0 0 0 0 0 0 0 0 8 7 5 0 0 0
8 41 13 28 13 10 13 0 0 11 3 34 89 121 152 109 61 79 21 5 0 0 0 0 0 0 0 0 0 0 0 0 0 0 0 0 0 1 0 0 0 0 0
15 34 22 54 24 6 20 21 5 3 22 37 89 145 171 203 90 97 30 20 5 0 0 0 0 0 0 0 0 0 0 0 0 0 0 0 0 0 0 0 0 0 0
6 12 3 5 6 5 3 13 6 4 0 2 59 115 153 189 132 173 106 63 20 0 0 0 0 0 0 0 0 0 0 0 0 0 0 0 0 0 0 0 0 0 0
4 3 0 0 6 16 21 15 17 8 6 3 24 68 82 109 144 177 153 64 5 0 0 5 0 0 0 0 0 0 0 0 0 0 0 0 0 0 0 0 0 0 0
0 3 5 0 0 0 0 0 0 0 21 0 12 1 18 26 128 223 149 81 2 0 8 3 6 7 0 0 0 0 0 0 0 0 0 0 0 0 0 0 0 0 0
0 0 0 0 0 0 0 0 0 7 0 0 0 0 55 226 224 214 156 69 31 10 13 0 7 5 0 0 0 0 0 0 0 0 0 0 0 0 0 0 0 0 0
0 0 0 0 0 0 0 0 0 0 0 0 0 98 137 222 342 267 192 113 73 25 5 0 0 0 0 0 0 0 0 0 0 0 0 0 0 0 0 0 0 0 0
0 0 0 0 0 0 0 0 0 0 0 0 3 110 163 220 372 364 239 169 164 57 21 0 1 0 0 0 0 0 0 0 0 0 0 0 0 0 0 0 0 0 0
0 0 0 0 0 0 0 0 0 0 0 0 0 28 192 268 338 318 303 239 158 75 3 0 3 26 19 7 5 0 0 0 0 0 0 0 0 0 0 0 0 0 0
0 0 0 0 11 13 28 29 20 14 0 0 66 163 207 260 349 415 345 210 162 68 4 12 34 8 11 4 0 8 2 0 0 0 0 0 0 0 0 0 0 0 0
0 0 0 22 31 44 63 61 113 28 3 0 76 261 285 294 380 406 254 255 191 91 33 27 8 28 8 4 0 2 0 2 0 0 0 0 0 0 0 0 0 0 0

GFSSE_con_mucape_078.txt.gz
CAPE
1681 1454 1678 1858 1814 1636 1434 1312 1287 1260 1257 1327 1331 1249 1091 1058 955 852 642 543 436 193 0 14 164 102 4 5 2 21 34 27 23 28 28 21 22 25 17 11 15 3 11
1538 1245 1607 1864 1784 1632 1524 1351 1323 1320 1378 1284 1243 1119 1081 1127 983 951 566 458 253 46 1 3 5 5 7 10 37 1 0 0 1 8 12 15 17 24 23 21 17 19 18
1146 1026 1400 1785 1743 1712 1603 1535 1466 1495 1429 1266 1232 1173 1332 1277 1222 855 498 349 161 67 0 1 3 5 22 38 42 8 0 0 0 0 0 0 2 16 18 14 16 25 40
925 700 1055 1139 1058 1472 1624 1481 1471 1526 1334 1160 1175 1225 1363 1372 1148 689 499 238 101 84 0 0 0 0 0 6 0 0 0 0 0 0 0 0 0 12 19 20 21 47 51
649 283 1020 759 445 1247 1758 1517 1435 1271 1096 1030 1078 1386 1440 1306 977 619 422 215 151 74 0 0 0 0 0 0 0 0 0 0 0 0 0 0 0 9 10 12 19 21 26
490 159 822 885 904 1254 1694 1481 1256 1020 835 797 922 1308 1456 1255 853 620 415 306 198 50 0 0 0 0 0 0 0 0 0 0 0 0 0 0 0 9 11 17 13 13 14
446 245 385 559 793 1078 1596 1353 1004 779 725 749 996 1235 1409 1185 734 588 423 310 142 45 0 0 0 0 0 0 0 0 0 0 0 0 0 0 0 7 11 16 16 16 17
384 209 53 192 254 549 1057 880 620 537 694 714 949 1052 1197 1017 601 530 411 301 152 76 0 0 0 0 0 0 12 0 0 0 0 0 0 0 2 6 11 15 16 12 14
342 142 58 58 14 12 716 416 288 405 568 626 782 805 882 686 409 409 372 309 136 50 0 0 0 0 0 0 0 0 0 0 0 0 0 0 2 4 8 13 13 13 9
142 117 114 13 23 0 51 187 328 471 656 688 808 783 741 323 262 282 228 144 78 54 30 18 0 0 0 0 0 0 0 0 0 0 0 0 2 3 7 7 7 8 8
103 81 26 0 0 21 26 102 115 284 371 363 503 629 553 160 71 18 53 76 65 53 44 23 0 0 0 0 0 0 0 0 0 0 0 0 0 2 4 5 8 10 9
166 99 51 12 0 0 21 34 74 216 307 262 264 194 232 191 1 11 36 70 63 56 44 21 0 0 0 0 0 0 0 0 0 0 0 2 0 1 2 1 1 7 10
127 75 9 0 0 0 0 0 72 192 263 265 301 184 214 171 2 0 16 12 5 10 0 0 0 0 0 0 0 0 0 0 0 0 0 0 4 2 2 1 0 0 0
141 106 5 0 4 0 0 2 11 77 167 247 236 185 194 80 0 0 0 0 4 0 0 0 0 0 0 0 0 0 0 0 0 0 0 0 6 2 2 0 0 0 0
113 60 16 4 2 3 1 0 0 0 8 15 36 63 48 4 0 0 0 0 0 0 0 0 0 0 0 0 0 0 0 0 0 0 0 0 0 4 4 2 0 0 0
48 31 7 29 51 19 4 1 0 0 0 0 33 8 7 1 0 0 0 0 0 2 0 0 0 0 0 0 0 0 0 0 0 0 0 0 0 6 0 0 0 0 0
14 41 12 24 13 13 1 9 0 0 10 37 45 35 9 8 13 0 0 0 0 0 0 0 0 0 0 0 0 0 0 0 0 0 0 0 0 0 0 0 0 0 0
21 29 20 6 35 5 6 5 5 8 6 43 76 91 59 24 41 1 0 0 0 0 0 0 0 0 0 0 0 0 0 0 0 0 0 0 0 0 0 0 0 0 0
21 36 12 9 13 4 2 13 6 28 57 33 65 98 133 107 78 60 31 2 0 0 0 0 0 0 0 0 0 0 0 0 0 0 0 0 0 0 0 0 0 0 0
13 12 1 4 21 15 17 37 6 9 11 7 10 72 87 97 109 143 140 59 8 6 0 0 0 0 0 0 0 0 0 0 0 0 0 0 0 0 0 0 0 0 0
0 5 3 2 3 3 9 2 12 9 1 0 0 2 12 0 64 79 89 38 32 15 0 0 0 0 0 0 0 0 0 0 0 0 0 0 0 0 0 0 0 0 0
0 0 0 4 9 7 7 0 0 0 0 0 0 0 0 7 29 67 27 33 38 41 4 0 0 0 0 1 0 0 0 0 0 0 0 0 0 0 0 0 0 0 0
0 0 0 0 0 0 0 0 0 0 0 0 0 0 0 1 42 44 35 57 74 48 35 16 0 0 8 14 7 8 0 0 0 0 0 0 0 0 0 0 0 0 0
0 0 0 0 0 0 0 0 0 0 0 0 0 0 0 0 18 76 73 108 123 98 64 46 28 15 12 14 5 7 4 1 2 0 0 0 0 0 0 1 0 0 0
0 0 0 0 0 0 0 0 0 0 0 0 0 0 3 37 53 79 113 164 128 134 154 119 55 31 25 28 0 1 15 0 0 0 0 0 0 0 1 0 0 0 0
0 0 0 0 0 0 0 0 0 0 0 0 1 0 0 42 88 109 123 153 230 167 150 106 70 22 27 24 5 21 1 3 0 0 0 0 0 0 0 0 0 0 0

GFSSE_con_mucape_081.txt.gz
CAPE
1451 1654 1867 1945 1783 1584 1549 1548 1439 1197 1152 1209 1187 1204 1244 1199 1112 932 756 484 226 237 48 18 73 8 6 8 12 10 7 26 43 27 20 20 20 22 16 12 16 11 23
1481 1690 1920 1923 1851 1689 1588 1595 1514 1269 1339 1308 1243 1334 1227 1110 987 842 510 259 391 338 29 28 15 9 4 0 2 3 2 6 20 27 25 30 23 14 8 13 29 7 19
1653 1562 1817 1753 1865 1816 1783 1682 1695 1754 1682 1592 1467 1321 1228 1042 900 668 325 375 498 415 60 36 26 18 10 11 0 0 1 3 12 3 2 1 9 27 31 62 126 62 44
1891 1447 1783 1660 1740 1776 1712 1684 1747 1796 1733 1576 1545 1411 1324 1001 858 566 371 334 521 519 93 60 34 9 2 15 0 0 0 0 0 0 0 0 7 20 43 48 44 51 54
1185 1124 1522 1481 1365 1373 1415 1634 1654 1616 1512 1493 1450 1527 1236 966 802 544 311 316 517 493 31 5 0 0 0 0 0 0 0 0 0 0 0 0 0 16 27 15 14 30 30
949 792 1096 989 882 827 952 1363 1548 1494 1302 1345 1382 1501 1196 929 704 462 299 251 465 381 2 0 0 0 0 0 0 0 0 0 0 0 0 0 0 17 19 15 14 14 13
534 534 578 848 468 812 1100 1497 1335 1247 1173 1286 1361 1327 1027 827 665 455 250 187 213 56 0 0 0 7 0 0 0 0 0 0 0 0 0 0 0 14 18 15 17 17 17
182 172 271 449 537 698 1137 1001 958 913 1015 1193 1262 1181 822 683 541 420 259 154 28 0 0 0 0 0 0 0 0 0 0 0 0 0 0 0 5 13 18 17 15 14 15
347 179 195 136 145 122 342 341 479 583 880 1104 1108 837 543 435 398 360 203 70 0 0 0 0 0 0 0 0 0 0 0 0 0 0 0 0 8 11 11 12 10 13 14
264 43 1 16 57 56 81 192 178 359 767 899 868 595 318 280 281 195 16 0 0 0 0 0 0 0 1 0 0 0 0 0 0 0 0 0 7 8 11 14 9 9 8
130 72 46 21 36 44 21 1 82 362 576 696 630 405 222 139 40 0 0 0 0 0 0 0 0 1 8 0 0 0 0 0 0 0 0 5 5 7 10 8 7 7 5
139 82 51 46 9 21 1 2 40 119 417 418 366 230 99 53 0 0 0 0 0 0 0 0 0 0 0 0 0 0 0 0 0 0 0 5 1 3 3 5 5 4 1
106 66 63 37 0 0 4 27 18 33 74 292 326 212 72 10 0 0 0 0 0 0 0 0 0 0 0 0 0 0 0 0 0 0 0 4 1 0 1 0 0 0 0
101 49 75 25 23 18 0 8 6 97 162 186 284 206 85 5 0 0 0 0 0 0 0 0 0 0 0 0 0 0 0 0 0 0 0 4 6 1 2 1 0 0 0
61 87 39 35 60 10 5 1 7 12 70 142 194 224 201 15 0 0 0 0 0 0 0 3 0 0 0 0 0 0 0 0 0 0 0 0 1 3 2 2 0 0 0
28 14 15 36 18 1 1 3 0 0 90 163 182 192 193 6 0 0 0 0 0 0 5 7 3 0 0 0 0 0 0 0 0 0 0 0 0 3 7 2 2 0 0
15 41 81 28 11 9 6 18 15 1 9 38 69 145 147 8 0 0 0 0 0 7 9 10 2 0 0 0 0 0 0 0 0 0 0 0 0 0 5 0 0 0 0
12 57 22 29 40 12 17 38 17 5 25 32 44 84 76 8 0 0 0 0 0 4 7 13 0 0 0 0 0 0 0 0 0 0 0 0 0 0 0 0 0 0 0
13 32 26 28 50 51 20 28 15 5 17 31 25 21 17 0 0 0 0 0 0 1 6 4 0 0 0 0 0 0 0 0 0 0 0 0 0 0 0 0 0 0 0
1 10 1 3 4 16 16 4 10 13 50 53 26 17 3 1 7 0 0 0 0 0 0 0 0 0 0 0 0 0 0 0 0 0 0 0 0 0 0 0 0 0 0
18 0 16 12 11 5 3 6 18 14 13 40 74 93 70 29 44 30 29 34 0 0 7 0 0 0 7 0 0 0 0 0 0 0 0 0 0 0 0 0 0 0 0
0 6 0 0 16 4 2 12 8 14 22 22 41 21 29 60 110 79 104 129 81 76 64 28 20 16 3 0 0 0 0 0 0 0 0 0 0 0 0 0 0 0 0
2 0 0 0 0 4 5 5 11 6 8 4 2 0 0 1 18 32 73 98 114 131 113 82 52 40 27 1 3 1 0 0 1 3 3 1 0 0 0 0 0 0 0
0 0 0 0 1 1 1 0 1 1 0 0 0 0 0 0 0 0 36 57 79 102 96 107 98 77 65 25 18 21 21 20 0 0 0 2 5 3 0 0 0 0 0
0 0 0 0 0 0 2 0 0 0 0 0 0 0 0 0 0 0 44 55 82 67 71 111 106 109 77 44 32 28 31 17 18 5 12 0 0 3 0 0 0 3 4
0 0 0 0 0 0 0 0 0 0 0 0 0 0 0 0 0 0 22 77 104 118 137 171 169 105 91 66 54 44 34 30 19 26 0 0 0 7 5 4 15 0 1

GFSSE_con_mucape_084.txt.gz
CAPE
1189 1548 1692 1804 1769 1725 1547 1647 1751 1737 1701 1716 1603 1563 1462 1390 1282 1143 1003 782 627 516 93 13 11 10 12 21 23 22 37 33 26 37 24 18 20 22 11 11 24 13 35
1595 1650 1615 1799 1797 1700 1696 1676 1788 1891 1904 1793 1626 1583 1477 1356 1184 942 666 530 469 356 9 8 8 5 6 8 10 7 6 12 27 43 39 41 29 20 19 43 18 13 35
1662 1783 1627 1676 1864 1808 1856 1821 1851 1941 1901 1793 1699 1579 1506 1342 1073 707 710 657 650 500 35 11 5 2 3 5 6 3 0 0 12 13 8 4 20 75 75 84 81 58 46
1604 1751 1591 1681 1833 1983 1902 1793 1777 1877 1808 1704 1623 1492 1368 1205 816 858 795 594 588 598 62 55 68 15 0 2 3 6 4 0 0 0 0 0 19 55 47 48 41 40 42
1577 1607 1615 1668 1737 1910 1804 1937 1729 1645 1530 1484 1391 1377 1247 970 779 887 697 564 612 647 260 120 51 8 0 2 4 2 1 0 0 0 0 1 2 6 14 22 22 21 13
1256 1037 1299 1478 1679 1883 1915 1893 1790 1594 1368 1247 1216 1152 1120 908 827 771 648 579 623 430 9 18 15 0 0 0 3 0 0 0 0 0 0 1 1 24 18 17 16 16 21
694 630 408 788 1019 1587 1868 1853 1634 1472 1248 1250 1140 1033 966 813 661 663 524 462 266 90 13 17 1 0 0 0 0 0 0 0 0 0 0 0 4 16 22 19 17 18 17
425 299 245 366 611 669 1176 1511 1273 1278 1168 1199 921 830 766 539 467 430 432 226 38 0 167 151 2 0 0 0 0 0 0 0 0 0 0 0 18 16 19 15 13 11 11
176 105 81 209 310 376 335 547 1034 1096 1044 1082 718 512 413 332 283 298 183 30 1 0 82 9 0 0 0 0 0 0 0 0 0 0 0 1 11 11 12 11 7 8 7
188 121 76 64 94 173 91 205 447 796 897 903 465 291 190 205 175 120 0 0 0 0 1 6 0 0 0 0 0 0 0 0 0 0 0 5 14 10 8 7 6 6 5
314 80 60 11 2 60 67 57 145 254 528 462 356 203 149 97 33 0 0 0 0 0 0 1 0 0 0 0 0 0 0 0 0 0 0 15 12 8 7 3 3 4 5
160 46 54 10 7 17 22 50 25 20 101 234 260 142 72 56 0 0 0 0 0 0 1 14 3 0 0 0 0 0 0 0 0 0 0 14 9 6 6 5 5 5 2
84 150 9 15 19 0 2 48 47 41 51 178 194 85 38 11 0 0 0 0 0 0 0 0 0 0 0 0 0 0 0 0 0 0 1 10 7 7 8 8 6 2 0
37 38 14 7 36 13 0 4 28 26 27 107 100 88 19 0 0 0 0 0 0 0 3 2 0 0 0 0 0 0 0 0 0 0 0 7 10 3 4 4 4 0 0
47 23 12 24 7 14 3 12 1 29 65 75 143 90 35 0 0 0 0 0 0 0 6 4 0 0 0 0 0 0 0 0 0 0 0 1 10 9 4 4 1 0 0
39 25 36 20 20 5 15 38 15 32 31 68 127 124 40 6 0 0 0 0 7 3 11 4 0 0 0 0 0 0 0 0 0 0 0 0 0 13 9 5 1 0 0
22 34 36 27 23 8 20 10 16 37 13 69 92 116 57 23 12 0 13 9 8 23 25 10 12 6 1 0 0 0 0 0 0 0 0 0 0 1 6 11 4 0 0
7 33 14 22 3 16 24 8 2 1 4 30 71 100 97 41 7 1 10 17 27 33 27 25 18 17 4 0 0 0 0 0 0 0 0 0 0 0 2 0 0 0 0
7 12 16 8 7 7 7 13 14 8 9 55 74 76 88 33 28 10 1 3 21 25 25 25 20 12 8 0 0 0 0 0 0 0 0 0 0 0 0 0 0 0 0
16 27 11 14 5 4 20 6 10 16 27 47 37 62 93 62 13 0 2 1 3 5 1 7 15 17 11 2 0 0 0 0 0 0 0 0 0 0 0 0 0 0 0
4 18 16 13 15 0 13 18 24 13 5 2 12 34 95 71 8 1 0 0 0 0 0 0 0 12 25 17 0 0 0 0 0 0 0 0 0 0 0 0 0 0 0
0 1 0 3 8 1 23 6 30 16 2 61 65 27 58 51 38 7 0 0 0 0 0 8 10 25 22 7 3 3 0 0 0 0 0 2 19 3 2 0 0 0 0
0 1 3 7 3 3 4 12 17 3 4 96 36 52 73 68 68 73 84 94 107 82 58 50 44 30 35 21 18 0 1 0 4 7 3 0 19 5 18 24 5 0 0
0 0 1 1 0 0 1 4 10 11 13 9 8 0 68 66 95 88 81 103 125 99 85 74 71 62 62 51 18 3 12 17 108 7 5 0 2 13 4 17 4 5 0
0 0 4 2 0 0 0 0 0 1 1 3 2 32 9 1 1 7 3 0 4 34 60 55 73 108 124 90 40 45 41 40 38 31 17 7 5 3 2 22 6 1 6
1 0 0 0 0 0 0 0 0 0 0 0 0 0 0 0 0 0 0 0 18 27 24 50 102 92 99 81 66 66 57 41 45 60 21 32 11 8 11 16 10 6 7

GFSSE_con_mucape_087.txt.gz
CAPE
1200 1495 1425 1725 1746 1720 1935 1757 1564 1584 1674 1691 1598 1465 1434 1423 1397 1391 1318 1173 994 823 391 69 279 70 18 19 20 38 37 37 33 34 27 22 15 12 6 12 41 32 52
1388 1695 1567 1833 1789 1743 1995 1855 1763 1809 1886 1840 1611 1520 1522 1464 1464 1322 1140 971 862 647 60 17 20 24 29 26 32 36 48 43 34 36 29 19 20 15 7 12 30 20 20
1698 1793 1734 1730 1877 1819 2074 2140 2070 2122 2056 1946 1752 1723 1584 1489 1367 1083 863 723 610 348 16 15 21 26 34 29 32 20 22 28 26 22 32 28 39 37 39 60 39 10 7
1751 1916 1687 1555 1699 1915 2002 2169 2163 2249 2067 1893 1882 1747 1514 1226 1041 907 824 626 527 371 12 17 17 13 14 12 8 4 1 2 1 7 25 40 38 53 41 35 31 23 26
1215 1669 1743 1535 1324 1698 1871 2161 2174 2093 1915 1799 1720 1652 1346 1088 1093 1031 830 586 573 510 164 16 4 3 6 11 8 3 0 0 0 6 11 8 10 29 30 22 18 15 19
951 1839 1384 1231 1214 1720 1949 2084 2081 1921 1714 1623 1567 1440 1161 1174 1148 920 706 564 528 480 257 43 2 0 2 3 2 0 0 0 0 5 7 10 12 24 14 15 17 16 15
789 1397 1263 672 721 1000 1934 2022 1876 1721 1536 1434 1398 1139 1056 1138 1001 781 626 635 545 435 429 31 0 0 5 5 2 0 0 0 0 1 4 8 18 22 20 19 19 15 16
651 637 553 445 698 464 947 1504 1491 1425 1356 1217 1107 876 929 894 755 728 591 379 212 295 273 5 0 0 0 0 0 0 0 0 0 1 6 10 29 19 22 16 16 11 11
339 451 307 268 207 66 271 655 970 1156 1127 963 773 623 589 507 452 494 254 96 169 230 123 0 0 0 0 0 0 0 0 0 0 3 2 8 20 19 20 17 13 11 10
190 205 270 287 451 212 237 205 437 919 973 742 523 373 275 285 266 160 13 59 258 324 93 0 0 0 0 0 0 0 0 0 0 1 3 11 22 18 15 12 10 8 6
312 118 71 90 183 248 66 130 184 500 582 558 368 180 185 386 209 13 0 24 208 153 40 0 0 0 0 0 0 0 0 0 0 0 4 27 20 15 12 10 9 5 5
517 95 7 10 23 40 166 119 211 245 400 345 281 299 242 210 57 0 0 0 71 124 37 9 0 0 0 0 0 0 0 0 0 3 9 31 18 14 11 6 4 7 6
96 58 29 1 5 20 66 72 191 108 266 205 170 199 118 39 1 0 0 0 0 51 24 11 0 0 0 0 0 0 0 0 0 1 6 23 12 9 8 6 6 4 0
74 62 57 5 9 6 14 16 56 83 98 107 102 114 71 3 0 0 0 0 0 0 56 23 0 0 0 0 0 0 0 0 0 0 5 10 15 11 10 5 4 1 0
20 8 30 14 22 13 22 29 19 27 77 72 44 119 22 0 0 2 0 0 0 0 0 0 0 0 0 0 0 0 0 0 0 0 0 6 10 8 4 4 1 0 0
8 40 27 27 31 19 26 20 24 14 41 12 43 60 22 0 0 0 0 0 0 0 0 0 0 0 0 0 0 0 0 0 0 0 0 2 6 14 8 3 0 0 0
22 30 24 57 31 15 0 13 5 5 39 7 10 68 20 0 0 0 0 0 0 0 3 12 0 0 0 0 0 0 0 0 0 0 0 1 0 0 9 11 0 0 0
12 7 17 26 16 11 7 4 9 8 17 4 23 36 46 27 5 0 6 20 1 2 13 4 0 0 0 0 0 0 0 0 0 0 0 0 1 2 1 18 23 0 0
14 5 4 23 23 11 23 18 6 16 10 13 48 72 53 31 4 6 32 27 18 25 42 37 25 23 21 7 1 0 0 0 0 0 0 0 0 0 4 1 0 0 0
9 4 1 22 10 12 7 2 1 22 33 20 18 78 98 77 47 28 13 16 15 38 34 35 40 33 48 54 27 5 0 0 0 0 0 0 0 0 1 0 0 0 0
2 3 3 1 20 10 11 9 17 12 2 7 6 45 91 50 43 56 8 0 11 18 23 29 35 41 40 38 39 15 3 0 0 0 0 0 0 0 0 0 0 0 0
0 0 1 3 9 12 10 3 5 2 6 2 36 27 36 33 31 51 32 9 0 4 2 1 13 24 19 15 18 10 0 0 0 0 0 1 0 0 3 10 2 5 2
0 0 0 0 2 1 5 3 7 9 4 0 1 0 38 31 28 12 23 33 48 27 6 9 3 5 21 10 17 6 0 0 0 3 8 26 12 6 0 0 10 4 5
0 0 0 1 0 2 3 1 6 0 4 13 1 0 2 20 41 27 38 64 74 61 53 19 21 58 63 29 11 12 20 6 15 0 3 8 14 12 29 16 0 9 2
0 0 0 0 0 0 0 0 2 3 8 13 5 1 0 55 70 70 102 117 94 80 54 88 82 100 94 71 31 22 27 13 16 22 24 24 40 28 29 6 0 0 14
1 0 0 0 0 0 0 0 2 0 0 3 31 0 3 1 34 33 70 84 74 74 76 78 87 78 62 42 37 47 42 29 7 16 40 50 24 24 10 15 2 6 18

GFSSE_con_mucape_090.txt.gz
CAPE
1711 1381 1396 1759 1826 2037 1968 1681 1608 1687 1739 1761 1633 1503 1462 1557 1521 1407 1265 1178 1048 984 536 214 354 204 45 27 20 59 94 111 85 147 43 25 19 31 69 258 246 72 211
1660 1659 1280 1848 1898 2068 2103 1783 1765 1863 1909 1882 1629 1568 1573 1687 1688 1417 1376 1283 1169 854 279 63 69 24 27 20 24 28 29 21 27 26 26 11 8 23 22 43 81 24 18
1746 1815 1564 1808 1874 1965 2020 2020 1965 2090 2103 1971 1689 1702 1742 1873 1786 1561 1346 1167 966 716 114 42 57 32 30 18 19 30 27 25 15 3 33 13 24 19 15 21 35 14 13
1392 1921 1786 1682 1689 1577 2001 2089 2103 2241 2150 1863 1848 1878 1855 1842 1706 1440 1159 834 660 426 14 20 51 31 24 18 16 9 3 3 3 55 18 20 30 33 27 15 17 11 11
865 1914 1824 1527 1441 1732 1890 2096 1838 2227 1946 1808 1812 1960 1930 1765 1506 1226 803 499 443 309 11 12 15 23 10 13 8 7 0 0 0 37 42 11 25 31 20 11 15 13 17
1010 1470 1605 1468 1333 1551 1886 1865 1479 1573 1749 1738 1768 1832 1760 1598 1397 984 648 446 421 327 15 14 15 12 9 3 0 0 0 0 14 12 17 23 17 16 16 10 13 7 10
994 1421 1129 1149 837 518 747 1038 1418 1683 1641 1653 1671 1571 1568 1493 1245 800 597 560 547 403 12 3 4 2 3 1 0 0 0 0 0 0 0 5 14 17 20 12 12 12 10
1231 1291 1140 913 939 568 442 68 565 1441 1490 1445 1409 1424 1458 1263 981 733 613 645 560 273 6 4 2 1 0 0 0 0 0 0 0 0 3 5 21 19 15 16 10 11 10
882 926 920 928 1023 219 11 2 12 1249 1352 1267 1096 1162 1065 857 663 731 572 499 430 99 0 1 2 1 0 0 0 0 0 0 0 0 1 5 21 14 15 12 10 10 9
528 697 738 701 418 452 201 120 63 848 930 981 878 918 781 621 539 305 232 341 212 51 0 0 0 0 0 0 0 0 0 0 0 0 1 6 16 12 14 13 13 10 7
511 379 207 433 325 146 155 308 129 239 406 569 703 702 622 810 459 235 127 218 145 28 0 0 0 0 0 0 0 0 0 0 0 0 0 22 19 15 14 13 10 10 8
720 474 173 196 446 177 216 273 201 143 202 702 878 783 685 636 392 148 163 218 100 0 0 0 0 0 0 0 0 0 0 0 0 1 3 29 22 18 14 11 8 6 5
397 340 177 46 83 49 240 269 324 117 143 244 464 592 550 484 306 55 179 257 93 0 0 0 0 0 0 0 0 0 0 0 0 2 3 25 21 17 13 8 4 3 3
179 233 50 42 31 13 5 70 113 78 116 97 111 137 629 202 100 50 87 102 54 0 0 0 0 4 0 0 0 0 0 0 0 3 9 19 26 12 8 7 3 3 2
54 67 44 37 75 21 7 36 35 110 126 84 84 103 125 184 53 4 54 63 66 48 39 19 21 17 0 0 0 0 0 0 0 0 5 14 23 16 9 6 5 2 0
27 7 10 2 15 2 3 14 3 54 76 75 75 33 62 93 60 3 14 0 34 96 102 41 24 1 0 0 0 0 0 0 0 0 1 3 7 19 14 6 4 0 0
15 5 5 21 10 15 15 19 34 2 70 29 7 9 18 101 21 12 2 0 0 0 13 10 8 0 0 0 0 0 0 0 0 0 1 2 1 3 13 15 3 0 0
1 0 2 5 12 8 4 0 4 81 13 25 3 16 26 54 23 6 13 0 0 0 0 0 0 0 0 0 0 0 0 0 0 0 0 2 3 5 5 20 17 1 0
2 4 0 5 3 0 1 0 3 14 19 14 4 8 59 65 28 5 11 1 1 0 0 0 0 0 0 0 0 0 0 0 0 0 0 0 3 4 9 2 14 24 11
5 8 13 0 3 0 14 6 20 25 8 2 11 2 97 70 44 11 11 8 6 7 17 23 13 17 20 12 4 6 0 0 0 0 0 0 0 1 5 17 6 10 0
0 0 1 0 10 0 8 18 16 7 16 25 2 59 80 68 70 99 41 36 6 36 30 35 31 39 52 55 48 39 13 1 2 0 0 0 0 0 0 0 0 0 0
0 0 0 0 0 1 3 15 21 28 11 8 1 77 112 114 90 147 102 69 85 43 30 10 18 46 49 50 46 8 15 3 16 17 0 0 0 4 3 0 0 3 13
0 0 0 0 0 0 0 2 1 9 5 15 7 0 94 111 115 95 95 89 90 82 75 72 86 134 131 38 30 64 127 127 90 2 2 1 2 20 14 6 5 0 0
22 0 0 0 0 1 4 2 0 3 3 1 1 0 24 102 99 85 87 83 101 98 92 134 145 181 166 171 33 32 35 89 129 124 6 11 6 5 11 4 6 10 0
7 25 25 0 0 1 0 0 0 0 14 5 0 5 4 32 32 38 67 83 93 117 126 172 161 179 157 191 162 125 23 50 55 77 108 57 0 3 20 31 7 4 0
3 6 27 24 0 0 0 0 1 3 7 0 5 3 0 0 1 27 49 99 121 124 127 186 227 216 208 198 229 219 184 126 96 63 35 62 124 36 10 47 26 0 0

GFSSE_con_mucape_093.txt.gz
CAPE
1465 1809 1754 1844 1931 2140 1827 1737 1717 1722 1754 1798 1564 1651 1754 1665 1578 1483 1368 1228 1087 997 496 556 636 593 433 286 242 429 443 354 289 443 375 262 224 217 196 342 311 174 389
1514 1872 1508 1933 2019 2210 2047 1895 1853 1914 1991 1923 1728 1784 1783 1688 1618 1574 1399 1414 1309 1036 421 237 281 213 97 19 125 203 194 114 80 90 184 72 56 66 64 155 116 18 45
1123 1761 1700 1844 2031 2343 2172 1852 2059 2154 2208 2052 1863 1888 1863 1859 1756 1680 1559 1354 1231 964 234 28 67 41 9 6 77 39 61 66 23 89 211 29 21 21 8 12 24 12 14
882 1780 1977 1730 1894 2176 1849 1985 2072 2266 2293 2041 1949 2024 2082 1859 1870 1724 1479 1164 1008 841 248 138 70 30 10 18 30 27 44 56 124 112 14 17 23 25 20 16 13 14 14
880 1382 2100 1648 1696 1851 1738 1748 1857 2042 1691 1862 1890 2083 2163 2054 1928 1616 1219 877 746 745 405 168 84 30 5 12 0 0 0 0 6 33 11 19 16 17 14 12 8 6 18
739 1009 1774 1677 1561 1728 1575 1994 1939 1653 1208 1698 1773 2028 2187 2001 1741 1298 830 637 614 566 356 125 29 8 0 0 0 0 0 0 31 24 23 19 15 33 16 0 4 8 12
1148 962 1808 1625 1513 1242 1265 698 562 1088 1046 1511 1723 1873 1917 1765 1362 1010 715 529 340 333 183 12 16 5 0 0 0 0 0 0 5 8 10 8 20 19 15 13 10 9 10
1341 1358 1492 1208 946 987 925 332 19 81 517 1183 1605 1626 1564 1320 1058 821 638 502 296 148 49 12 8 2 0 0 0 0 0 0 7 7 4 4 26 16 16 12 11 7 7
1182 1186 1275 1364 1270 734 513 179 27 128 97 368 1230 1244 1108 898 735 736 769 567 103 31 3 5 7 1 0 0 0 0 0 0 7 3 1 8 23 14 15 11 9 9 11
1077 1073 1146 1033 1362 1333 811 107 41 7 90 313 774 1011 818 673 635 738 543 255 51 1 2 5 3 0 0 0 0 0 0 1 2 0 2 8 18 13 9 10 7 7 8
846 766 779 721 1017 787 504 97 48 2 7 108 611 846 722 839 838 652 392 134 40 1 2 3 1 0 0 0 0 0 0 9 6 2 0 22 18 12 10 7 8 9 10
1101 630 263 415 657 590 181 217 93 1 0 43 1048 794 1020 1045 798 513 231 74 23 4 1 0 0 0 0 0 0 0 4 15 8 0 1 25 15 12 9 7 9 6 6
594 600 259 194 328 380 271 219 114 25 20 105 939 697 796 1032 675 663 397 103 1 0 0 0 0 0 0 0 0 0 1 16 11 0 3 22 16 11 10 9 9 9 7
192 459 321 83 121 229 253 281 133 120 5 197 430 550 684 749 538 432 384 93 0 0 0 0 0 6 0 0 0 0 1 9 12 1 7 18 21 11 12 9 7 7 7
29 34 86 64 102 95 99 74 203 107 99 142 89 258 471 350 371 225 273 182 36 10 0 0 1 4 1 0 0 0 1 5 6 0 2 10 18 16 11 11 8 4 2
4 18 23 15 24 9 84 9 9 203 92 61 38 57 98 137 144 205 288 240 147 62 29 8 18 5 0 0 0 0 0 0 3 2 1 5 13 20 20 13 10 4 3
12 14 16 0 2 0 6 6 56 122 93 41 20 95 90 43 125 220 324 288 203 194 278 91 26 0 0 0 0 0 0 0 0 6 0 5 4 7 16 18 5 3 0
18 19 0 0 1 0 1 0 9 17 104 61 33 57 41 44 147 226 182 196 258 254 101 48 21 0 0 0 0 0 0 0 0 1 7 8 0 1 0 8 17 10 1
18 14 0 0 1 0 0 2 8 31 94 33 12 19 10 7 83 162 110 119 129 75 87 59 2 4 7 1 0 0 0 0 0 0 0 2 9 1 0 0 3 6 10
8 3 0 0 1 0 0 0 1 0 17 10 6 15 14 1 50 124 32 6 11 0 0 1 12 27 0 0 0 0 0 0 0 0 0 0 0 0 7 17 0 0 4
8 0 0 0 0 0 0 0 1 0 0 2 2 8 5 13 41 85 51 15 5 12 2 9 47 62 28 4 8 13 24 8 0 0 0 0 0 0 1 3 29 0 0
0 3 0 0 0 0 0 8 0 16 6 30 8 5 6 0 65 78 65 51 42 64 49 92 100 72 43 32 34 41 36 1 0 1 0 0 0 0 0 2 5 22 9
0 0 0 0 0 0 3 1 1 18 1 8 21 15 7 0 80 104 92 97 99 70 170 185 163 127 99 24 42 98 139 111 77 3 3 0 0 0 0 1 8 12 3
11 3 0 0 0 0 19 0 0 0 0 9 6 0 5 95 97 64 111 138 135 215 245 107 148 166 294 172 99 35 167 129 149 132 42 6 11 2 2 5 4 13 16
8 8 17 0 0 0 2 3 0 0 0 4 0 0 0 0 1 38 116 168 145 182 239 216 280 349 316 270 216 186 104 96 142 121 70 140 46 6 0 11 4 8 22
7 6 21 13 0 2 0 0 0 1 1 0 0 0 1 2 0 63 170 148 262 245 224 305 338 329 287 288 332 254 241 142 103 176 173 155 171 128 43 21 0 3 15

GFSSE_con_mucape_096.txt.gz
CAPE
1738 1491 1786 2117 2083 1800 1660 1662 1697 1708 1728 1699 1660 1807 1806 1661 1506 1370 1257 1117 1031 967 579 769 947 786 711 625 557 707 647 539 561 643 666 473 367 290 198 427 259 105 576
1531 1779 1725 2034 2288 1991 1824 1753 1822 1825 1862 1738 1840 1827 1796 1700 1585 1478 1393 1273 1221 1224 973 842 600 485 438 366 473 416 329 263 226 352 436 306 179 149 91 240 196 152 239
1296 1784 1714 1894 2256 2191 2044 1910 1989 2034 2094 1886 1984 1862 1838 1767 1692 1577 1544 1427 1359 1209 773 615 433 266 153 183 348 323 211 176 246 266 86 0 8 28 22 24 133 57 24
782 1815 2090 1806 2148 2304 2084 1970 2023 2221 2280 1996 2051 1929 1894 1860 1708 1685 1583 1276 1179 1056 527 442 337 151 29 144 147 188 191 219 134 113 0 1 11 27 12 19 20 15 19
764 1255 2189 1909 1908 2264 2094 2033 1962 1998 2039 1935 1947 2024 1942 1920 1844 1732 1403 1120 999 967 448 277 215 31 26 9 17 48 117 161 36 1 1 4 7 20 20 14 13 12 15
735 1319 1895 1734 1659 1880 2119 2002 1543 1381 1158 1516 1830 1892 1944 2055 1868 1526 1178 1066 1101 1014 619 213 70 1 0 0 0 0 0 3 5 0 3 23 1 37 25 12 14 14 27
1337 1599 1777 1722 1599 1410 1662 1587 1097 480 322 792 1250 1185 1528 1669 1559 1144 951 920 909 820 647 157 34 13 0 0 0 0 1 4 4 0 1 0 13 5 17 16 18 19 15
1534 1584 1698 1559 1511 1402 1144 992 591 320 223 367 564 794 1400 1341 1039 848 798 735 618 520 306 167 40 3 0 0 0 0 0 1 3 0 0 1 26 24 20 17 15 11 10
1320 1571 1791 1804 1374 929 1000 932 712 319 72 73 6 59 1065 788 607 681 665 550 357 196 122 67 2 0 0 0 0 0 0 2 0 0 0 3 27 22 19 14 9 9 9
1177 1424 1351 1302 1462 1425 678 776 553 178 45 0 0 10 402 347 436 546 378 267 181 115 22 4 0 0 0 0 0 0 0 11 0 0 0 7 23 21 17 12 9 9 7
1091 1230 905 1001 1241 1325 911 330 128 125 8 0 1 25 299 289 396 453 121 101 80 19 12 3 0 0 0 0 0 0 0 0 0 0 0 28 21 16 13 10 8 8 10
1488 1085 474 648 782 782 521 196 51 62 53 12 7 26 296 327 473 371 47 26 16 12 7 1 0 0 0 0 0 0 0 5 0 0 0 31 20 14 13 12 10 10 7
1079 707 424 343 536 541 243 160 53 14 7 3 5 6 273 382 341 210 13 11 4 2 0 0 0 0 0 0 0 0 0 0 0 0 4 23 19 10 12 11 7 6 4
749 813 472 369 217 197 263 105 56 12 0 3 10 9 240 264 310 102 0 0 0 0 0 0 0 0 0 0 0 0 0 2 0 0 0 17 22 13 14 10 7 6 4
341 471 453 87 114 90 68 96 87 6 0 39 54 77 181 143 229 79 8 0 0 0 0 0 0 0 0 0 0 0 0 2 0 0 0 11 16 21 12 11 5 5 6
15 134 116 25 40 32 74 55 92 49 0 18 57 181 112 108 111 72 0 0 0 0 0 0 0 0 0 0 0 0 0 2 0 0 0 0 9 17 18 6 4 3 2
15 5 26 5 5 0 29 23 10 64 8 62 95 81 122 100 87 25 27 0 3 0 0 1 0 0 0 0 0 0 0 0 0 0 0 0 0 6 10 18 6 3 3
3 3 25 0 3 4 23 2 0 27 5 32 39 8 36 49 58 52 94 49 29 8 0 23 3 0 0 0 0 0 0 0 0 0 0 0 0 0 0 5 11 13 2
10 11 11 0 1 0 0 0 0 1 17 1 7 11 38 31 48 120 102 117 80 99 70 17 0 0 0 0 0 0 0 0 0 0 0 0 0 0 0 0 2 3 2
0 8 0 5 3 0 0 0 0 36 16 34 9 2 13 13 66 94 56 69 78 56 23 2 0 0 0 0 0 0 0 0 0 0 0 0 0 0 0 0 0 0 0
2 10 0 0 0 0 0 0 0 0 31 11 16 7 3 14 45 60 49 44 19 35 25 8 0 0 0 0 0 0 0 0 0 0 0 0 0 0 0 0 0 0 0
2 2 0 0 0 0 0 0 1 7 1 8 3 9 6 6 2 29 47 51 44 32 4 0 0 0 1 2 0 14 25 9 11 2 0 0 0 0 0 0 0 0 0
2 2 12 0 2 0 5 0 10 8 1 2 8 8 12 5 7 4 43 45 38 11 11 25 3 13 5 21 5 38 85 46 51 36 7 1 0 0 0 0 0 0 0
2 4 7 0 0 0 10 8 17 7 14 7 3 6 10 9 3 38 50 62 33 47 48 40 38 43 46 34 21 31 60 97 75 4 0 2 4 0 0 0 0 0 0
3 12 9 2 0 0 5 0 0 0 27 25 12 11 11 16 7 6 8 67 74 76 58 92 74 69 79 173 88 103 45 53 32 26 9 17 15 12 11 3 0 0 0
0 6 11 6 5 0 0 0 0 0 0 1 6 15 7 8 3 0 0 85 95 48 54 71 64 87 149 208 150 150 94 73 36 19 20 12 23 15 7 11 6 2 6

GFSSE_con_mucape_102.txt.gz
CAPE
1340 1513 1520 1667 1706 1600 1519 1600 1566 1613 1804 1796 1771 1730 1676 1648 1640 1627 1606 1587 1651 1751 1251 1313 1684 1645 1413 1031 1237 1184 1050 919 829 837 768 553 485 524 474 644 475 246 756
1246 1676 1525 1689 1771 1677 1704 1723 1721 1783 1962 1923 1822 1745 1638 1596 1519 1480 1532 1566 1706 1747 1244 1312 1442 1248 1110 1000 1097 999 914 764 683 722 884 672 439 353 409 445 480 357 514
1415 1751 1592 1593 1764 1833 1908 1949 1991 1983 2107 2082 1942 1776 1675 1575 1485 1393 1397 1441 1655 1664 1127 1126 1285 1102 901 1007 893 753 642 522 408 352 409 112 177 306 322 285 454 441 257
1374 1745 1790 1548 1757 1957 2008 2051 2122 2171 2233 2176 1985 1846 1742 1672 1553 1520 1521 1413 1484 1510 677 907 1165 1031 1018 881 722 556 381 209 92 75 80 97 93 316 205 97 39 28 26
1438 1569 1897 1658 1718 1946 2004 2073 2138 2151 2170 2096 1947 1895 1837 1747 1702 1741 1659 1429 1168 1030 538 1051 953 985 874 668 488 358 150 33 12 0 1 8 24 73 51 26 17 18 17
1534 1516 1742 1869 1761 1971 2070 2144 2230 2207 2101 2015 1904 1879 1824 1908 1880 1747 1482 1309 1216 1290 986 941 1110 874 571 431 268 23 0 0 0 0 0 11 14 39 22 14 19 25 27
1653 1716 1587 1890 1941 2087 2191 2210 2200 2132 2005 1977 1613 1295 1008 1029 1051 1143 1264 1224 1111 1008 838 878 726 361 193 93 17 0 0 0 0 0 0 5 17 34 29 11 12 8 16
1300 1569 1524 1543 1904 2185 2247 2146 2034 1759 1627 1513 996 251 114 298 222 477 1079 990 766 624 455 585 332 124 29 0 0 0 0 0 0 0 0 13 40 39 28 18 16 13 15
1200 1303 1379 1391 1469 1714 2081 2221 1920 1607 1374 997 750 233 163 268 143 362 507 722 676 500 485 378 142 45 1 0 0 0 0 0 0 0 2 16 44 33 23 10 9 9 18
924 1185 1284 1304 1312 1295 1257 1606 1886 1354 1062 618 437 205 70 52 59 246 354 654 554 431 350 226 80 0 0 0 0 0 0 0 0 0 0 9 17 18 20 16 19 16 15
714 763 1082 1120 978 942 956 1107 1320 1120 655 449 235 89 40 3 73 195 201 444 461 316 214 64 13 0 0 0 0 0 0 0 0 0 0 11 19 23 24 17 15 17 15
746 720 663 551 524 917 931 816 787 856 455 325 111 81 53 25 20 82 116 274 312 211 95 19 8 0 0 0 0 0 0 0 0 0 0 25 26 20 19 15 13 12 8
651 687 463 360 605 1000 890 550 397 979 357 188 103 64 40 16 38 28 104 136 91 70 6 1 0 0 0 0 0 0 0 0 0 0 2 23 26 15 15 11 9 8 5
729 677 507 239 382 722 444 273 246 380 207 134 83 65 15 1 13 81 85 49 54 0 0 0 0 0 0 0 0 0 0 0 0 0 2 13 17 12 10 7 5 5 4
786 641 199 150 286 272 184 59 8 33 38 39 39 44 35 50 5 78 8 30 1 0 0 0 0 0 0 0 0 0 0 0 0 0 0 2 12 12 6 4 4 4 3
594 267 108 38 35 16 20 44 22 6 28 51 46 54 39 69 81 11 1 3 0 0 0 0 0 0 0 0 0 0 0 0 0 0 0 0 4 11 9 3 3 4 3
287 206 58 35 0 0 31 30 18 11 1 0 15 23 26 25 56 10 9 0 0 0 0 0 0 0 0 0 0 0 0 0 0 0 0 0 0 0 5 8 6 6 3
261 56 4 0 0 8 0 14 17 7 0 4 3 0 38 47 82 42 6 0 0 0 0 0 0 0 0 0 0 0 0 0 0 0 0 0 0 0 0 3 11 9 5
108 2 0 0 0 2 4 3 18 7 16 49 29 4 28 6 42 26 0 0 0 0 0 0 0 0 0 0 0 0 0 0 0 0 0 0 0 0 0 0 0 2 5
61 3 0 0 0 1 26 3 12 14 18 57 15 0 40 11 9 4 0 0 0 0 0 0 0 0 0 0 0 0 0 0 0 0 0 0 0 0 0 0 0 0 0
83 7 0 0 0 1 3 3 0 10 2 25 49 3 56 9 43 23 0 0 0 0 0 0 0 0 0 0 0 0 0 0 0 0 0 2 0 0 0 0 0 0 0
124 0 0 0 0 1 2 0 0 0 16 14 22 8 55 6 61 54 0 0 0 0 0 0 0 0 0 0 0 0 0 0 1 0 0 9 2 0 0 0 0 0 0
123 0 0 0 0 0 3 0 0 0 4 8 11 2 31 27 50 71 0 0 0 0 1 0 0 0 0 0 0 0 0 0 0 0 8 23 10 0 0 0 0 0 0
77 0 0 0 0 0 1 1 0 1 0 4 11 24 49 49 50 36 5 1 0 0 17 23 15 0 0 1 0 0 3 8 3 0 7 23 1 0 0 0 0 0 0
16 0 0 0 0 0 0 1 6 0 0 0 2 5 29 37 32 45 60 100 79 51 60 62 44 15 0 0 0 0 16 61 51 55 42 21 0 0 0 0 0 0 0
25 0 0 0 0 0 0 0 5 8 0 0 2 6 2 6 13 3 7 42 70 72 38 57 72 9 0 0 0 0 1 39 40 52 49 45 28 8 0 0 12 9 0

GFSSE_con_mucape_108.txt.gz
CAPE
1067 1101 1303 1521 1600 1305 1481 1503 1572 1749 1961 1917 1845 1917 1945 1960 1941 1849 1736 1731 1762 1843 1799 1900 1864 1935 1586 1437 1449 1306 1183 1130 1036 1044 1127 962 791 659 683 746 623 347 745
886 1104 1201 1450 1629 1584 1590 1630 1722 1909 2173 2196 2082 2022 1993 1981 1933 1909 1979 1942 2031 2102 1836 1889 1985 1832 1700 1402 1314 1157 1035 913 890 855 1009 986 778 604 652 698 659 529 749
1012 1117 1252 1360 1646 1684 1761 1817 1964 2151 2348 2331 2245 2154 2094 2046 2009 2120 2067 1956 1970 1947 1644 1640 1960 1665 1396 1289 1022 818 1019 959 823 771 736 366 417 602 478 719 742 740 570
1142 1195 1245 1397 1585 1733 1777 1826 1993 2298 2378 2410 2037 2221 2177 2129 2144 2197 2061 1916 1919 1779 1645 1606 1591 1533 1308 1273 1104 1016 887 789 680 522 268 265 347 559 388 352 519 456 439
1313 1235 1193 1382 1531 1688 1825 1896 1949 2154 2189 2198 2200 2159 2256 2195 2220 2137 1851 1697 1699 1827 1635 1530 1415 1338 1148 908 743 628 489 293 279 193 231 231 253 410 322 208 239 104 267
1322 1322 1225 1341 1489 1725 1890 1961 2063 2140 1995 1937 1688 1899 2016 2179 1983 1410 1557 1413 1474 1628 1414 1434 1340 1019 773 513 396 326 229 107 140 180 138 93 87 228 56 15 69 49 39
1245 1443 1333 1327 1418 1781 2015 2021 2046 2018 1920 1871 1537 1329 1114 1386 1246 1397 1333 1059 1261 1240 1220 1204 1067 836 487 371 356 204 64 32 295 43 6 9 21 144 39 18 14 32 37
1183 1363 1452 1424 1358 1687 1955 1877 1810 1893 1788 1394 1171 1040 945 971 924 825 766 1045 894 1070 861 891 731 552 357 323 271 133 55 65 28 12 9 8 86 54 21 12 12 32 17
1153 1178 1372 1522 1368 1554 1798 1869 1600 1630 1359 954 899 704 689 561 594 670 613 760 742 743 641 517 380 267 267 209 119 74 56 39 22 14 11 10 52 14 16 17 5 22 8
1170 1252 1274 1457 1509 1475 1844 1805 1729 1545 960 700 536 363 150 240 254 346 436 514 605 532 501 385 221 151 112 74 19 5 1 0 4 0 0 0 44 19 17 23 22 13 7
1064 1368 1357 1349 1533 1527 2354 1666 1741 1434 967 631 405 335 195 169 240 250 170 360 389 512 361 291 114 70 30 0 0 0 0 0 0 0 0 30 24 25 13 14 10 13 7
673 919 1146 1201 1204 1272 1388 1542 1830 1389 1117 623 264 104 97 97 29 27 56 238 341 377 261 150 99 26 9 0 0 0 0 0 0 0 0 25 20 14 17 12 11 9 13
416 606 804 961 982 980 968 1056 1050 1262 1131 789 488 89 43 84 90 48 92 205 199 212 92 46 63 5 0 0 0 0 0 0 0 0 2 22 35 14 15 16 12 12 3
242 266 556 782 819 738 617 822 386 826 925 751 563 152 58 66 47 43 44 129 143 114 63 0 11 2 0 0 0 0 0 0 0 0 1 23 17 21 17 7 8 5 10
249 215 326 552 495 301 609 535 733 339 332 520 424 230 112 42 44 34 51 140 100 64 66 1 7 3 0 0 0 0 0 0 0 0 0 11 8 8 13 10 2 5 4
225 248 403 475 400 445 396 115 307 192 198 295 231 207 128 75 44 41 62 108 83 60 29 0 0 3 6 0 0 0 0 0 0 0 0 1 6 18 26 11 12 6 12
140 205 388 532 474 244 234 288 120 219 86 102 145 113 137 61 43 65 38 50 78 32 0 0 6 5 9 0 0 0 0 0 0 0 0 0 0 6 14 23 15 8 11
79 157 361 530 476 133 201 295 59 60 76 49 38 51 91 76 62 61 67 118 76 46 0 0 7 2 3 0 0 0 0 0 0 0 0 0 0 1 8 10 14 16 11
19 141 367 570 362 70 8 1 8 17 8 14 1 11 54 50 19 26 58 73 93 74 0 1 0 7 0 0 0 0 0 0 0 0 0 0 0 0 0 4 5 5 9
24 183 468 563 191 4 0 2 16 8 13 7 6 6 20 14 31 16 23 18 49 65 17 0 0 15 0 0 0 0 0 0 0 0 0 0 0 0 0 0 0 0 0
117 386 584 341 139 0 1 3 7 18 13 6 0 0 17 12 10 27 26 9 21 34 18 2 0 19 0 0 0 0 0 0 0 0 0 0 0 0 0 0 0 0 0
150 427 415 279 99 4 2 0 3 6 8 6 15 10 32 12 6 16 3 12 9 2 26 2 0 8 0 0 0 0 0 0 0 0 0 0 0 0 0 0 0 0 0
247 374 335 270 50 6 0 1 3 0 6 8 5 9 43 10 11 7 2 8 9 3 6 0 0 0 0 0 0 0 0 0 0 0 0 0 0 0 0 0 3 4 3
202 309 331 215 61 9 2 1 1 0 0 1 95 13 12 40 19 13 18 36 11 34 0 0 0 0 0 0 0 0 0 0 0 0 0 0 0 0 6 13 26 25 11
158 288 297 199 87 5 0 0 0 0 0 16 6 12 14 28 21 30 27 51 0 40 0 0 0 0 0 0 0 0 0 0 0 0 0 1 0 3 0 12 53 33 11
67 301 278 209 115 3 0 0 0 17 0 0 0 0 1 11 12 27 47 116 75 4 0 0 0 0 0 0 0 2 4 11 5 24 27 3 0 4 7 42 36 38 20

GFSSE_con_mucape_114.txt.gz
CAPE
646 1072 1219 1394 1584 1520 1517 1597 1700 1896 1949 1877 1879 1958 2012 2047 2076 2143 2199 2225 2171 2111 1930 1685 1701 1696 1506 1460 1632 1698 1540 1379 1278 1264 1324 1203 1014 983 943 1042 1020 804 1089
448 1217 1175 1401 1458 1507 1569 1666 1813 1953 2037 2063 2042 2061 1989 2091 2091 2115 2109 2146 2207 2231 1766 1661 1792 1693 1634 1706 1596 1476 1343 1215 1158 1184 1248 1117 1029 906 883 1051 1018 959 1089
767 1342 1448 1395 1192 1399 1606 1776 2022 2177 2243 2277 2232 2194 2138 2166 2113 1986 1959 2022 2135 2261 1941 1728 1730 1662 1647 1469 1413 1392 1286 1156 1077 1200 1236 908 1011 960 928 1052 1032 1145 1172
784 1308 1617 1252 1263 1426 1789 1978 2187 2432 2398 2341 2314 2283 1954 2123 2009 1764 2052 1987 2063 2180 2157 1883 1807 1730 1676 1518 1400 1290 1179 1079 1033 1046 955 681 734 868 835 871 1051 1064 1068
780 1054 1681 1180 1276 1579 1827 2016 2201 2447 2326 2308 2251 2101 1851 1628 1415 1228 1189 1986 2141 2305 2244 1772 1746 1751 1527 1324 1208 1114 1002 933 884 872 626 677 761 916 852 811 783 871 866
878 983 1264 1042 1255 1609 1837 2033 2143 2306 2256 2142 1939 2031 1927 1540 1345 1062 1036 1787 2074 2093 1913 1635 1901 1546 1175 1008 880 766 688 707 567 629 680 796 653 726 674 575 730 706 653
1148 1319 1836 1091 1267 1634 1909 2026 2077 2054 2082 1895 1751 1664 1423 503 90 368 647 712 1591 1692 1883 1753 1494 1182 833 722 665 528 487 513 836 716 789 720 678 572 366 276 216 445 419
1816 1908 2045 1315 1284 1450 1698 1800 1864 1698 1717 1644 1562 1510 1070 388 414 500 1066 1227 1547 1588 1549 1466 1137 934 653 559 475 389 307 358 540 666 575 630 472 209 20 0 32 82 30
2168 2171 2222 2128 1791 1271 1244 1373 1663 1743 1632 1555 1326 1266 926 699 683 1097 912 1300 1406 1279 1304 1128 799 652 566 492 445 294 227 273 584 486 512 474 428 108 2 0 0 0 9
2132 2216 2247 2333 2283 2084 1794 1165 1387 1489 1596 1517 1286 1063 727 268 661 867 915 1090 1178 1188 1187 848 625 479 482 471 388 244 150 293 512 487 334 321 279 16 1 0 0 6 10
1980 2130 2280 2348 2354 2231 2240 1712 1223 1455 1247 1225 1140 913 623 1130 1304 1063 679 850 1004 963 892 560 504 385 377 377 280 264 150 552 481 367 238 117 206 11 0 3 11 16 12
1984 2126 2136 2340 2396 2168 2114 2164 2079 2217 2073 1764 1538 1148 1272 1281 936 510 216 611 751 648 534 358 316 349 320 401 273 249 529 379 422 289 73 71 91 22 12 10 20 17 11
1652 2057 2080 2287 2436 2036 1707 1797 2331 2503 2280 2113 1712 1448 1179 1070 617 179 328 625 1117 452 715 365 261 522 555 525 385 430 204 198 49 38 24 52 130 21 14 22 14 13 8
1096 1916 2106 2161 2419 2009 1715 1641 2075 1876 2072 1633 1576 1415 1221 1255 1006 475 508 436 683 512 837 765 816 591 470 337 327 219 83 40 35 24 28 25 45 47 22 20 22 14 20
746 1361 1960 2133 2281 2108 1812 1805 1517 1592 1356 1126 1134 975 980 1268 1027 457 406 239 460 743 191 494 604 375 299 214 228 105 50 24 28 24 35 12 33 55 25 25 22 12 16
450 1061 1607 1986 2105 1899 1512 1317 1245 1446 1335 900 750 1204 982 1313 761 828 754 334 425 439 282 149 80 220 174 183 169 86 57 18 12 17 32 18 17 45 41 29 28 21 14
143 660 1327 1842 1918 1761 1554 1378 1157 1208 1325 767 556 770 716 584 500 755 851 900 307 543 370 75 47 114 131 161 119 144 59 14 11 14 24 24 16 15 30 43 35 19 15
0 130 913 1260 1795 1497 1279 1329 1041 925 980 774 565 372 401 363 202 327 550 814 525 146 120 45 30 154 171 169 106 129 57 15 18 16 20 10 11 34 14 27 25 34 17
0 0 722 1373 1697 1494 1428 1018 687 687 584 311 182 398 345 268 188 242 126 668 400 175 244 56 64 185 146 156 109 68 54 33 27 13 18 26 29 27 19 9 10 10 15
0 15 588 1171 1475 1290 1032 686 724 607 390 175 178 47 166 62 98 82 61 118 187 129 194 111 139 180 150 138 56 70 54 30 40 14 21 23 32 41 34 12 8 5 1
74 133 586 978 1374 917 588 569 661 555 274 295 284 15 3 8 53 9 32 98 61 52 227 147 228 204 180 162 119 80 50 35 32 19 17 17 22 30 27 26 15 13 0
300 420 534 854 1293 845 503 805 582 306 99 30 57 59 32 51 3 16 19 58 56 60 94 54 181 204 172 192 106 73 38 51 44 33 12 15 23 12 11 18 20 16 14
400 585 605 827 1180 853 1068 581 677 494 137 281 181 139 31 7 21 15 3 25 36 51 33 13 129 167 137 181 155 34 17 26 34 29 19 14 12 7 6 12 13 7 3
318 542 501 762 854 863 1040 690 595 396 157 152 175 148 61 93 63 6 19 26 36 44 49 22 16 68 162 125 121 20 8 14 31 30 20 14 6 5 10 5 0 2 22
260 408 147 449 568 789 957 719 455 154 132 104 214 210 207 79 29 9 38 44 28 7 38 33 31 24 74 203 143 26 44 44 58 4 2 5 3 6 11 56 40 61 59
411 76 46 330 673 442 505 435 272 115 42 92 97 163 142 48 20 17 22 22 43 28 4 33 20 17 153 200 172 83 48 39 50 4 3 3 3 33 66 82 118 145 140

GFSSE_con_mucape_117.txt.gz
CAPE
103 1060 1277 1472 1560 1533 1594 1709 1783 1954 1909 1873 1889 1894 1991 2030 2077 2161 2243 2193 2061 2118 1919 1732 1785 1613 1432 1372 1454 1696 1489 1397 1373 1466 1547 1397 1068 996 1051 980 1013 812 1170
61 995 1101 1471 1607 1526 1535 1631 1771 1963 2096 2024 1992 1968 2047 2040 2059 2237 2276 2258 2208 2213 1822 1709 1719 1705 1580 1658 1546 1480 1389 1246 1248 1322 1373 1408 1291 948 1048 1220 1080 973 1110
231 1261 1334 1353 1563 1530 1586 1688 1877 2124 2264 2165 2096 2081 1920 1670 1834 2212 2151 2182 2094 2025 1839 1679 1750 1783 1654 1571 1503 1427 1377 1277 1247 1278 1121 818 1111 1160 1060 1049 1110 1208 1113
320 1290 1589 1194 1321 1660 1738 1839 2086 2240 2337 2235 2185 2137 1849 1648 1693 1600 1672 1786 1883 2004 2155 1804 1760 1760 1658 1544 1409 1349 1266 1237 1190 1200 776 810 885 1056 1015 1156 1192 1220 1129
304 889 1900 1179 1262 1679 1861 2001 2279 2343 2239 2206 2201 2052 1472 1382 1067 316 534 797 1433 2389 2045 1878 1763 1766 1554 1314 1235 1197 1161 1098 782 656 647 729 727 966 1030 1025 1020 982 914
303 591 1419 1031 1280 1626 1913 2052 2181 2251 2085 2084 2123 1958 1394 872 481 211 203 573 768 1445 2016 1922 1961 1654 1250 1096 1036 1011 943 933 675 620 633 765 696 848 868 825 974 869 749
398 1309 1768 1036 1319 1681 1937 2093 2047 2004 2001 2026 1988 1814 1082 506 323 367 509 491 205 726 1965 1935 1620 1326 1066 894 862 751 687 717 734 623 785 832 896 894 790 676 812 759 666
1071 1717 1866 1111 1321 1603 1799 1814 1861 1892 1877 1918 1771 1496 681 361 93 233 596 610 422 963 1579 1472 1180 972 833 755 671 505 426 383 666 553 655 796 706 620 449 349 354 334 212
1774 2044 2125 1825 1551 1379 1509 1490 1693 1671 1745 1784 1701 1351 902 529 252 182 292 685 560 1162 1407 1150 842 727 668 530 455 347 300 420 683 639 694 405 485 178 17 4 0 2 14
2050 2063 2196 2121 2087 2109 1889 1335 1450 1588 1506 1596 1332 1248 906 499 342 316 704 827 1077 1224 1218 941 711 609 541 436 385 280 290 333 579 581 588 397 335 10 0 0 0 0 0
2055 2110 2049 2180 2319 2375 2176 1693 1237 1295 1462 1436 1365 1242 853 676 172 645 732 870 1016 1057 875 619 599 474 432 375 331 226 179 733 556 695 565 210 343 16 5 0 0 0 0
1860 2138 2071 2226 2380 2502 1957 2131 1768 1800 1769 1609 1807 1528 1608 1192 936 958 723 803 872 824 564 413 418 275 291 526 318 207 483 454 415 546 201 183 217 9 12 6 10 3 14
1482 1927 2092 2306 2462 2482 2341 2327 2034 1985 1870 2067 1726 1777 1728 1175 1723 1088 1255 811 1226 719 728 417 174 639 510 542 523 682 409 467 315 127 31 41 115 14 16 20 12 6 14
710 1844 2134 2137 2436 2714 2318 2125 2049 2126 1958 1958 1981 2152 1587 1482 1368 1248 432 126 710 1315 896 337 642 857 590 519 515 476 244 287 41 123 0 6 50 46 30 25 20 12 18
13 943 2085 2186 2578 2638 2378 1925 2036 2214 2167 2149 1915 2097 1644 1416 1071 881 762 736 858 1207 1151 490 722 897 680 432 383 258 113 39 25 94 9 3 31 48 22 28 19 11 20
0 553 1558 2292 2430 2807 2212 2075 2141 1976 1887 2061 1955 1894 1601 1362 1549 1019 1213 848 567 1068 665 212 310 497 594 290 315 124 49 32 10 39 10 15 18 27 33 41 27 11 8
0 134 1129 2100 2618 2797 2042 1848 1935 1694 1696 1867 1556 1887 1653 1408 1418 1212 1147 904 617 1052 197 77 88 155 471 212 142 68 59 39 9 8 5 16 19 17 33 47 43 24 15
0 66 437 1072 2497 2883 2400 2264 1817 1499 1576 1743 1307 1514 1604 1217 1135 1332 1040 1207 897 852 160 57 127 93 58 142 168 86 49 36 16 9 17 17 19 20 17 23 37 34 22
0 0 56 1483 1990 2952 2507 2023 1917 1670 1511 1523 1344 1074 1190 1085 920 990 1086 995 814 794 527 88 62 33 14 82 106 111 119 41 22 6 34 11 7 18 12 6 19 21 17
0 0 0 932 2028 2855 2438 2016 1831 1536 1103 1122 925 906 955 983 743 702 976 920 969 640 278 26 35 30 19 78 67 90 67 52 33 9 16 22 17 33 6 0 4 3 5
0 41 110 466 1699 2304 2060 1987 1269 1049 1136 1148 677 579 699 874 537 645 566 549 149 112 83 68 58 55 55 227 125 110 107 82 103 14 11 16 28 18 45 4 0 1 0
0 256 316 664 1310 1935 1472 1309 1212 1314 1128 1059 678 581 368 295 366 278 384 207 24 68 72 31 48 22 42 234 123 102 85 59 36 16 12 17 60 13 23 28 12 5 8
30 425 488 736 1059 1665 1200 1246 1318 1126 862 652 328 399 444 146 58 20 16 61 32 42 30 38 49 25 0 109 172 64 66 36 46 31 23 18 45 27 21 16 13 11 17
4 330 637 738 975 1498 1006 1246 1473 1045 670 660 558 522 343 281 95 12 2 7 9 19 28 32 34 66 69 125 167 126 128 62 18 37 30 18 24 18 34 25 12 6 4
2 406 889 916 1049 1343 1383 1382 1457 1380 940 640 464 538 369 293 173 44 5 17 38 9 3 34 5 64 59 145 158 146 156 132 99 20 24 20 8 9 8 8 13 4 0
541 869 950 901 1162 1306 1417 1559 1431 1324 916 636 502 460 506 405 405 122 44 3 2 4 16 21 23 47 57 84 175 221 174 146 103 172 90 57 8 10 7 9 73 70 133

GFSSE_con_mucape_120.txt.gz
CAPE
257 924 1270 1508 1568 1602 1641 1688 1861 1718 1767 1833 1848 1833 1902 2019 2091 2184 2210 2085 2112 2158 2046 1738 1655 1615 1533 1530 1511 1433 1423 1396 1333 1357 1360 1327 985 916 1176 1140 904 732 1158
664 1021 1147 1479 1534 1520 1595 1654 1748 1924 1944 1969 1929 1895 1985 2052 2142 2244 2317 2224 2295 2188 1975 1763 1715 1403 1565 1591 1566 1396 1302 1213 1173 1142 1228 1324 1323 1170 1216 1104 949 1002 1144
886 1010 1047 1366 1471 1528 1585 1568 1742 1981 2165 2110 2022 1978 1987 1963 1810 1848 2260 2311 2055 2102 2021 1815 1700 1703 1612 1544 1442 1390 1336 1168 1069 1037 1115 701 893 1189 1043 1083 1192 1207 1238
1149 1078 1039 1149 1374 1551 1655 1728 1908 2151 2310 2156 2101 2092 1940 1586 1213 1114 1122 1261 1447 1915 2036 1843 1911 1755 1634 1479 1377 1321 1267 1183 1138 1051 758 698 777 1091 1081 1211 1300 1302 1227
1031 1180 1195 952 1179 1521 1688 1834 2144 2253 2220 2119 2068 2157 1712 696 214 361 64 291 329 732 2023 1762 1891 1714 1489 1237 1179 1143 1108 1060 943 714 602 717 672 1063 1105 1041 1183 1172 922
632 1919 792 864 1122 1524 1765 1977 2116 2087 1649 1983 1998 1938 1397 352 226 171 17 282 126 13 921 1508 1848 1542 1137 997 941 812 877 814 533 494 541 777 592 1042 932 1069 951 921 828
1526 1770 1082 804 1132 1547 1808 1996 1912 1920 1689 1789 1913 1729 1039 417 193 105 141 134 74 30 417 1195 1516 1284 978 831 810 666 691 588 543 494 514 617 667 1041 1026 800 910 837 734
2497 2224 1300 905 1164 1456 1643 1737 1690 1721 1497 1756 1834 1268 1052 604 397 155 219 150 21 1 295 1097 1252 1059 852 746 672 571 396 328 487 600 499 519 745 741 799 635 657 496 358
2686 2379 1602 1321 1299 1230 1280 1385 1586 1605 1475 1718 1671 1416 738 529 367 551 624 235 41 331 962 1224 989 856 750 632 500 390 242 387 436 472 406 355 686 612 530 214 71 78 99
2221 2598 1909 1781 1655 1662 1387 1175 1456 1493 1566 1595 1576 1345 922 409 79 352 589 632 592 692 1131 1018 805 748 654 478 368 241 282 396 379 376 244 100 491 239 96 2 1 2 1
2327 2468 2246 2083 2000 2172 1953 1298 1252 1413 1323 1403 1285 1345 993 693 482 115 150 369 594 702 925 661 522 474 501 352 279 208 210 289 336 347 186 245 390 24 10 4 2 3 3
2359 2444 2384 2374 2296 2424 1926 1629 1502 1587 1466 1511 1461 1213 1084 813 487 278 571 574 531 642 728 419 415 360 302 281 225 151 224 214 231 198 150 232 265 12 13 9 8 11 12
2052 2364 2266 2465 2621 2582 1851 2045 1611 1745 1564 1504 1756 1388 1395 1209 1085 700 674 642 448 470 373 244 286 126 292 248 194 173 280 188 217 122 0 94 174 37 18 17 10 14 18
1422 2259 2275 2405 2825 2766 1986 1958 1885 1486 1779 1789 1514 1715 1545 1279 1071 881 703 542 455 502 412 281 108 129 124 155 232 315 212 253 112 60 0 0 45 23 18 20 15 11 19
864 1962 2200 2384 2650 2749 2259 1920 2074 1648 1919 1844 1796 1738 1458 1275 1048 908 500 369 301 675 501 340 150 125 122 206 304 211 241 182 48 44 1 0 5 34 26 24 16 13 12
0 1801 2318 2199 2609 2845 2308 2178 1894 2347 1861 2178 1981 1857 1559 1162 1056 694 382 442 613 608 721 423 130 148 119 215 208 181 141 47 39 20 0 0 2 24 35 36 16 9 13
0 483 2314 2392 2476 2911 2328 2128 2008 2135 1986 1902 1793 1917 1501 1247 1010 541 491 486 451 541 473 227 102 112 164 162 153 139 44 20 12 4 0 0 0 7 25 37 22 19 5
0 42 1521 2271 2344 2691 2489 1888 1706 1753 1734 1675 1434 1632 1576 1267 985 768 525 342 290 407 241 55 41 35 68 60 63 60 30 18 14 1 0 0 0 7 25 17 21 23 27
0 0 595 1424 2225 2507 2491 2130 1738 1616 1726 1574 1337 1215 1646 1308 1005 713 592 365 323 345 104 29 20 27 46 31 56 27 28 25 0 11 0 0 0 0 3 5 9 12 18
0 0 496 1254 1967 2478 2628 2219 1980 1754 1461 1572 1448 1154 1267 1248 964 742 559 324 289 248 49 16 13 19 24 17 63 23 72 26 5 2 6 0 0 0 0 0 0 1 4
0 239 247 1208 1833 2296 2364 2170 1829 1653 1408 1243 1179 1008 744 982 814 694 459 301 250 203 63 31 21 24 16 14 7 29 66 39 38 0 12 1 0 0 0 0 0 0 0
2 132 370 306 1701 2010 2269 2112 1730 1598 1247 1183 1225 1060 1094 811 715 512 451 275 198 181 93 33 13 23 33 10 24 0 1 22 47 13 12 16 3 0 0 0 0 0 0
55 555 342 362 769 1674 2130 1934 1569 1451 964 917 1139 961 549 670 535 320 394 160 105 128 107 29 18 33 41 16 17 2 0 0 5 35 7 3 19 2 16 9 0 0 0
3 518 557 453 631 1419 1841 1675 1242 928 1017 873 710 557 363 270 226 313 189 319 31 4 5 6 31 13 38 6 25 6 34 11 0 9 9 13 26 4 6 7 0 2 11
2 425 513 643 747 1559 1613 1528 1011 1099 944 1236 836 416 237 264 158 20 32 28 31 8 5 14 36 6 21 22 0 0 43 65 0 3 0 6 22 6 3 7 0 0 0
1195 1037 1302 1073 859 1382 1372 1238 1060 1297 1047 743 720 591 377 254 234 87 3 199 25 0 0 2 15 37 39 14 3 4 4 55 20 0 0 0 0 1 0 0 6 0 0

GFSSE_con_mucape_123.txt.gz
CAPE
534 988 1157 1343 1417 1434 1530 1657 1464 1452 1622 1777 1769 1809 1881 1986 2084 2076 2057 2155 2138 2128 2056 1833 1847 1710 1428 1357 1528 1527 1192 989 919 1223 1373 1536 1423 1224 1182 1226 1063 941 1247
590 968 1155 1291 1362 1397 1453 1532 1688 1557 1786 1901 1818 1834 1925 1994 2096 2130 2166 2308 2218 2295 1734 1535 1882 1882 1589 1531 1440 1490 1367 1178 875 898 1383 1574 1474 1378 1029 1119 1041 1061 1257
707 948 1137 1175 1296 1413 1519 1570 1708 1953 2030 1914 1915 1865 1965 1748 1670 1492 1612 1498 1505 1518 1837 1482 1713 1609 1534 1523 1445 1390 1269 1042 947 996 1075 852 1053 1233 1082 1174 1141 1204 1183
518 867 1010 1085 1246 1440 1480 1582 1740 2078 2142 2077 2001 1967 1772 1421 1327 833 622 434 489 432 1377 1824 1761 1613 1520 1396 1236 1226 1135 1022 985 809 639 687 857 1300 1093 1055 1220 1289 1314
713 761 986 981 1162 1396 1479 1665 1915 2050 1967 1917 1944 2006 1426 1143 864 666 569 446 325 167 520 1370 1851 1581 1336 1183 1092 1015 1013 946 728 627 650 698 852 1141 1157 1090 1237 1200 1016
1028 850 780 862 1093 1360 1572 1868 1969 1872 1540 1724 1770 1739 1011 1079 953 766 415 237 93 144 257 959 1402 1376 1044 991 886 865 760 589 625 623 643 831 830 1063 961 1079 1057 990 915
1307 796 657 823 1086 1408 1758 1914 1860 1317 1257 1521 1645 1247 951 1065 978 435 423 99 30 84 225 635 1412 1236 949 862 759 647 489 452 541 540 528 657 733 1150 1087 886 984 887 752
1352 959 692 844 1075 1286 1600 1648 1674 1270 1135 1418 1544 1170 817 796 459 311 430 293 178 265 183 600 992 943 847 729 588 491 373 411 508 486 493 526 821 963 766 672 621 589 526
1325 904 728 892 1064 1158 1291 1404 1484 1141 1082 1484 1435 1036 738 539 261 288 417 93 175 384 467 439 895 779 692 586 486 309 290 492 417 329 354 446 759 823 672 406 322 191 224
1524 1010 756 902 988 1008 1019 1276 1392 1257 1232 1586 1398 913 536 314 214 280 537 197 87 184 408 1067 833 615 603 429 324 219 377 429 328 259 266 314 685 624 371 215 120 6 3
1738 1416 1025 1116 1073 1023 869 1079 1295 1420 1519 1575 1443 1155 697 246 20 403 533 396 486 432 629 888 682 508 452 404 248 204 343 284 265 172 132 323 587 341 114 33 21 6 4
1955 1765 1504 1395 1321 1398 1197 894 1161 1224 1358 1447 1355 1093 735 399 292 110 422 505 535 507 625 560 468 363 315 292 174 143 217 281 216 145 34 156 313 70 11 9 7 14 14
1857 2063 1886 1667 1545 1752 1738 1060 929 1130 1103 1230 1164 1154 887 586 522 117 86 99 333 463 485 430 331 242 239 208 122 106 179 203 209 178 54 86 279 76 16 16 17 21 20
1862 1950 2052 1905 1834 1939 1719 1512 1020 1127 1114 1240 1184 1102 1002 753 543 134 454 346 234 340 364 124 185 148 193 140 95 95 167 182 146 112 28 55 151 116 18 9 21 24 19
1850 1921 1922 1976 2081 2115 1626 1680 1272 1409 1218 1112 1474 1250 1023 867 502 340 471 373 197 249 126 101 97 91 157 120 106 107 106 134 131 62 0 3 10 31 18 9 16 19 22
1229 1968 1937 1996 2249 2210 2054 1654 1712 1338 1490 1527 1212 1513 1107 995 692 529 403 287 140 216 110 119 72 56 61 86 115 99 74 108 92 46 0 0 0 1 18 16 6 8 18
155 1624 1935 2045 2190 2279 2255 1976 1738 1774 1192 1684 1654 1382 1359 1031 798 702 367 253 160 185 284 187 64 66 63 97 93 97 74 43 43 45 1 0 0 3 12 27 29 32 15
0 1480 1763 1950 2187 2328 2276 2044 1706 1784 1884 1608 1806 1585 1341 1074 836 753 427 303 290 199 303 153 52 34 49 37 44 82 50 25 25 5 0 0 0 0 7 17 27 28 22
0 705 1698 1808 2233 2408 2306 2170 1947 1807 1857 1702 1622 1652 1497 1161 781 672 348 187 210 185 105 54 41 20 30 39 15 40 36 19 12 0 0 0 0 0 2 15 12 8 10
0 0 1642 1847 2092 2451 2343 2308 2024 1685 1659 1568 1475 1195 1474 1266 890 653 504 356 233 182 116 44 10 3 8 26 59 67 8 2 7 2 0 0 0 0 0 4 0 0 0
0 0 1392 1845 2039 2452 2359 2310 2169 1998 1409 1478 1517 1240 1215 1459 1225 868 600 464 346 214 44 11 18 15 7 4 26 35 29 22 0 5 0 0 0 0 0 0 0 0 0
0 0 255 1580 2088 2243 2337 2187 2108 1963 1575 1359 1494 1262 969 1280 1243 909 578 483 350 186 104 65 21 26 14 8 1 1 23 0 1 0 0 0 0 0 0 0 0 0 0
0 1 409 1148 1915 2094 2318 2288 2094 1932 1679 1533 1363 1170 1444 1173 1282 807 623 415 320 242 153 78 32 20 20 1 14 14 23 3 0 0 0 3 1 0 0 0 0 0 0
0 7 114 888 1737 1978 2184 2299 2134 1873 1634 1576 1087 1151 1525 1325 1188 1046 556 438 307 260 120 68 60 42 20 13 13 14 4 10 13 4 0 2 10 2 0 0 0 0 0
0 49 28 49 1312 1671 2187 2217 2117 1842 1633 1466 896 1065 904 992 959 854 539 417 231 194 84 68 202 57 49 40 34 2 20 1 9 3 0 0 8 4 16 11 5 0 0
3 131 153 186 425 1539 1947 2125 2056 1888 1669 936 1069 955 935 954 823 722 215 498 547 112 68 99 48 34 47 27 17 22 12 20 5 2 0 0 0 1 7 21 14 6 6

GFSSE_con_mucape_126.txt.gz
CAPE
702 990 1112 1382 1476 1395 1276 1212 1236 1387 1572 1635 1683 1796 1985 2047 1986 1984 2043 2081 2159 2233 1959 1753 1861 1860 1875 1699 1649 1197 1274 1179 866 917 1341 1401 1419 1317 1287 1452 1311 1173 1419
681 1006 1092 1252 1327 1401 1482 1362 1367 1543 1736 1720 1781 1818 1909 2017 2031 2013 2162 1833 2046 1906 1671 1735 1744 1890 1773 1719 1436 1300 1270 1206 1144 1170 1385 1426 1639 1328 1192 1283 1216 1124 1219
796 996 1051 1105 1267 1348 1518 1688 1673 1851 1793 1737 1842 1870 1805 1963 2031 1919 1602 1456 1343 1711 1542 1514 1588 1517 1587 1371 1149 1313 1225 1218 1208 1275 1365 1029 1038 1040 1206 1343 1218 1236 1196
829 967 926 1004 1197 1323 1363 1529 1830 2013 1990 1887 1890 1844 1801 1772 1654 1304 1038 879 697 936 1538 1385 1580 1570 1359 1163 1076 1154 1113 1012 917 926 917 937 964 1052 1184 1146 1177 1143 1264
710 872 917 936 1093 1282 1361 1464 1721 2024 1927 1820 1808 1860 1606 1456 1417 1166 804 711 670 994 1010 1248 1610 1530 1226 1118 1036 1067 969 781 601 667 755 862 858 1067 1149 987 964 1151 995
546 835 886 935 1063 1263 1465 1647 1814 1845 1745 1672 1743 1536 1512 1445 1380 1015 665 477 684 893 910 1083 1673 1438 1035 914 887 902 694 547 525 615 713 822 784 1198 1133 1039 1049 1008 912
596 704 822 929 1089 1364 1683 1805 1758 1678 1634 1625 1508 1290 1315 1443 1103 666 356 485 576 467 551 653 1273 932 833 758 757 592 591 452 451 599 686 714 795 1148 1019 959 991 857 713
440 625 774 935 1119 1397 1694 1671 1390 1163 1371 1472 1364 1046 1229 896 735 674 336 367 513 273 751 709 858 819 753 714 585 561 551 483 453 534 567 656 908 937 776 699 743 679 587
408 538 767 942 1086 1338 1528 1535 1185 1108 1188 1502 1246 830 774 629 366 551 451 176 349 367 598 404 810 625 618 524 454 468 429 433 388 459 516 599 842 932 783 600 467 351 297
667 569 677 882 1018 1207 1365 1465 1277 1113 1134 1497 1309 847 447 176 118 335 165 250 338 420 523 544 742 516 495 392 280 289 383 411 335 377 404 422 848 841 696 514 358 142 101
912 629 630 805 933 1035 1238 1400 1266 1037 1144 1483 1171 814 420 62 4 166 25 85 294 360 377 835 704 558 382 301 188 320 330 302 275 289 266 491 753 825 611 381 135 25 22
1119 760 562 736 809 892 1065 1327 1323 1183 1253 1505 1135 717 358 26 0 4 183 53 102 111 467 879 842 461 295 278 146 247 317 327 226 262 251 403 723 672 455 168 87 18 11
1403 1080 741 696 790 826 879 1142 1304 1366 1393 1385 1259 849 495 105 0 10 211 215 50 262 449 581 492 296 284 217 134 253 258 239 181 176 245 266 544 353 198 70 20 28 16
1719 1568 1337 942 975 1075 865 891 992 1120 1264 1262 1214 936 656 260 129 22 179 229 156 223 332 351 236 205 211 233 111 193 250 187 125 69 62 104 284 362 193 68 63 58 30
1665 1818 1752 1488 1177 1324 1243 717 834 924 1013 1045 1107 1056 796 515 337 160 11 0 54 190 267 324 100 150 174 189 89 118 135 110 138 94 50 67 129 289 165 149 81 56 34
1648 1774 1907 1881 1594 1499 1543 1434 809 817 946 1004 946 1032 953 700 547 384 170 306 45 210 271 138 51 114 152 134 88 70 78 59 86 84 40 40 38 48 147 123 60 33 30
1704 1819 1856 2039 1909 1804 1612 1598 1368 927 953 959 1095 1046 980 886 722 271 227 355 152 80 73 19 11 67 99 93 63 64 52 48 74 71 34 19 4 1 11 32 16 35 20
1146 1780 1953 1989 2081 2024 1964 1768 1582 1179 1311 1156 1045 1349 1191 977 844 536 481 419 279 110 19 0 0 30 39 62 45 5 24 32 50 60 40 0 0 0 6 15 35 42 28
0 899 1810 1990 2113 2192 2096 2005 1833 1544 1364 1405 1522 1417 1401 1152 933 776 684 434 313 167 60 0 10 1 34 38 34 13 21 38 54 73 49 0 0 0 0 4 11 17 26
0 366 1494 1862 2109 2267 2223 2085 2037 1837 1839 1747 1755 1799 1590 1326 1176 1010 756 530 283 155 60 32 12 4 22 30 47 30 15 20 38 88 0 0 0 0 0 0 4 2 11
0 0 1135 1617 1990 2256 2250 2190 2068 1950 1725 1755 1747 1806 1705 1459 1294 1043 762 609 308 291 87 49 45 29 2 27 48 17 9 18 44 20 6 0 0 0 0 0 2 1 0
0 0 525 1456 1766 2252 2238 2190 2021 2014 1776 1888 1807 1754 1666 1542 1286 1066 748 531 311 219 136 120 91 27 13 15 16 21 7 0 29 0 0 0 0 0 0 0 0 0 0
0 0 0 1267 1743 2249 2234 2095 2026 1965 1784 1791 1662 1624 1483 1304 1397 1199 1391 895 527 427 283 214 182 54 15 15 4 10 8 0 0 0 1 12 0 0 0 0 0 0 0
0 0 0 1104 1744 2230 2194 2051 2076 1883 1860 1849 1681 1537 1440 1018 1541 1500 1093 1257 928 450 686 325 187 89 43 61 11 0 6 3 5 0 0 1 7 0 0 0 0 0 0
0 0 218 1260 1828 2148 2251 2095 2069 1859 1673 1612 1504 1434 1290 907 1534 1279 1447 1161 646 515 351 304 164 182 118 82 66 26 8 23 16 76 16 1 2 0 0 0 0 0 0
0 0 235 1273 1818 2085 2276 2164 1995 1873 1684 1646 1436 1551 1432 1113 1180 1194 1149 1061 982 409 346 320 221 285 154 309 141 43 22 27 8 11 5 7 0 1 14 1 4 0 0

GFSSE_con_mucape_129.txt.gz
CAPE
395 867 1210 1366 1335 1211 1161 1169 1203 1253 1373 1539 1704 1824 1832 1845 1931 2003 2043 2081 1968 2079 1775 1724 2033 2000 1651 1830 1804 1531 1405 1446 1316 1046 1359 1477 1332 1214 1486 1557 1415 1198 1478
554 916 1190 1360 1313 1234 1224 1268 1335 1401 1545 1659 1731 1805 1776 1841 1924 1987 1863 1942 2016 2032 1563 1419 1615 2160 1960 1790 1498 1394 1431 1131 1022 1031 905 1230 1645 1440 1387 1445 1285 1227 1240
777 907 1070 1171 1357 1392 1410 1460 1571 1646 1632 1608 1734 1819 1873 1879 2006 1925 1871 1892 2004 2058 1769 1669 1780 1603 1557 1629 1389 1205 1373 1231 1074 1109 1081 906 1149 1177 1333 1351 1247 1262 1132
867 909 919 997 1232 1457 1475 1528 1717 1795 1697 1778 1761 1817 1918 1920 1823 1660 1345 1380 1786 2090 1945 1584 1590 1756 1562 1355 1374 1397 1342 1205 1158 1096 824 739 1276 1182 1224 1119 1150 1153 973
872 870 842 949 1090 1278 1433 1589 1766 1846 1649 1676 1682 1775 1868 1793 1606 1218 998 1167 1565 1973 2014 1634 1649 1664 1230 1115 1132 1130 1029 934 900 779 803 678 843 1064 1113 1011 954 984 907
809 764 872 906 1016 1196 1344 1571 1780 1706 1503 1479 1622 1672 1691 1646 1431 911 764 988 1455 1712 1892 2011 1696 1373 955 837 923 855 775 772 729 727 682 621 854 1077 993 890 904 965 824
679 740 819 916 1053 1258 1498 1624 1691 1592 1453 1430 1548 1480 1523 1559 1288 766 671 983 1262 1439 1541 1841 1404 1049 792 802 765 642 633 632 662 681 692 616 817 1144 1002 882 936 833 708
564 696 798 968 1132 1284 1488 1541 1535 1511 1445 1433 1261 1241 1405 1285 1009 737 563 661 838 904 1084 1210 1028 821 717 766 595 557 550 542 589 617 673 710 966 820 727 680 679 668 637
513 669 898 1022 1184 1281 1356 1435 1468 1439 1396 1401 1028 951 922 815 582 559 462 356 558 784 822 988 798 630 642 635 537 602 483 453 529 511 572 593 1035 858 819 532 504 415 353
609 676 866 1013 1182 1232 1250 1320 1167 1223 1279 1409 1015 731 674 341 286 304 82 177 415 653 654 909 671 648 622 551 562 524 463 364 407 480 475 534 1001 971 741 581 344 313 195
604 666 790 932 1095 1204 1283 1209 1132 1150 1290 1363 1101 690 564 268 79 127 0 79 310 376 486 755 609 558 509 482 426 378 388 313 340 409 415 632 672 826 732 542 338 241 116
610 632 670 826 913 1166 1287 1325 1153 1134 1280 1394 1168 767 435 126 6 9 0 8 215 183 459 637 616 552 465 358 214 363 332 297 341 374 364 450 706 811 657 513 275 127 44
837 646 612 736 818 1040 1199 1383 1194 1162 1176 1341 1128 794 496 87 0 0 0 0 0 32 403 597 600 532 426 307 240 310 296 295 277 282 285 400 677 723 581 405 179 50 28
1207 938 636 734 821 955 1049 1521 1222 1070 1419 1187 1104 805 436 41 0 0 0 0 0 1 211 333 596 550 383 289 171 269 290 278 237 231 231 361 451 701 516 333 136 30 25
1314 1346 887 737 795 812 842 1048 1500 1595 1632 1342 1219 888 507 177 17 72 0 36 0 11 90 366 485 265 240 252 162 220 236 217 224 207 204 223 202 413 386 258 167 136 46
885 1640 1493 883 833 887 707 734 873 1523 1700 1829 1190 972 661 398 99 91 21 79 13 19 329 80 180 138 166 193 131 169 157 113 85 67 123 139 177 222 333 289 199 160 102
396 1485 1858 1541 1135 1048 849 638 712 929 1361 1577 1775 901 812 625 306 220 53 26 2 1 161 42 78 80 120 157 85 102 77 70 52 48 83 112 130 106 93 190 288 218 119
0 1408 1830 1916 1747 1308 1233 865 717 749 854 1150 1313 1394 926 834 610 361 322 76 205 1 67 74 26 53 74 100 80 49 48 46 36 40 57 80 91 29 13 33 61 143 145
7 1104 1831 2017 2016 1929 1624 1278 1061 842 785 831 924 1220 1238 993 841 653 550 173 348 172 75 23 4 16 36 78 63 34 37 26 4 45 61 63 69 0 0 7 10 30 49
0 411 1556 1928 2087 2141 2030 1710 1472 1278 1051 941 886 985 1156 991 1012 876 662 368 407 373 190 37 5 1 27 51 46 21 9 9 35 39 60 62 33 0 0 0 4 17 20
0 1 587 1741 2021 2135 2099 1988 1820 1693 1510 1096 1135 1028 1079 1242 1170 1003 852 694 613 440 309 133 38 0 7 21 35 19 10 7 37 29 35 44 14 0 0 0 0 6 11
0 0 3 1051 1879 2115 2079 2048 1866 1780 1783 1551 1202 1364 1512 1452 1370 1221 1123 1004 783 524 367 207 48 1 10 26 0 20 9 2 14 18 21 39 5 3 0 0 0 0 4
0 0 1 402 1498 2034 2153 2136 1917 1807 1746 1757 1680 1749 1791 1833 1726 1409 1330 1171 818 618 398 241 114 35 45 20 7 14 19 2 13 4 15 26 3 0 0 0 0 0 0
0 0 0 111 1268 1918 2208 2041 1892 1856 1649 1540 1565 1709 1796 1910 1740 1604 1303 1147 878 619 390 344 203 175 138 199 14 2 10 8 1 2 5 2 0 0 0 0 0 0 0
0 0 0 5 1088 1782 2144 1995 2018 1837 1701 1568 1554 1579 1868 1910 1796 1596 1152 1536 833 926 911 524 214 150 160 246 93 14 9 8 41 30 27 18 2 0 5 0 0 0 0
0 0 0 0 1112 1791 2113 2022 1899 1859 1803 1644 1468 1584 1617 1802 1621 1343 977 1199 1111 990 1125 749 419 214 224 184 146 41 74 39 15 29 7 5 10 1 11 12 0 0 0

GFSSE_con_mucape_132.txt.gz
CAPE
272 873 1071 1333 1386 1244 1080 993 960 1063 1324 1596 1781 1892 1924 1956 1906 1878 1984 2060 2180 2179 1900 1989 1764 1809 1741 2076 1925 1590 1582 1373 1321 1079 907 871 1223 1374 1350 1401 1283 940 1163
384 1010 1110 1314 1318 1242 1193 1120 1127 1254 1517 1725 1722 1712 1821 1876 1919 1968 2007 2005 2038 2090 1753 1996 1644 1775 1741 1850 1580 1695 1500 1276 1225 1230 1171 1123 1078 1213 1255 1194 1225 1087 1085
792 1068 1130 1235 1283 1307 1374 1358 1422 1550 1677 1769 1753 1727 1785 1865 1848 1886 1981 1979 2047 2038 1804 1875 2016 1733 1766 1567 1472 1472 1337 1163 1099 1037 880 741 666 1269 1311 1276 1241 1323 1258
851 1089 1174 1211 1274 1355 1413 1475 1561 1681 1714 1720 1780 1818 1873 1936 1908 1900 1910 1847 2032 2021 1961 1646 1752 1904 1685 1472 1478 1347 1213 1075 1044 1056 650 819 915 1221 1209 1105 1193 1165 1093
858 1035 1122 1196 1272 1364 1431 1538 1614 1665 1593 1587 1700 1874 1951 1968 1868 1699 1528 1604 1861 2060 2085 1870 1882 1860 1432 1262 1295 1326 1200 1008 850 780 585 961 958 1041 1148 1006 1082 1102 926
903 964 1004 1118 1276 1389 1497 1651 1720 1561 1454 1424 1558 1833 1956 1788 1594 1138 1152 1468 1882 1958 2012 2067 1940 1434 1070 1072 1108 1072 1016 964 793 651 456 767 1151 1107 1142 910 990 910 834
938 964 946 1017 1144 1399 1657 1769 1626 1417 1336 1375 1487 1615 1687 1597 1247 880 942 1321 1580 1636 1837 1810 1474 1139 902 914 932 926 873 828 756 586 487 611 781 1141 1031 870 971 812 722
907 945 939 1010 1119 1282 1576 1666 1514 1340 1274 1338 1286 1319 1471 1312 961 739 881 1155 1235 1115 1025 1197 1121 920 812 773 772 763 785 719 668 420 507 711 946 1025 785 695 803 648 533
803 844 911 1023 1206 1291 1434 1527 1460 1361 1284 1323 1141 1126 1154 979 685 540 634 720 723 854 838 916 834 771 697 627 594 612 658 634 574 570 549 692 886 929 814 601 546 489 393
734 836 904 986 1188 1318 1306 1443 1459 1431 1365 1280 1056 957 946 700 448 265 203 404 588 637 684 824 740 800 729 603 569 556 576 535 423 435 467 561 970 974 809 559 335 319 235
686 808 828 935 1175 1263 1281 1373 1469 1473 1444 1227 989 823 679 420 264 86 3 210 427 418 482 581 665 821 680 616 648 557 506 427 410 372 419 693 888 718 763 605 374 296 169
454 594 685 1049 1120 1249 1189 1352 1356 1357 1430 1343 979 729 455 191 63 0 0 39 191 238 400 323 469 606 580 579 571 550 465 351 369 394 454 549 766 692 756 622 433 249 107
787 490 887 1137 1078 1417 1280 1219 1227 1345 1356 1359 1154 739 506 279 57 0 0 7 20 108 310 355 403 550 548 444 358 383 368 294 345 407 442 435 631 792 768 583 415 243 75
1273 983 611 1096 1128 1268 1123 1186 1173 1218 1291 1656 1233 891 552 284 0 0 0 0 0 21 506 296 340 425 411 339 225 331 313 288 295 346 358 302 438 745 705 507 382 209 91
1178 1491 1142 746 1166 1429 1195 1159 989 1065 999 1304 1486 996 651 385 0 0 0 0 0 10 183 230 315 364 384 320 233 241 286 297 244 210 272 266 273 512 722 435 288 100 66
825 1196 1473 1237 811 1037 1087 976 847 908 863 1634 1392 980 759 457 0 4 0 0 0 0 33 146 514 346 317 311 245 196 251 189 143 144 211 174 185 240 374 524 312 193 85
46 858 1390 1566 1274 964 979 805 843 759 847 1676 1132 978 851 501 46 20 35 4 0 0 33 262 249 83 134 183 202 148 110 81 88 91 47 75 89 128 167 278 392 277 152
0 0 1368 1531 1434 1191 909 758 704 751 670 1407 950 1354 819 621 325 80 112 32 50 5 53 168 32 40 67 115 81 108 237 56 64 42 17 52 91 108 142 131 151 202 233
0 0 754 1733 1549 1509 1265 999 786 663 937 1110 1346 1502 999 732 605 271 146 150 77 20 21 16 8 18 25 60 70 50 69 53 67 39 24 43 55 84 90 62 38 45 81
0 0 4 1716 1757 1624 1667 1448 1264 733 807 1017 1263 1494 1427 941 717 601 348 358 132 114 88 30 29 1 6 26 47 44 26 44 66 39 8 18 65 55 59 8 1 6 33
0 0 0 1565 1960 1928 1911 1766 1634 1256 855 976 965 1160 1222 1510 1021 814 639 477 412 205 305 81 49 8 0 5 18 18 6 0 18 17 10 22 23 59 33 3 0 0 19
0 0 0 906 1951 2119 2046 1906 1865 1773 1229 995 877 992 1089 1381 1236 860 853 713 577 313 405 330 127 40 10 0 2 6 0 1 1 2 11 20 29 59 28 1 0 0 5
0 0 0 0 1530 2154 2178 2109 1982 1894 1562 1318 1199 1117 1405 1332 1110 855 963 862 742 571 590 465 288 162 76 0 1 13 8 0 1 0 3 8 37 36 34 3 0 0 0
0 0 0 0 111 1819 2171 2121 1873 1830 1660 1470 1466 1369 1620 1492 970 1090 1157 1046 942 861 778 579 413 285 173 30 11 21 16 5 0 0 0 0 14 32 22 7 0 0 0
0 0 0 0 0 735 2065 2095 1896 1781 1708 1642 1597 1461 1496 1516 1190 1462 1511 1434 1200 1077 630 534 498 312 219 104 42 31 23 58 10 6 2 0 11 9 31 3 1 0 0
0 0 0 0 0 614 1930 2116 1938 1807 1720 1681 1625 1608 2150 1995 1498 1831 1745 1662 1344 1110 1145 729 423 337 289 155 131 57 67 103 10 17 13 3 9 18 37 8 8 12 0